[[{"header":{"parameterUnit":"m.s-1","parameterCategory":1,"la1":31.0,"la2":29.5877,"lo1":-88.7671,"lo2":-86.6584,"dy":0.0162,"dx":0.0185,"nx":115,"ny":88,"refTime":"2023-05-25T00:00:00:Z","depth":0,"parameterNumber":2,"parameterNumberName":"U-component_of_WINDS"},"data":[0.0,0.0,0.0,0.0,0.0,0.0,0.0,0.0,0.0,0.0,0.0,0.0,0.0,0.0,0.0,0.0,0.0,0.0,0.0,0.0,0.0,0.0,0.0,0.0,0.0,0.0,0.0,0.0,0.0,0.0,0.0,0.0,0.0,0.0,0.0,0.0,0.0,0.0,0.0,0.0,0.0,0.0,0.0,0.0,0.0,0.0,0.0,0.0,0.0,0.0,0.0,0.0,0.0,0.0,0.0,0.0,0.0,0.0,0.0,0.0,0.0,0.0,0.0,0.0,0.0,0.0,0.0,0.0,0.0,0.0,0.0,0.0,0.0,0.0,0.0,0.0,0.0,0.0,0.0,0.0,0.0,0.0,0.0,0.0,0.0,0.0,0.0,0.0,0.0,0.0,0.0,0.0,0.0,0.0,0.0,0.0,0.0,0.0,0.0,0.0,0.0,0.0,0.0,0.0,0.0,0.0,0.0,0.0,0.0,0.0,0.0,0.0,0.0,0.0,0.0,0.0,0.0,0.0,0.0,0.0,0.0,0.0,0.0,0.0,0.0,0.0,0.0,0.0,0.0,0.0,0.0,0.0,0.0,0.0,0.0,0.0,0.0,0.0,0.0,0.0,0.0,0.0,0.0,0.0,0.0,0.0,0.0,0.0,0.0,0.0,0.0,0.0,0.0,0.0,0.0,0.0,0.0,0.0,0.0,0.0,0.0,0.0,0.0,0.0,0.0,0.0,0.0,0.0,0.0,0.0,0.0,0.0,0.0,0.0,0.0,0.0,0.0,0.0,0.0,0.0,0.0,0.0,0.0,0.0,0.0,0.0,0.0,0.0,0.0,0.0,0.0,0.0,0.0,0.0,0.0,0.0,0.0,0.0,0.0,0.0,0.0,0.0,0.0,0.0,0.0,0.0,0.0,0.0,0.0,0.0,0.0,0.0,0.0,0.0,0.0,0.0,0.0,0.0,0.0,0.0,0.0,0.0,0.0,0.0,0.0,0.0,0.0,0.0,0.0,0.0,0.0,0.0,0.0,0.0,0.0,0.0,0.0,0.0,0.0,0.0,0.0,0.0,0.0,0.0,0.0,0.0,0.0,0.0,0.0,0.0,0.0,0.0,0.0,0.0,0.0,0.0,0.0,0.0,0.0,0.0,0.0,0.0,0.0,0.0,0.0,0.0,0.0,0.0,0.0,0.0,0.0,0.0,0.0,0.0,0.0,0.0,0.0,0.0,0.0,0.0,0.0,0.0,0.0,0.0,0.0,0.0,0.0,0.0,0.0,0.0,0.0,0.0,0.0,0.0,0.0,0.0,0.0,0.0,0.0,0.0,0.0,0.0,0.0,0.0,0.0,0.0,0.0,0.0,0.0,0.0,0.0,0.0,0.0,0.0,0.0,0.0,0.0,0.0,0.0,0.0,0.0,0.0,0.0,0.0,0.0,0.0,0.0,0.0,0.0,0.0,0.0,0.0,0.0,0.0,0.0,0.0,0.0,0.0,0.0,0.0,0.0,0.0,0.0,0.0,0.0,0.0,0.0,0.0,0.0,0.0,0.0,0.0,0.0,0.0,0.0,0.0,0.0,0.0,0.0,0.0,0.0,0.0,0.0,0.0,0.0,0.0,0.0,0.0,0.0,0.0,0.0,0.0,0.0,0.0,0.0,0.0,0.0,0.0,0.0,0.0,0.0,0.0,0.0,0.0,0.0,0.0,0.0,0.0,0.0,0.0,0.0,0.0,0.0,0.0,0.0,0.0,0.0,0.0,0.0,0.0,0.0,0.0,0.0,0.0,0.0,0.0,0.0,0.0,0.0,0.0,0.0,0.0,0.0,0.0,0.0,0.0,0.0,0.0,0.0,0.0,0.0,0.0,0.0,0.0,0.0,0.0,0.0,0.0,0.0,0.0,0.0,0.0,0.0,0.0,0.0,0.0,0.0,0.0,0.0,0.0,0.0,0.0,0.0,0.0,0.0,0.0,0.0,0.0,0.0,0.0,0.0,0.0,0.0,0.0,0.0,0.0,0.0,0.0,0.0,0.0,0.0,0.0,0.0,0.0,0.0,0.0,0.0,0.0,0.0,0.0,0.0,0.0,0.0,0.0,0.0,0.0,0.0,0.0,0.0,0.0,0.0,0.0,0.0,0.0,0.0,0.0,0.0,0.0,0.0,0.0,0.0,0.0,0.0,0.0,0.0,0.0,0.0,0.0,0.0,0.0,0.0,0.0,0.0,0.0,0.0,0.0,0.0,0.0,0.0,0.0,0.0,0.0,0.0,0.0,0.0,0.0,0.0,0.0,0.0,0.0,0.0,0.0,0.0,0.0,0.0,0.0,0.0,0.0,0.0,0.0,0.0,0.0,0.0,0.0,0.0,0.0,0.0,0.0,0.0,0.0,0.0,0.0,0.0,0.0,0.0,0.0,0.0,0.0,0.0,0.0,0.0,0.0,0.0,0.0,0.0,0.0,0.0,0.0,0.0,0.0,0.0,0.0,0.0,0.0,0.0,0.0,0.0,0.0,0.0,0.0,0.0,0.0,0.0,0.0,0.0,0.0,0.0,0.0,0.0,0.0,0.0,0.0,0.0,0.0,0.0,0.0,0.0,0.0,0.0,0.0,0.0,0.0,0.0,0.0,0.0,0.0,0.0,0.0,0.0,0.0,0.0,0.0,0.0,0.0,0.0,0.0,0.0,0.0,0.0,0.0,0.0,0.0,0.0,0.0,0.0,0.0,0.0,0.0,0.0,0.0,0.0,0.0,0.0,0.0,0.0,0.0,0.0,0.0,0.0,0.0,0.0,0.0,0.0,0.0,0.0,0.0,0.0,0.0,0.0,0.0,0.0,0.0,0.0,0.0,0.0,0.0,0.0,0.0,0.0,0.0,0.0,0.0,0.0,0.0,0.0,0.0,0.0,0.0,0.0,0.0,0.0,0.0,0.0,0.0,0.0,0.0,0.0,0.0,0.0,0.0,0.0,0.0,0.0,0.0,0.0,0.0,0.0,0.0,0.0,0.0,0.0,0.0,0.0,0.0,0.0,0.0,0.0,0.0,0.0,0.0,0.0,0.0,0.0,0.0,0.0,0.0,0.0,0.0,0.0,0.0,0.0,0.0,0.0,0.0,0.0,0.0,0.0,0.0,0.0,0.0,0.0,0.0,0.0,0.0,0.0,0.0,0.0,0.0,0.0,0.0,0.0,0.0,0.0,0.0,0.0,0.0,0.0,0.0,0.0,0.0,0.0,0.0,0.0,0.0,0.0,0.0,0.0,0.0,0.0,0.0,0.0,0.0,0.0,0.0,0.0,0.0,0.0,0.0,0.0,0.0,0.0,0.0,0.0,0.0,0.0,0.0,0.0,0.0,0.0,0.0,0.0,0.0,0.0,0.0,0.0,0.0,0.0,0.0,0.0,0.0,0.0,0.0,0.0,0.0,0.0,0.0,0.0,0.0,0.0,0.0,0.0,0.0,0.0,0.0,0.0,0.0,0.0,0.0,0.0,0.0,0.0,0.0,0.0,0.0,0.0,0.0,0.0,0.0,0.0,0.0,0.0,0.0,0.0,0.0,0.0,0.0,0.0,0.0,0.0,0.0,0.0,0.0,0.0,0.0,0.0,0.0,0.0,0.0,0.0,0.0,0.0,0.0,0.0,0.0,0.0,0.0,0.0,0.0,0.0,0.0,0.0,0.0,0.0,0.0,0.0,0.0,0.0,0.0,0.0,0.0,0.0,0.0,0.0,0.0,0.0,0.0,0.0,0.0,0.0,0.0,0.0,0.0,0.0,0.0,0.0,0.0,0.0,0.0,0.0,0.0,0.0,0.0,0.0,0.0,0.0,0.0,0.0,0.0,0.0,0.0,0.0,0.0,0.0,0.0,0.0,0.0,0.0,0.0,0.0,0.0,0.0,0.0,0.0,0.0,0.0,0.0,0.0,0.0,0.0,0.0,0.0,0.0,0.0,0.0,0.0,0.0,0.0,0.0,0.0,0.0,0.0,0.0,0.0,0.0,0.0,0.0,0.0,0.0,0.0,0.0,0.0,0.0,0.0,0.0,0.0,0.0,0.0,0.0,0.0,0.0,0.0,0.0,0.0,0.0,0.0,0.0,0.0,0.0,0.0,0.0,0.0,0.0,0.0,0.0,0.0,0.0,0.0,0.0,0.0,0.0,0.0,0.0,0.0,0.0,0.0,0.0,0.0,0.0,0.0,0.0,0.0,0.0,0.0,0.0,0.0,0.0,0.0,0.0,0.0,0.0,0.0,0.0,0.0,0.0,0.0,0.0,0.659,0.0,0.0,0.0,0.0,0.0,0.0,0.0,0.0,0.0,0.0,0.0,0.0,0.0,0.0,0.0,0.0,0.0,0.0,0.0,0.0,0.0,0.0,0.0,0.0,0.0,0.0,0.0,0.0,0.0,0.0,0.0,0.0,0.0,0.0,0.0,0.0,0.0,0.0,0.0,0.0,0.0,0.0,0.0,0.0,0.0,0.0,0.0,0.0,0.0,0.0,0.0,0.0,0.0,0.0,0.0,0.0,0.0,0.0,0.0,0.0,0.0,0.0,0.0,0.0,0.0,0.0,0.0,0.0,0.0,0.0,0.0,0.0,0.0,0.0,0.0,0.0,0.0,0.0,0.0,0.0,0.0,0.0,0.0,0.0,0.0,0.0,0.0,0.0,0.0,0.0,0.0,0.0,0.0,0.0,0.0,0.0,0.0,0.0,0.0,0.0,0.0,0.0,0.0,0.0,0.0,0.0,0.0,0.0,0.0,0.0,0.659,0.659,0.659,0.659,0.659,0.0,0.0,0.0,0.0,0.0,0.0,0.0,0.0,0.0,0.0,0.0,0.0,0.0,0.0,0.0,0.0,0.0,0.0,0.0,0.0,0.0,0.0,0.0,0.0,0.0,0.0,0.0,0.0,0.0,0.0,0.0,0.0,0.0,0.0,0.0,0.0,0.0,0.0,0.0,0.0,0.0,0.0,0.0,0.0,0.0,0.0,0.0,0.0,0.0,0.0,0.0,0.0,0.0,0.0,0.0,0.0,0.0,0.0,0.0,0.0,0.0,0.0,0.0,0.0,0.0,0.0,0.0,0.0,0.0,0.0,0.0,0.0,0.0,0.0,0.0,0.0,0.0,0.0,0.0,0.0,0.0,0.0,0.0,0.0,0.0,0.0,0.0,0.0,0.0,0.0,0.0,0.0,0.0,0.0,0.0,0.0,0.0,0.0,0.0,0.0,0.0,0.0,0.0,0.0,0.0,0.0,0.0,0.0,0.0,0.0,0.0,0.0,0.659,0.659,0.6586,0.0,0.0,0.0,0.0,0.0,0.0,0.0,0.0,0.0,0.0,0.0,0.0,0.0,0.0,0.0,0.0,0.0,0.0,0.0,0.0,0.0,0.0,0.0,0.0,0.0,0.0,0.0,0.0,0.0,0.0,0.0,0.0,0.0,0.0,0.0,0.0,0.0,0.0,0.0,0.0,0.0,0.0,0.0,0.0,0.0,0.0,0.0,0.0,0.0,0.0,0.0,0.0,0.0,0.0,0.0,0.0,0.0,0.0,0.0,0.0,0.0,0.0,0.0,0.0,0.0,0.0,0.0,0.0,0.0,0.0,0.0,0.0,0.0,0.0,0.0,0.0,0.0,0.0,0.0,0.0,0.0,0.0,0.0,0.0,0.0,0.0,0.0,0.0,0.0,0.0,0.0,0.0,0.0,0.0,0.0,0.0,0.0,0.0,0.0,0.0,0.0,0.0,0.0,0.0,0.0,0.0,0.0,0.0,0.0,0.0,0.659,0.659,0.659,0.0,0.6501,0.0,0.0,0.0,0.0,0.0,0.0,0.0,0.0,0.0,0.0,0.0,0.0,0.0,0.0,0.0,0.0,0.0,0.0,0.0,0.0,0.0,0.0,0.0,0.0,0.0,0.0,0.0,0.0,0.0,0.0,0.0,0.0,0.0,0.0,0.0,0.0,0.0,0.0,0.0,0.0,0.0,0.0,0.0,0.0,0.0,0.0,0.0,0.0,0.0,0.0,0.0,0.0,0.0,0.0,0.0,0.0,0.0,0.0,0.0,0.0,0.0,0.0,0.0,0.0,0.0,0.0,0.0,0.0,0.0,0.0,0.0,0.0,0.0,0.0,0.0,0.0,0.0,0.0,0.0,0.0,0.0,0.0,0.0,0.0,0.0,0.0,0.0,0.0,0.0,0.0,0.0,0.0,0.0,0.0,0.0,0.0,0.0,0.0,0.0,0.0,0.0,0.0,0.0,0.0,0.0,0.0,0.0,0.0,0.0,0.0,0.6659,0.6659,0.6625,0.659,0.0,0.0,0.0,0.0,0.0,0.0,0.0,0.0,0.0,0.0,0.0,0.0,0.0,0.0,0.0,0.0,0.0,0.0,0.0,0.0,0.0,0.0,0.0,0.0,0.0,0.0,0.0,0.0,0.0,0.0,0.0,0.0,0.0,0.0,0.0,0.0,0.0,0.0,0.0,0.0,0.0,0.0,0.0,0.0,0.0,0.0,0.0,0.0,0.0,0.0,0.0,0.0,0.0,0.0,0.0,0.0,0.0,0.0,0.0,0.0,0.0,0.0,0.0,0.0,0.0,0.0,0.0,0.0,0.0,0.0,0.0,0.0,0.0,0.0,0.0,0.0,0.0,0.0,0.0,0.0,0.0,0.0,0.0,0.0,0.0,0.0,0.0,0.0,0.0,0.0,0.0,0.0,0.0,0.0,0.0,0.0,0.0,0.0,0.0,0.0,0.0,0.0,0.0,0.0,0.0,0.0,0.0,0.0,0.0,0.0,0.6732,0.671,0.6702,0.6659,0.6625,0.6625,0.0,0.0,0.0,0.0,0.0,0.0,0.0,0.0,0.0,0.0,0.0,0.0,0.0,0.0,0.0,0.0,0.0,0.0,0.0,0.0,0.0,0.0,0.0,0.0,0.0,0.0,0.0,0.0,0.0,0.0,0.0,0.0,0.0,0.0,0.0,0.0,0.0,0.0,0.0,0.0,0.0,0.0,0.0,0.0,0.0,0.0,0.0,0.0,0.0,0.0,0.0,0.0,0.0,0.0,0.0,0.0,0.0,0.0,0.0,0.0,0.0,0.0,0.0,0.0,0.0,0.0,0.0,0.0,0.0,0.0,0.0,0.0,0.0,0.0,0.0,0.0,0.0,0.0,0.0,0.0,0.0,0.0,0.0,0.0,0.0,0.0,0.0,0.0,0.0,0.0,0.0,0.0,0.0,0.0,0.0,0.0,0.0,0.0,0.0,0.0,0.0,0.0,0.0,0.0,0.0,0.0,0.0,0.0,0.6803,0.6749,0.671,0.671,0.6681,0.6693,0.0,0.0,0.0,0.0,0.0,0.0,0.0,0.0,0.0,0.0,0.0,0.0,0.0,0.0,0.0,0.0,0.0,0.0,0.0,0.0,0.0,0.0,0.0,0.0,0.0,0.0,0.0,0.0,0.0,0.0,0.0,0.0,0.0,0.0,0.0,0.0,0.0,0.0,0.0,0.0,0.0,0.0,0.0,0.0,0.0,0.0,0.0,0.0,0.0,0.0,0.0,0.0,0.0,0.0,0.0,0.0,0.0,0.0,0.0,0.0,0.0,0.0,0.0,0.0,0.0,0.0,0.0,0.0,0.0,0.0,0.0,0.0,0.0,0.0,0.0,0.0,0.0,0.0,0.0,0.0,0.0,0.0,0.0,0.0,0.0,0.0,0.0,0.0,0.0,0.0,0.0,0.0,0.0,0.0,0.0,0.0,0.0,0.0,0.0,0.0,0.0,0.0,0.0,0.0,0.0,0.0,0.0,0.0,0.0,0.6862,0.6799,0.6744,0.6715,0.671,0.671,0.0,0.0,0.0,0.0,0.0,0.0,0.0,0.0,0.0,0.0,0.0,0.0,0.0,0.0,0.0,0.0,0.0,0.0,0.0,0.0,0.0,0.0,0.0,0.0,0.0,0.0,0.0,0.0,0.0,0.0,0.0,0.0,0.0,0.0,0.0,0.0,0.0,0.0,0.0,0.0,0.0,0.0,0.0,0.0,0.0,0.0,0.0,0.0,0.0,0.0,0.0,0.0,0.0,0.0,0.0,0.0,0.0,0.0,0.0,0.0,0.0,0.0,0.0,0.0,0.0,0.0,0.0,0.0,0.0,0.0,0.0,0.0,0.0,0.0,0.0,0.0,0.0,0.0,0.0,0.0,0.0,0.0,0.0,0.0,0.0,0.0,0.0,0.0,0.0,0.0,0.0,0.0,0.0,0.0,0.0,0.0,0.0,0.0,0.0,0.0,0.0,0.0,0.0,0.0,0.0,0.0,0.0,0.0,0.0,0.6824,0.0,0.6778,0.6736,0.6761,0.674,0.0,0.0,0.0,0.0,0.0,0.0,0.0,0.0,0.0,0.0,0.0,0.0,0.0,0.0,0.0,0.0,0.0,0.0,0.0,0.0,0.0,0.0,0.0,0.0,0.0,0.0,0.0,0.0,0.0,0.0,0.0,0.0,0.0,0.0,0.0,0.0,0.0,0.0,0.0,0.0,0.0,0.0,0.0,0.0,0.0,0.0,0.0,0.0,0.0,0.0,0.0,0.0,0.0,0.0,0.0,0.0,0.0,0.0,0.0,0.0,0.0,0.0,0.0,0.0,0.0,0.0,0.0,0.0,0.0,0.0,0.0,0.0,0.0,0.0,0.0,0.0,0.0,0.0,0.0,0.0,0.0,0.0,0.0,0.0,0.0,0.0,0.0,0.0,0.0,0.0,0.0,0.0,0.0,0.0,0.0,0.0,0.0,0.0,0.0,0.0,0.0,0.0,0.0,0.0,0.0,0.0,0.0,0.0,0.6715,0.671,0.6804,0.6842,0.6816,0.6892,0.6846,0.0,0.0,0.0,0.0,0.0,0.0,0.0,0.0,0.0,0.0,0.0,0.0,0.0,0.0,0.0,0.0,0.0,0.0,0.0,0.0,0.0,0.0,0.0,0.0,0.0,0.0,0.0,0.0,0.0,0.0,0.0,0.0,0.0,0.0,0.0,0.0,0.0,0.0,0.0,0.0,0.0,0.0,0.0,0.0,0.0,0.0,0.0,0.0,0.0,0.0,0.0,0.0,0.0,0.0,0.0,0.0,0.0,0.0,0.0,0.0,0.0,0.0,0.0,0.0,0.0,0.0,0.0,0.0,0.0,0.0,0.0,0.0,0.0,0.0,0.0,0.0,0.0,0.0,0.0,0.0,0.0,0.0,0.0,0.0,0.0,0.0,0.0,0.0,0.0,0.0,0.0,0.0,0.0,0.0,0.0,0.0,0.0,0.0,0.0,0.0,0.0,0.0,0.0,0.0,0.0,0.0,0.0,0.0,0.0,0.7388,0.7412,0.7426,0.7422,0.7425,0.7226,0.0,0.0,0.0,0.0,0.0,0.0,0.0,0.0,0.0,0.0,0.0,0.0,0.0,0.0,0.0,0.0,0.0,0.0,0.0,0.0,0.0,0.0,0.0,0.0,0.0,0.0,0.0,0.0,0.0,0.0,0.0,0.0,0.0,0.0,0.0,0.0,0.0,0.0,0.0,0.0,0.0,0.0,0.0,0.0,0.0,0.0,0.0,0.0,0.0,0.0,0.0,0.0,0.0,0.0,0.0,0.0,0.0,0.0,0.0,0.0,0.0,0.0,0.0,0.0,0.0,0.0,0.0,0.0,0.0,0.0,0.0,0.0,0.0,0.0,0.0,0.0,0.0,0.0,0.0,0.0,0.0,0.0,0.0,0.0,0.0,0.0,0.0,0.0,0.0,0.0,0.0,0.0,0.0,0.0,0.0,0.0,0.0,0.0,0.0,0.0,0.0,0.0,0.0,0.0,0.0,0.0,0.0,0.0,0.0,0.9193,0.8828,0.8701,0.8839,0.8717,0.8151,0.7196,0.0,0.0,0.0,0.0,0.0,0.0,0.0,0.0,0.0,0.0,0.0,0.0,0.0,0.0,0.0,0.0,0.0,0.0,0.0,0.0,0.0,0.0,0.0,0.0,0.0,0.0,0.0,0.0,0.0,0.0,0.0,0.0,0.0,0.0,0.0,0.0,0.0,0.0,0.0,0.0,0.0,0.0,0.0,0.0,0.0,0.0,0.0,0.0,0.0,0.0,0.0,0.0,0.0,0.0,0.0,0.0,0.0,0.0,0.0,0.0,0.0,0.0,0.0,0.0,0.0,0.0,0.0,0.0,0.0,0.0,0.0,0.0,0.0,0.0,0.0,0.0,0.0,0.0,0.0,0.0,0.0,0.0,0.0,0.0,0.0,0.0,0.0,0.0,0.0,0.0,0.0,0.0,0.0,0.0,0.0,0.0,0.0,0.0,0.0,0.0,0.0,0.0,0.0,0.0,0.0,0.0,0.0,0.0,1.2042,1.1119,1.0742,1.0927,1.0537,0.9526,0.0,0.0,0.0,0.0,0.0,0.0,0.0,0.0,0.0,0.0,0.0,0.0,0.0,0.0,0.0,0.0,0.0,0.0,0.0,0.0,0.0,0.0,0.0,0.0,0.0,0.0,0.0,0.0,0.0,0.0,0.0,0.0,0.0,0.0,0.0,0.0,0.0,0.0,0.0,0.0,0.0,0.0,0.0,0.0,0.0,0.0,0.0,0.0,0.0,0.0,0.0,0.0,0.0,0.0,0.0,0.0,0.0,0.0,0.0,0.0,0.0,0.0,0.0,0.0,0.0,0.0,0.0,0.0,0.0,0.0,0.0,0.0,0.0,0.0,0.0,0.0,0.0,0.0,0.0,0.0,0.0,0.0,0.0,0.0,0.0,0.0,0.0,0.0,0.0,0.0,0.0,0.0,0.0,0.0,0.0,0.0,0.0,0.0,0.0,0.0,0.0,0.0,0.0,0.0,0.0,0.0,0.0,0.0,0.0,1.5187,1.556,1.4791,1.3003,1.2122,1.0899,0.0,0.0,0.0,0.0,0.0,0.0,0.0,0.0,0.0,0.0,0.0,0.0,0.0,0.0,0.0,0.0,0.0,0.0,0.0,0.0,0.0,0.0,0.0,0.0,0.0,0.0,0.0,0.0,0.0,0.0,0.0,0.0,0.0,0.0,0.0,0.0,0.0,0.0,0.0,0.0,0.0,0.0,0.0,0.0,0.0,0.0,0.0,0.0,0.0,0.0,0.0,0.0,0.0,0.0,0.0,0.0,0.0,0.0,0.0,0.0,0.0,0.0,0.0,0.0,0.0,0.0,0.0,0.0,0.0,0.0,0.0,0.0,0.0,0.0,0.0,0.0,0.0,0.0,0.0,0.0,0.0,0.0,0.0,0.0,0.0,0.0,0.0,0.0,0.0,0.0,0.0,0.0,0.0,0.0,0.0,0.0,0.0,0.0,0.0,0.0,0.0,0.0,0.0,0.0,0.0,0.0,0.0,0.0,1.3688,1.6546,1.8165,1.8159,1.6473,1.4496,1.238,0.0,0.0,0.0,0.0,0.0,0.0,0.0,0.0,0.0,0.0,0.0,0.0,0.0,0.0,0.0,0.0,0.0,0.0,0.0,0.0,0.0,0.0,0.0,0.0,0.0,0.0,0.0,0.0,0.0,0.0,0.0,0.0,0.0,0.0,0.0,0.0,0.0,0.0,0.0,0.0,0.0,0.0,0.0,0.0,0.0,0.0,0.0,0.0,0.0,0.0,0.0,0.0,0.0,0.0,0.0,0.0,0.0,0.0,0.0,0.0,0.0,0.0,0.0,0.0,0.0,0.0,0.0,0.0,0.0,0.0,0.0,0.0,0.0,0.0,0.0,0.0,0.0,0.0,0.0,0.0,0.0,0.0,0.0,0.0,0.0,0.0,0.0,0.0,0.0,0.0,0.0,0.0,0.0,0.0,0.0,0.0,0.0,0.0,0.0,0.0,0.0,0.0,0.0,0.0,0.0,0.0,0.0,0.0,1.4911,1.6744,1.9575,2.0755,2.013,1.7081,1.3986,0.0,0.0,0.0,0.0,0.0,0.0,0.0,0.0,0.0,0.0,0.0,0.0,0.0,0.0,0.0,0.0,0.0,0.0,0.0,0.0,0.0,0.0,0.0,0.0,0.0,0.0,0.0,0.0,0.0,0.0,0.0,0.0,0.0,0.0,0.0,0.0,0.0,0.0,0.0,0.0,0.0,0.0,0.0,0.0,0.0,0.0,0.0,0.0,0.0,0.0,0.0,0.0,0.0,0.0,0.0,0.0,0.0,0.0,0.0,0.0,0.0,0.0,0.0,0.0,0.0,0.0,0.0,0.0,0.0,0.0,0.0,0.0,0.0,0.0,0.0,0.0,0.0,0.0,0.0,0.0,0.0,0.0,0.0,0.0,0.0,0.0,0.0,0.0,0.0,0.0,0.0,0.0,0.0,0.0,0.0,0.0,0.0,0.0,0.0,0.0,0.0,0.0,0.0,0.0,0.0,0.0,0.0,0.0,1.5744,1.7919,2.0598,2.1401,2.0156,1.7945,1.5653,0.0,0.0,0.0,0.0,0.0,0.0,0.0,0.0,0.0,0.0,0.0,0.0,0.0,0.0,0.0,0.0,0.0,0.0,0.0,0.0,0.0,0.0,0.0,0.0,0.0,0.0,0.0,0.0,0.0,0.0,0.0,0.0,0.0,0.0,0.0,0.0,0.0,0.0,0.0,0.0,0.0,0.0,0.0,0.0,0.0,0.0,0.0,0.0,1.2649,0.0,0.0,0.0,0.0,0.0,0.0,0.0,0.0,0.0,0.0,0.0,0.0,0.0,0.0,0.0,0.0,0.0,0.0,0.0,0.0,0.0,0.0,0.0,0.0,0.0,0.0,0.0,0.0,0.0,0.0,0.0,0.0,0.0,0.0,0.0,0.0,0.0,0.0,0.0,0.0,0.0,0.0,0.0,0.0,0.0,0.0,0.0,0.0,0.0,0.0,0.0,0.0,0.0,0.0,0.0,0.0,0.0,0.0,0.0,1.6091,1.8566,2.0541,2.1046,1.9965,1.8496,1.6516,0.0,0.0,0.0,0.0,0.0,0.0,0.0,0.0,0.0,0.0,0.0,0.0,0.0,0.0,0.0,0.0,0.0,0.0,0.0,0.0,0.0,0.0,0.0,0.0,0.0,0.0,0.0,0.0,0.0,0.0,0.0,0.0,0.0,0.0,0.0,0.0,0.0,0.0,0.0,0.0,0.0,0.0,0.0,0.0,0.0,0.0,0.0,0.0,0.0,0.0,0.0,0.0,0.0,0.0,0.0,0.0,0.0,0.0,0.0,0.0,0.0,0.0,0.0,0.0,0.0,0.0,0.0,0.0,0.0,0.0,0.0,0.0,0.0,0.0,0.0,0.0,0.0,0.0,0.0,0.0,0.0,0.0,0.0,0.0,0.0,0.0,0.0,0.0,0.0,0.0,0.0,0.0,0.0,0.0,0.0,0.0,0.0,0.0,0.0,0.0,0.0,0.0,0.0,0.0,0.0,0.0,0.0,1.3808,1.6269,1.8782,2.0163,2.0503,1.9811,1.8829,1.6954,1.4095,0.0,0.0,0.0,0.0,0.0,0.0,0.0,0.0,0.0,0.0,0.0,0.0,0.0,0.0,0.0,0.0,0.0,0.0,0.0,0.0,0.0,0.0,0.0,0.0,0.0,0.0,0.0,0.0,0.0,0.0,0.0,0.0,0.0,0.0,0.0,0.0,0.0,0.0,1.3694,1.4244,0.0,0.0,0.0,0.0,0.0,0.0,0.0,0.0,1.3933,0.0,0.0,0.0,0.0,0.0,0.0,0.0,0.0,0.0,0.0,0.0,0.0,0.0,0.0,0.0,0.0,0.0,0.0,0.0,0.0,0.0,0.0,0.0,0.0,0.0,0.0,0.0,0.0,0.0,0.0,0.0,0.0,0.0,0.0,0.0,0.0,0.0,0.0,0.0,0.0,0.0,0.0,0.0,0.0,0.0,0.0,0.0,0.0,0.0,0.0,0.0,0.0,0.0,0.0,0.0,0.0,1.0938,1.4006,1.6482,1.8292,2.0326,2.0879,1.9836,1.8829,1.7079,1.4526,0.0,0.0,0.0,0.0,0.0,0.0,0.0,0.0,0.0,0.0,0.0,0.0,0.0,0.0,0.0,0.0,0.0,0.0,0.0,0.0,0.0,0.0,0.0,0.0,0.0,0.0,0.0,0.0,0.0,0.0,0.0,0.0,0.0,0.0,0.0,0.0,0.0,0.0,0.0,1.5186,1.5551,0.0,0.0,0.0,0.0,0.0,0.0,0.0,0.0,1.6152,0.0,0.0,0.0,0.0,0.0,0.0,0.0,0.0,0.0,0.0,0.0,0.0,0.0,0.0,0.0,0.0,0.0,0.0,0.0,0.0,0.0,0.0,0.0,0.0,0.0,0.0,0.0,0.0,0.0,0.0,0.0,0.0,0.0,0.0,0.0,0.0,0.0,0.0,0.0,0.0,0.0,0.0,0.0,0.0,0.0,0.0,0.0,0.0,0.0,0.0,0.0,0.0,0.0,0.0,0.0,1.2514,1.4884,1.7061,1.8945,1.9785,1.9811,1.8982,1.8031,1.6431,0.0,0.0,0.0,0.0,0.0,0.0,0.0,0.0,0.0,0.0,0.0,0.0,0.0,0.0,0.0,0.0,0.0,0.0,0.0,0.0,0.0,0.0,0.0,0.0,0.0,0.0,0.0,0.0,0.0,0.0,0.0,0.0,0.0,0.0,0.0,0.0,0.0,0.0,0.0,0.0,1.6356,1.6909,1.7769,0.0,0.0,0.0,0.0,0.0,0.0,1.7169,1.7051,0.0,0.0,0.0,0.0,0.0,0.0,0.0,0.0,0.0,0.0,0.0,0.0,0.0,0.0,0.0,0.0,0.0,0.0,0.0,0.0,0.0,0.0,0.0,0.0,0.0,0.0,0.0,0.0,0.0,0.0,0.0,0.0,0.0,0.0,0.0,0.0,0.0,0.0,0.0,0.0,0.0,0.0,0.0,0.0,0.0,0.0,0.0,0.0,0.0,0.0,0.0,0.0,0.0,0.0,0.0,1.3677,1.5444,1.729,1.9158,1.8995,1.8581,1.8041,1.7115,1.5647,0.0,0.0,0.0,0.0,0.0,0.0,0.0,0.0,0.0,0.0,0.0,0.0,0.0,0.0,0.0,0.0,0.0,0.0,0.0,0.0,0.0,0.0,0.0,0.0,0.0,0.0,0.0,0.0,0.0,0.0,0.0,0.0,0.0,0.0,0.0,0.0,0.0,0.0,0.0,0.0,0.0,1.8033,1.8691,1.8373,0.0,0.0,0.0,0.0,1.7979,1.8171,0.0,0.0,0.0,0.0,0.0,0.0,0.0,0.0,0.0,0.0,0.0,0.0,0.0,0.0,0.0,0.0,0.0,0.0,0.0,0.0,0.0,0.0,0.0,0.0,0.0,0.0,0.0,0.0,0.0,0.0,0.0,0.0,0.0,0.0,0.0,0.0,0.0,0.0,0.0,0.0,0.0,0.0,0.0,0.0,0.0,0.0,0.0,0.0,0.0,0.0,0.0,0.0,0.0,0.0,0.0,0.0,1.2428,1.4631,1.6364,1.745,1.8007,1.8041,1.7498,1.6479,1.5171,0.0,0.0,0.0,0.0,0.0,0.0,0.0,0.0,0.0,0.0,0.0,0.0,0.0,0.0,0.0,0.0,0.0,0.0,0.0,0.0,0.0,0.0,0.0,0.0,0.0,0.0,0.0,0.0,0.0,0.0,0.0,0.0,0.0,0.0,0.0,0.0,0.0,0.0,0.0,0.0,0.0,1.8122,1.9248,1.8501,1.7786,0.0,0.0,1.92,1.92,2.0144,0.0,0.0,0.0,0.0,0.0,0.0,0.0,0.0,0.0,0.0,0.0,0.0,0.0,0.0,0.0,0.0,0.0,0.0,0.0,0.0,0.0,0.0,0.0,0.0,0.0,0.0,0.0,0.0,0.0,0.0,0.0,0.0,0.0,0.0,0.0,0.0,0.0,0.0,0.0,0.0,0.0,0.0,0.0,0.0,0.0,0.0,0.0,0.0,0.0,0.0,0.0,0.0,0.0,0.0,0.0,1.218,1.3626,1.5556,1.6912,1.7626,1.7484,1.729,1.7079,1.5759,1.4465,0.0,0.0,0.0,0.0,0.0,0.0,0.0,0.0,0.0,0.0,0.0,0.0,0.0,0.0,0.0,0.0,0.0,0.0,0.0,0.0,0.0,0.0,0.0,0.0,0.0,0.0,0.0,0.0,0.0,0.0,0.0,0.0,0.0,0.0,0.0,0.0,0.0,0.0,0.0,0.0,0.0,0.0,1.9703,1.9696,0.0,0.0,0.0,2.0231,1.9512,0.0,0.0,0.0,0.0,0.0,0.0,0.0,0.0,0.0,0.0,0.0,0.0,0.0,0.0,0.0,0.0,0.0,0.0,0.0,0.0,0.0,0.0,0.0,0.0,0.0,0.0,0.0,0.0,0.0,0.0,0.0,0.0,0.0,0.0,0.0,0.0,0.0,0.0,0.0,0.0,0.0,0.0,0.0,0.0,0.0,0.0,0.0,0.0,0.0,0.0,0.0,0.0,0.0,0.0,0.0,0.0,0.0,1.4443,1.6106,1.7134,1.7519,1.6907,1.6574,1.6571,1.5262,0.0,0.0,0.0,0.0,0.0,0.0,0.0,0.0,0.0,0.0,0.0,0.0,0.0,0.0,0.0,0.0,0.0,0.0,0.0,0.0,0.0,0.0,0.0,0.0,0.0,0.0,0.0,1.1678,0.0,0.0,0.0,0.0,0.0,0.0,0.0,0.0,0.0,0.0,0.0,0.0,0.0,0.0,1.9972,2.037,2.0796,2.1072,0.0,0.0,2.1195,2.0263,2.1552,2.1985,0.0,0.0,0.0,0.0,0.0,0.0,0.0,0.0,0.0,0.0,0.0,0.0,0.0,0.0,0.0,0.0,0.0,0.0,0.0,0.0,0.0,0.0,0.0,0.0,0.0,0.0,0.0,0.0,0.0,0.0,0.0,0.0,0.0,0.0,0.0,0.0,0.0,0.0,0.0,0.0,0.0,0.0,0.0,0.0,0.0,0.0,0.0,0.0,0.0,0.0,0.0,0.0,0.0,0.0,0.0,1.3785,1.5436,1.6285,1.6309,1.603,1.5917,1.6037,1.51,1.4231,0.0,0.0,0.0,0.0,0.0,0.0,0.0,0.0,0.0,0.0,0.0,0.0,0.0,0.0,0.0,0.0,0.0,0.0,0.0,0.0,0.0,0.0,0.0,0.0,0.0,0.0,0.0,0.0,0.0,0.0,0.0,0.0,0.0,0.0,0.0,0.0,0.0,0.0,0.0,0.0,0.0,2.0305,2.1424,2.1405,2.1676,0.0,0.0,2.2109,2.2013,2.3094,2.315,2.0723,0.0,0.0,0.0,0.0,0.0,0.0,0.0,0.0,0.0,0.0,0.0,0.0,0.0,0.0,0.0,0.0,0.0,0.0,0.0,0.0,0.0,0.0,0.0,0.0,0.0,0.0,0.0,0.0,0.0,0.0,0.0,0.0,0.0,0.0,0.0,0.0,0.0,0.0,0.0,0.0,0.0,0.0,0.0,0.0,0.0,0.0,0.0,0.0,0.0,0.0,0.0,0.0,0.0,1.3093,1.3645,1.4949,1.5557,1.5378,1.513,1.5108,1.5311,1.4614,1.3996,0.0,0.0,0.0,0.0,0.0,0.0,0.0,0.0,0.0,0.0,0.0,0.0,0.0,0.0,0.0,0.0,0.0,0.0,0.0,0.0,0.0,0.0,0.0,0.0,0.0,0.0,0.0,0.0,1.7692,1.833,1.7763,0.0,0.0,0.0,0.0,0.0,0.0,0.0,0.0,0.0,0.0,2.1017,2.2426,2.2606,0.0,0.0,2.3138,2.296,2.2297,2.3262,2.3375,2.1293,2.0843,0.0,0.0,0.0,0.0,0.0,0.0,0.0,0.0,0.0,0.0,0.0,0.0,0.0,0.0,0.0,0.0,0.0,0.0,0.0,0.0,0.0,0.0,0.0,0.0,0.0,0.0,0.0,0.0,0.0,0.0,0.0,0.0,0.0,0.0,0.0,0.0,0.0,0.0,0.0,0.0,0.0,0.0,0.0,0.0,0.0,0.0,0.0,0.0,0.0,0.0,0.0,0.0,1.3103,1.3606,1.4524,1.4926,1.4778,1.4571,1.457,1.4766,1.4339,1.4038,0.0,0.0,0.0,0.0,0.0,0.0,0.0,0.0,0.0,0.0,0.0,0.0,0.0,0.0,0.0,0.0,0.0,0.0,0.0,0.0,0.0,0.0,0.0,0.0,0.0,0.0,0.0,0.0,1.8216,1.856,1.7611,0.0,0.0,0.0,0.0,0.0,0.0,0.0,0.0,0.0,0.0,2.1865,2.2951,2.3146,2.3229,2.3327,2.3454,2.3277,2.258,2.3208,2.3277,2.1825,0.0,0.0,0.0,0.0,0.0,0.0,0.0,0.0,0.0,0.0,0.0,0.0,0.0,0.0,0.0,0.0,0.0,0.0,0.0,0.0,0.0,0.0,0.0,0.0,0.0,0.0,0.0,0.0,0.0,0.0,0.6744,0.0,0.0,0.0,0.0,0.0,0.0,0.0,0.0,0.0,0.0,0.0,0.0,0.0,0.0,0.0,0.0,0.0,0.0,0.0,0.0,0.0,0.0,1.2745,1.3586,1.4083,1.4387,1.448,1.4421,1.442,1.449,1.442,1.4467,1.4652,0.0,0.0,0.0,0.0,0.0,0.0,0.0,0.0,0.0,0.0,0.0,0.0,0.0,0.0,0.0,0.0,0.0,0.0,0.0,0.0,0.0,0.0,0.0,0.0,0.0,0.0,1.5978,1.7038,1.7632,0.0,0.0,0.0,0.0,0.0,0.0,0.0,0.0,0.0,0.0,2.1348,2.2787,2.2907,2.2807,2.3014,2.3777,2.3359,2.2967,2.3073,2.3112,2.2887,0.0,0.0,0.0,0.0,0.0,0.0,0.0,0.0,0.0,0.0,0.0,0.0,0.0,0.0,0.0,0.0,0.0,0.0,0.0,0.0,0.0,0.0,0.0,0.0,0.0,0.0,0.0,0.8229,0.8131,0.0,0.0,0.0,0.0,0.0,0.0,0.0,0.0,0.0,0.0,0.0,1.4695,1.4861,0.0,0.0,0.0,0.0,0.0,0.0,0.0,0.0,0.0,0.0,0.0,0.0,1.2453,1.2951,1.3522,1.3777,1.3638,1.3613,1.3776,1.414,1.415,1.4279,1.4558,0.0,0.0,0.0,0.0,0.0,0.0,0.0,0.0,0.0,0.0,0.0,0.0,0.0,0.0,0.0,0.0,0.0,0.0,0.0,0.0,0.0,0.0,0.0,0.0,0.0,1.785,0.0,0.0,0.0,0.0,0.0,0.0,0.0,0.0,0.0,0.0,0.0,2.0103,2.1305,2.1693,2.2205,2.3166,2.3148,2.3367,0.0,0.0,0.0,0.0,0.0,0.0,0.0,0.0,0.0,0.0,0.0,0.0,0.0,0.0,2.0901,1.912,1.9281,1.9745,1.9826,0.0,0.0,0.0,0.0,0.0,0.0,0.0,0.0,0.0,0.0,0.0,0.0,0.0,0.0,0.0,0.0,0.939,0.0,0.0,0.0,0.0,0.0,0.0,0.0,0.0,1.4161,1.5022,1.5307,1.5586,1.5376,0.0,1.504,1.4823,0.0,0.0,0.0,0.0,0.0,0.0,0.0,0.0,1.26,1.3008,1.3381,1.3482,1.3315,1.3248,1.3362,1.3714,1.422,1.4585,1.4804,1.5079,1.4789,0.0,0.0,0.0,0.0,0.0,0.0,0.0,0.0,0.0,0.0,0.0,0.0,0.0,0.0,0.0,0.0,0.0,0.0,0.0,0.0,0.0,0.0,0.0,1.8489,0.0,0.0,0.0,0.0,0.0,0.0,0.0,0.0,0.0,1.9052,2.0023,2.1097,2.227,2.2548,2.2764,2.3043,0.0,0.0,0.0,0.0,0.0,0.0,0.0,2.341,2.3603,2.3494,2.3634,2.4405,2.4337,2.4061,2.3819,0.0,0.0,2.1119,2.1401,2.1987,2.1859,2.2149,2.2418,2.2436,2.2756,2.2937,0.0,0.0,0.0,0.0,0.0,0.0,0.0,0.0,0.9789,1.0028,0.0,1.072,0.0,0.0,0.0,0.0,0.0,1.2848,0.0,0.0,1.6361,1.7122,1.6443,1.6606,1.6582,1.6372,1.5861,1.5693,1.5693,1.4011,0.0,0.0,0.0,0.0,0.0,0.0,1.3151,1.3756,1.3619,1.3513,1.3528,1.3352,1.3244,1.3288,1.4648,1.539,1.5414,1.5792,1.5816,1.5411,1.3973,0.0,0.0,0.0,0.0,0.0,0.0,0.0,0.0,0.0,0.0,0.0,0.0,0.0,0.0,0.0,0.0,0.0,0.0,0.0,0.0,1.7763,0.0,0.0,0.0,0.0,0.0,0.0,0.0,0.0,0.0,0.0,1.923,2.0982,2.2332,2.2346,0.0,0.0,0.0,0.0,2.3729,2.2795,2.2603,2.286,2.3594,2.4144,2.4695,2.5287,0.0,0.0,2.6348,2.5866,2.5521,2.5494,2.5976,2.5564,2.3048,2.3617,2.4282,2.385,2.4296,2.4768,2.4867,2.4914,2.495,0.6825,0.0,0.0,0.0,0.0,0.8747,0.9525,1.0539,1.133,1.1668,1.1669,1.2269,0.0,0.0,0.0,0.0,0.0,0.0,1.4005,1.4138,1.5483,1.6309,1.6691,1.6947,1.6859,1.6468,1.6366,1.6199,1.5955,1.4661,1.4155,1.4347,0.0,0.0,0.0,0.0,1.3315,1.3906,1.3947,1.3929,1.3942,1.3867,1.3928,1.4119,1.5043,1.5544,1.5557,1.5987,1.6017,1.5618,1.4875,0.0,0.0,0.0,0.0,0.0,0.0,0.0,0.0,0.0,0.0,0.0,0.0,0.0,0.0,0.0,0.0,0.0,0.0,0.0,1.9526,1.9971,1.9607,0.0,0.0,0.0,0.0,0.0,0.0,0.0,0.0,0.0,2.2074,2.2574,2.2944,0.0,0.0,2.354,2.3012,2.3608,2.415,2.4259,0.0,0.0,0.0,2.5022,2.5049,2.5677,2.6617,2.7297,2.7297,2.7503,2.7574,2.7241,2.7682,2.758,2.6228,2.6119,2.6314,2.6231,2.647,2.6708,2.6736,2.714,2.7501,0.7378,0.7242,0.7685,0.8457,0.9411,0.9577,1.039,1.1628,1.2175,1.2393,1.2484,1.3277,1.3216,1.2507,1.2389,0.0,0.0,0.0,1.4529,1.5218,1.5625,1.6077,1.6541,1.7054,1.697,1.6453,1.6783,1.6871,1.6675,1.5595,1.5196,1.538,0.0,0.0,1.4129,1.3858,1.3975,1.4454,1.4406,1.4381,1.4381,1.4192,1.4171,1.4364,1.5046,1.5444,1.5454,1.5992,1.6192,1.594,1.551,1.4963,0.0,0.0,0.0,0.0,0.0,0.0,0.0,0.0,0.0,0.0,0.0,1.5041,1.5212,0.0,0.0,0.0,1.9438,2.0401,2.1477,2.1162,0.0,0.0,0.0,0.0,0.0,0.0,0.0,2.0683,2.1917,2.2951,2.3526,2.3741,2.3899,2.4038,2.4392,2.4462,2.3987,0.0,2.5207,2.5344,2.5358,2.5575,2.6158,2.6143,2.628,2.6879,2.7542,2.8046,2.8071,2.8356,2.8499,2.8302,2.8484,2.8516,2.7872,2.7751,2.7714,2.7644,2.8081,2.8407,2.8199,2.8691,2.9113,0.7756,0.7756,0.8244,0.9244,1.048,1.0204,1.1004,1.2473,1.2492,1.2545,1.2731,1.383,1.388,1.3163,1.3374,0.0,1.5215,1.4591,1.5147,1.6691,1.638,1.6216,1.6155,1.6936,1.6965,1.6366,1.7078,1.7438,1.7421,1.6534,1.6189,1.6286,1.4968,1.4402,1.4612,1.4717,1.4965,1.5293,1.5092,1.4965,1.4946,1.4498,1.427,1.4293,1.4877,1.5218,1.5242,1.5875,1.6239,1.6251,1.5956,1.5793,1.5782,0.0,0.0,0.0,0.0,0.0,0.0,0.0,0.0,0.0,0.0,0.0,0.0,0.0,0.0,0.0,2.1441,0.0,2.3439,2.1709,0.0,0.0,0.0,1.9781,2.1276,2.1534,2.2013,2.308,0.0,0.0,2.3996,0.0,2.5077,2.5478,2.6223,2.6311,2.519,2.6014,2.6627,2.6085,2.6076,2.6321,2.6916,2.7364,2.7827,2.8329,2.8587,2.856,2.8546,2.8573,2.8587,2.8576,2.8587,2.8589,2.8587,2.8538,2.852,2.8245,2.9051,2.966,2.9138,2.9407,2.9647,0.7719,0.7762,0.8581,0.962,1.0723,1.0633,1.1337,1.2521,1.3017,1.3167,1.3135,1.4036,1.4482,1.4544,1.4905,1.496,1.4772,1.5061,1.5093,1.496,1.5607,1.6069,1.6339,1.6541,1.6658,1.6696,1.6719,1.6683,1.6593,1.6267,1.6277,1.6572,1.625,1.5875,1.5497,1.5536,1.5804,1.6331,1.6285,1.6254,1.6244,1.5845,1.5635,1.5625,1.5439,1.535,1.535,1.5525,1.5739,1.5974,1.6203,1.63,1.625,1.5227,0.0,0.0,0.0,0.0,0.0,0.0,0.0,0.0,0.0,1.6466,1.6809,0.0,1.9934,0.0,2.2605,2.3779,2.3812,2.3331,0.0,0.0,2.1976,2.2089,2.2487,2.3467,2.4106,2.4092,2.476,2.5285,2.5409,2.5778,2.6168,2.6557,2.624,2.5864,2.5601,2.6416,2.7055,2.6966,2.7438,2.799,2.8082,2.8275,2.8424,2.8573,2.8587,2.8587,2.8587,2.8587,2.8587,2.8587,2.8587,2.8587,2.8587,2.8587,2.8578,2.8522,2.8823,2.9054,2.8903,2.9112,2.9403,0.7816,0.7712,0.8807,0.9889,1.0836,1.0843,1.1567,1.2723,1.2959,1.2892,1.2624,1.3405,1.411,1.4677,1.4822,1.4871,1.4833,1.4861,1.474,1.4572,1.5118,1.5432,1.5582,1.5892,1.6065,1.6103,1.6584,1.6767,1.6713,1.667,1.6803,1.7021,1.6794,1.6639,1.6508,1.6316,1.6373,1.6687,1.6697,1.6697,1.6687,1.6479,1.6197,1.5781,1.5361,1.4951,1.458,1.4402,1.4514,1.4893,1.5305,1.5625,1.5847,1.5216,1.4607,0.0,0.0,0.0,0.0,0.0,0.0,0.0,0.0,0.0,0.0,0.0,2.1485,2.2072,2.3432,2.4134,2.3789,2.3763,2.3669,2.3464,2.3673,2.4012,2.4463,2.5194,2.5571,2.5353,2.5823,2.6173,2.6186,2.6536,2.6786,2.6799,2.6552,2.6435,2.6538,2.7016,2.7327,2.7356,2.7771,2.8115,2.8115,2.8262,2.8373,2.839,2.8506,2.8587,2.8587,2.8587,2.8587,2.8587,2.8587,2.8587,2.8587,2.8587,2.8587,2.8603,2.8665,2.8713,2.8716,2.9001,2.9342,0.7784,0.7553,0.8712,0.984,1.0869,1.0773,1.1598,1.2934,1.264,1.2263,1.1932,1.2609,1.341,1.4226,1.4182,1.4513,1.506,1.4421,1.4367,1.4736,1.4736,1.4665,1.4556,1.5237,1.5429,1.5221,1.6549,1.7149,1.7105,1.736,1.7477,1.7468,1.7009,1.7009,1.7399,1.6983,1.6789,1.6831,1.6814,1.68,1.6785,1.6693,1.6235,1.5425,1.501,1.4414,1.362,1.331,1.3365,1.3756,1.4183,1.4715,1.536,1.491,1.4632,0.0,1.4998,0.0,0.0,0.0,0.0,0.0,0.0,0.0,0.0,2.17,2.2934,2.3645,2.4065,2.422,2.3984,2.396,2.4295,2.5089,2.5199,2.5546,2.6378,2.6487,2.6524,2.6587,2.66,2.6625,2.6851,2.7185,2.7223,2.7133,2.7339,2.7584,2.7735,2.7585,2.7462,2.7657,2.7652,2.7809,2.7979,2.8092,2.8186,2.8272,2.8493,2.8628,2.8652,2.8622,2.8587,2.8587,2.8587,2.8587,2.8587,2.8587,2.8587,2.8587,2.8603,2.8603,2.8644,2.8975,2.9187,0.6671,0.719,0.7503,0.8797,1.0602,1.0068,1.0953,1.2731,1.2586,1.2448,1.244,1.3131,1.3644,1.4023,1.4672,1.5044,1.5154,1.4595,1.4376,1.4474,1.4376,1.4431,1.4687,1.5072,1.5188,1.5137,1.6498,1.6933,1.6507,1.7444,1.7891,1.7874,1.7354,1.7303,1.7598,0.0,0.0,0.0,1.7349,1.7272,1.7253,1.6584,1.5953,1.5415,1.5,0.0,1.4026,1.4028,1.4093,1.4205,1.473,0.0,0.0,0.0,0.0,0.0,0.0,0.0,0.0,0.0,0.0,0.0,2.0423,2.1016,2.1451,2.2644,2.3762,2.463,2.4801,2.5161,2.5883,2.5954,2.6013,2.6198,2.6206,2.6307,2.6491,2.6499,2.6663,2.7085,2.7148,2.7487,2.8217,2.8166,2.8273,2.8881,2.8837,2.8825,2.9252,2.8094,2.7679,2.8754,2.8571,2.853,2.9399,2.8782,2.849,2.883,2.8894,2.8859,2.8859,2.8716,2.8614,2.8641,2.8587,2.8627,2.86,2.8587,2.8614,2.8587,2.8587,2.8587,2.8587,2.8668,2.8736,0.6503,0.0,0.7352,0.8407,0.0,0.9691,1.0443,1.1795,1.1812,1.1759,1.1742,1.2684,1.3281,1.3609,1.4537,1.498,1.5036,1.4597,1.4204,1.3859,1.3818,1.3768,1.3691,1.4173,1.4395,1.437,1.5777,1.6396,1.6323,1.6781,1.7345,1.7981,1.6799,1.6533,1.7129,1.6889,1.7123,1.7835,1.7742,1.7695,1.7676,1.7272,1.6719,1.6069,0.0,0.0,0.0,0.0,0.0,0.0,0.0,0.0,0.0,0.0,0.0,1.7612,1.7624,1.8086,1.9201,1.996,2.0708,2.1493,2.2527,2.3276,2.3659,2.4513,2.5346,2.6043,2.5904,2.595,2.6441,2.6487,2.6617,2.6851,2.6901,2.7002,2.7236,2.7286,2.7381,2.7675,2.7934,2.8304,2.8825,2.922,2.9277,2.9383,2.9609,2.9779,2.9723,2.9018,2.8781,2.953,2.935,2.9134,2.9345,2.9227,2.8833,2.8925,2.9,2.9122,2.9333,2.9281,2.9235,2.9416,2.9482,2.9414,2.9089,2.9051,2.8956,2.8668,2.8587,2.8587,2.8587,2.8587,2.8587,0.6344,0.6705,0.7202,0.7959,0.8864,0.9193,0.9861,1.0794,0.0,0.0,0.0,1.1998,1.2722,1.3217,1.414,1.4663,1.4849,1.4462,1.3932,1.3372,1.3283,1.3066,1.2726,1.337,1.3728,1.3834,1.5112,1.5895,1.6158,1.6077,1.663,1.7516,1.5994,1.5584,1.6375,1.6428,1.6933,1.793,1.7906,1.7867,1.7883,1.7822,1.7396,1.6615,1.6275,1.5723,1.4936,1.467,1.4696,1.5093,1.5546,1.6066,1.6623,1.7091,1.7539,1.796,1.8574,1.9405,2.0539,2.1286,2.2192,2.3236,2.4061,2.4844,2.5484,2.6091,2.6601,2.6981,2.6698,2.6541,2.6625,2.6637,2.6864,2.7386,2.7449,2.762,2.8021,2.8109,2.8097,2.8273,2.8706,2.9107,2.927,3.0086,3.0462,2.9835,3.0374,3.0809,3.0444,3.0226,2.9981,2.9969,2.9813,2.9667,2.9617,2.9308,2.9298,2.9138,2.9205,2.9356,2.9658,2.9786,2.9942,3.0107,3.0336,3.0089,2.9635,2.9461,2.9298,2.8709,2.8587,2.8587,2.8587,2.8587,2.8587,0.5235,0.5788,0.5757,0.6548,0.7828,0.8115,0.9024,1.0328,1.1043,1.1347,1.134,1.1687,1.2279,1.3068,1.3659,1.4206,1.4661,1.4028,1.366,0.0,1.2969,1.2837,1.3068,1.3719,1.4179,1.4516,1.5474,1.5848,1.5682,1.6035,1.6451,1.6615,1.5557,1.5254,1.5825,1.649,1.721,1.7974,1.7477,1.7319,1.7487,1.7093,1.6664,1.6207,1.6153,1.5845,1.5352,1.5384,1.5451,1.552,1.5695,1.6133,1.6812,1.7318,1.7982,1.8919,1.9765,2.0469,2.0987,2.1496,2.2212,2.3188,2.3753,2.4384,2.5264,2.5884,2.6121,2.5921,2.6275,2.67,2.7097,2.7168,2.7412,2.7908,2.7996,2.8034,2.816,2.8172,2.8329,2.8756,2.9327,2.9854,3.0236,3.0871,3.1386,3.1604,3.1554,3.2026,3.2139,3.1796,3.1035,3.0557,3.008,3.0382,3.0997,3.0087,2.9599,3.0202,2.9776,2.9494,2.961,2.9756,2.9914,2.9916,3.0267,3.0187,2.9702,2.9502,2.9322,2.8815,2.8684,2.8641,2.863,2.8587,2.86,0.4866,0.5272,0.5438,0.612,0.715,0.8456,0.9462,1.0293,1.1266,1.1559,1.1491,1.2196,1.2814,1.3399,1.4269,1.4847,1.5095,1.4288,1.3958,1.3974,1.3236,1.3132,1.3656,1.4147,1.4447,1.4641,1.5343,1.5612,1.5489,1.5334,1.5615,1.6323,1.5397,1.4974,1.5143,1.5789,1.656,1.7392,1.7526,1.7648,1.7715,1.7513,1.7308,1.7145,1.7135,1.7031,1.682,1.6874,1.689,1.6906,1.7179,1.7583,1.8169,1.8613,1.9277,2.0216,2.066,2.1171,2.1832,2.2055,2.2467,2.3129,2.3379,2.3723,2.4369,2.5621,2.6123,2.5658,2.6632,2.7306,2.7236,2.7509,2.7946,2.8499,2.853,2.8668,2.8963,2.9013,2.9126,2.9402,2.9892,3.0312,3.055,3.1303,3.175,3.1813,3.1775,3.2022,3.2562,3.2202,3.1742,3.1516,3.1524,3.157,3.175,3.1009,3.0437,3.0613,3.0078,2.9796,2.9909,3.0073,3.0281,3.0648,3.077,3.0682,3.042,3.0273,2.9865,2.9265,2.9092,2.8997,2.8739,2.8587,2.8709,0.4683,0.4832,0.5389,0.607,0.6965,0.8818,0.9819,1.0243,1.1275,1.1677,1.1732,1.2537,1.3157,1.3667,1.4565,1.5026,1.5011,1.4471,1.4195,1.4192,1.3618,1.3623,1.4218,1.4647,1.4803,1.4784,1.5248,1.5405,1.5252,1.4669,1.4908,1.5817,1.5348,1.4965,1.4858,1.5401,1.6105,1.6951,1.764,1.8008,1.8008,1.8008,1.8008,1.8008,1.8079,1.8127,1.8137,1.8137,1.8176,1.8283,1.8498,1.882,1.9286,1.9678,2.0254,2.0966,2.1142,2.1547,2.2278,2.2438,2.2622,2.2931,2.3043,2.3238,2.3657,2.5134,2.5981,2.5758,2.7007,2.7834,2.7699,2.7977,2.8524,2.9019,2.9107,2.9277,2.9691,2.9779,2.9779,2.9842,3.0349,3.0758,3.0826,3.1662,3.224,3.1938,3.1796,3.1964,3.2315,3.2403,3.2357,3.2303,3.2516,3.2374,3.165,3.1148,3.0859,3.0575,3.0163,2.9978,3.0139,3.0286,3.057,3.1037,3.1108,3.0906,3.0998,3.0842,3.0284,2.9524,2.9334,2.9282,2.8725,2.9089,2.9187,0.4491,0.4364,0.5198,0.6302,0.7465,0.8432,0.9266,0.9993,1.0834,1.1582,1.2166,1.2094,1.2597,1.3441,1.369,1.387,1.4062,1.4073,1.4044,1.3937,1.3959,1.421,1.4631,1.5261,1.5446,1.5197,1.5506,1.5317,1.4747,1.4607,1.4732,1.5037,1.5293,1.5488,1.563,1.5991,1.6524,1.7166,1.7708,1.8008,1.8008,1.8008,1.8008,1.8008,1.8354,1.8549,1.8568,1.8539,1.8742,1.912,1.883,1.884,1.9315,1.9707,2.0137,2.0674,2.1015,2.1426,2.1927,2.2309,2.2557,2.2587,2.2912,2.312,2.3217,2.427,2.5171,2.5727,2.6979,2.7978,2.8644,2.8756,2.9019,2.9502,2.9654,2.9741,2.9767,2.9779,2.9779,2.9792,3.0608,3.1135,3.0839,3.1913,3.2864,3.2788,3.2738,3.2763,3.2889,3.2927,3.2776,3.229,3.1913,3.1821,3.1775,3.0834,3.0419,3.0475,3.0156,2.9913,2.994,3.0158,3.047,3.064,3.0766,3.0727,3.0564,3.0393,3.033,2.9621,2.9386,2.9322,2.8983,2.9702,3.0313,0.4413,0.4099,0.5151,0.634,0.7518,0.836,0.915,0.9946,1.075,1.1533,1.2193,1.1934,1.2552,1.3833,1.3897,1.4219,1.4767,1.4442,1.4334,1.4446,1.4426,1.4694,1.5268,1.5753,1.5828,1.5526,1.5656,1.5316,1.4708,1.4587,1.4633,1.4776,1.5248,1.5514,1.5604,1.6053,1.6428,1.6673,1.746,1.7881,1.7916,1.8195,1.8488,1.875,1.8936,1.9132,1.9337,1.9376,1.959,2.0009,1.9882,1.998,2.0401,2.0586,2.0996,2.166,2.2098,2.2399,2.2596,2.2771,2.2869,2.2838,2.3025,2.3101,2.3144,2.4038,2.5029,2.6049,2.6888,2.7699,2.8368,2.8677,2.904,2.9484,2.9702,2.9779,2.9779,2.9779,2.9779,2.9842,3.0457,3.0884,3.0846,3.175,3.2641,3.2989,3.3102,3.3102,3.3102,3.3102,3.3002,3.2679,3.1976,3.1545,3.1625,3.0964,3.0462,3.0425,3.0156,2.9804,2.9818,2.9908,3.0094,3.0317,3.0362,3.052,3.0688,3.0687,3.0626,3.0007,2.951,2.939,2.9159,2.9716,3.011,0.4369,0.4129,0.5112,0.634,0.7542,0.8112,0.896,0.9914,1.052,1.1347,1.2231,1.1984,1.2519,1.3579,1.3619,1.3996,1.453,1.4358,1.4318,1.4517,1.4657,1.5062,1.5574,1.6019,1.592,1.5491,1.5578,1.5316,1.4694,1.4802,1.4856,1.4909,1.5284,1.5568,1.5736,1.6114,1.643,1.6765,1.7446,1.7947,1.8342,1.8597,1.8959,1.9415,1.9599,1.9834,2.0235,2.0264,2.0478,2.0918,2.084,2.0947,2.1377,2.1396,2.1727,2.242,2.2888,2.3101,2.3101,2.3101,2.3101,2.3101,2.3101,2.3101,2.32,2.3734,2.4637,2.5734,2.635,2.6924,2.8063,2.8653,2.8996,2.9094,2.9443,2.9779,2.9779,2.9779,2.9779,2.9829,3.0306,3.0738,3.111,3.1913,3.2679,3.3027,3.3102,3.3102,3.3102,3.3102,3.3052,3.2851,3.1997,3.157,3.1512,3.0821,3.0557,3.0462,3.0156,2.9792,2.9779,2.9811,2.983,3.0056,2.9908,2.994,3.0329,3.0575,3.1019,3.081,3.0377,2.9906,2.9784,3.0001,3.0517,0.4324,0.4107,0.5115,0.6321,0.7499,0.7576,0.8466,0.9833,0.997,1.0832,1.2132,1.2249,1.2415,1.2686,1.2345,1.2271,1.2619,1.3422,1.3708,1.3675,1.4642,1.5173,1.5271,1.5872,1.567,1.4909,1.5391,1.53,1.4665,1.5132,1.5443,1.546,1.5521,1.5788,1.6237,1.636,1.6801,1.7575,1.7785,1.8392,1.9531,1.926,1.9374,1.9972,2.0312,2.0713,2.1083,2.1142,2.1366,2.1827,2.1454,2.1415,2.1816,2.1875,2.209,2.2498,2.2888,2.3101,2.3101,2.3101,2.3101,2.3101,2.3101,2.3101,2.3101,2.3232,2.3746,2.4552,2.5158,2.6091,2.7735,2.8656,2.8885,2.8386,2.9177,2.9702,2.9779,2.9779,2.9779,2.988,3.0331,3.106,3.1976,3.2675,3.2964,3.309,3.3102,3.3102,3.3102,3.3102,3.2901,3.2449,3.1901,3.1574,3.188,3.0909,3.0269,3.0319,3.0186,2.9792,2.9779,2.9779,2.983,2.983,2.9811,2.9869,3.0004,3.0386,3.0964,3.1092,3.1132,3.0843,3.0436,3.1372,3.1712,0.4806,0.5005,0.5429,0.6337,0.7461,0.7499,0.8122,0.9145,0.9693,1.0501,1.144,1.1806,1.2051,1.2271,1.1671,1.1807,1.2481,1.2737,1.3052,1.3515,1.4354,1.4915,1.525,1.588,1.5793,1.5133,1.5255,1.5099,1.4678,1.483,1.5256,1.5798,1.5833,1.6207,1.6916,1.706,1.7375,1.7995,1.8618,1.9409,2.0183,2.0647,2.1088,2.1513,2.1162,2.1308,2.201,2.203,2.2225,2.2645,2.2518,2.2508,2.2635,2.2674,2.2732,2.2888,2.3013,2.3101,2.3101,2.3101,2.3101,2.3101,2.3101,2.3101,2.3101,2.3135,2.3551,2.4414,2.468,2.5442,2.6646,2.7887,2.8442,2.8159,2.8878,2.9631,2.9753,2.9779,2.9779,2.9917,3.0545,3.1537,3.2403,3.2964,3.309,3.3102,3.3102,3.3102,3.3102,3.3102,3.2989,3.2688,3.2035,3.1574,3.2127,3.0834,2.9942,3.0199,3.0199,2.9905,2.9779,2.9779,2.9811,2.9811,2.9779,2.9972,3.0164,3.0759,3.1261,3.1335,3.1382,3.1355,3.1029,3.163,3.1834,0.489,0.5401,0.5562,0.6232,0.7215,0.7511,0.805,0.886,0.9729,1.0524,1.1206,1.1784,1.2023,1.1891,1.1346,1.1409,1.2032,1.2085,1.2328,1.2797,1.3728,1.4351,1.4735,1.5487,1.5589,1.5078,1.5006,1.4909,1.485,1.4963,1.5367,1.5916,1.6277,1.6874,1.761,1.7907,1.8332,1.9065,1.9643,2.0199,2.0848,2.1184,2.1777,2.2272,2.1796,2.1835,2.2654,2.2693,2.282,2.3052,2.3101,2.3101,2.3091,2.3101,2.3101,2.3101,2.3091,2.3101,2.3101,2.3101,2.3101,2.3101,2.3101,2.3101,2.3101,2.3101,2.3517,2.407,2.4478,2.4797,2.5347,2.6771,2.7822,2.7931,2.8759,2.9502,2.9772,2.9779,2.988,3.0156,3.0821,3.175,3.2591,3.2952,3.3077,3.3102,3.3102,3.3102,3.3102,3.3102,3.2989,3.2792,3.2198,3.1788,3.1788,3.0834,3.0181,3.0349,3.0149,2.9892,2.9779,2.9779,2.9779,2.9779,2.9914,3.0113,3.0539,3.1147,3.1416,3.1523,3.1671,3.1739,3.1617,3.1617,3.1834,0.4594,0.515,0.549,0.6071,0.683,0.7474,0.8236,0.8991,0.9991,1.0692,1.1291,1.228,1.2316,1.1858,1.1533,1.1185,1.1224,1.1596,1.1621,1.1534,1.2908,1.3616,1.3752,1.4899,1.5213,1.4805,1.4676,1.4861,1.521,1.5632,1.5897,1.6008,1.6832,1.7506,1.8092,1.8694,1.9684,2.0597,2.0585,2.0915,2.1654,2.1081,2.1253,2.2319,2.209,2.2246,2.3025,2.3042,2.3074,2.3091,2.3101,2.3101,2.3101,2.3101,2.3101,2.3101,2.3101,2.3101,2.3101,2.3101,2.3101,2.3101,2.3101,2.3101,2.3101,2.3101,2.3157,2.3365,2.3983,2.4284,2.3962,2.5736,2.7336,2.781,2.8648,2.9463,2.9721,2.9811,3.0012,3.0495,3.106,3.1587,3.2164,3.2742,3.3077,3.3102,3.3102,3.3102,3.3102,3.3102,3.2851,3.2478,3.2177,3.1989,3.1486,3.0972,3.0721,3.0475,3.0093,2.9779,2.9779,2.9779,2.9779,2.9798,3.0126,3.0343,3.0742,3.131,3.1735,3.1879,3.201,3.2051,3.1997,3.1942,3.2024,0.5267,0.5327,0.5898,0.6357,0.6762,0.7501,0.7955,0.8273,0.9121,0.9995,1.088,1.1761,1.2329,1.2648,1.2577,1.2192,1.1637,1.1618,1.1536,1.1667,1.2921,1.3666,1.4073,1.5223,1.5697,1.5404,1.5356,1.5422,1.5577,1.5957,1.6314,1.6713,1.6865,1.7516,1.849,1.9025,1.9826,2.0893,2.1558,2.2146,2.2623,2.2115,2.2057,2.2409,2.2383,2.2471,2.2674,2.2957,2.3091,2.3101,2.3101,2.3101,2.3101,2.3101,2.3101,2.3101,2.3101,2.3101,2.3101,2.3101,2.311,2.3101,2.3101,2.3101,2.3101,2.3101,2.3101,2.3178,2.3928,2.4327,2.4424,2.561,2.6743,2.6926,2.8251,2.9346,2.9714,2.9779,3.0036,3.0545,3.1072,3.1599,3.2152,3.2751,3.309,3.3102,3.3102,3.3102,3.3102,3.3102,3.3077,3.2817,3.2503,3.2039,3.1486,3.0997,3.067,3.0369,2.998,2.9779,2.9779,2.9792,2.9792,2.9972,3.0267,3.0628,3.1043,3.1471,3.1913,3.2096,3.2128,3.2146,3.2187,3.2187,3.2187,0.5518,0.5239,0.6029,0.6427,0.6637,0.7542,0.7975,0.8131,0.8939,0.9671,1.0336,1.1465,1.2226,1.2664,1.2869,1.2728,1.2303,1.2023,1.1792,1.1694,1.2376,1.3146,1.3839,1.5296,1.5931,1.5741,1.5685,1.5772,1.59,1.6106,1.6468,1.6874,1.7025,1.7686,1.886,1.9455,2.0202,2.1224,2.1919,2.2412,2.2508,2.2235,2.2166,2.2432,2.2363,2.243,2.2684,2.2964,2.3101,2.3101,2.3101,2.3101,2.3101,2.3101,2.3101,2.3101,2.3101,2.3101,2.311,2.3279,2.3269,2.3159,2.3269,2.3269,2.3171,2.3101,2.3101,2.3222,2.3604,2.4058,2.4337,2.5285,2.6133,2.673,2.8003,2.9104,2.9624,2.9779,3.0168,3.0733,3.1231,3.1738,3.2403,3.2801,3.3102,3.3102,3.3102,3.3102,3.3102,3.3102,3.309,3.3052,3.2851,3.2261,3.1545,3.1035,3.062,3.0231,2.9829,2.9779,2.9779,2.9811,2.9811,3.0171,3.0495,3.0879,3.1291,3.1748,3.2169,3.2187,3.2187,3.2187,3.2187,3.2187,3.2187,0.5477,0.5002,0.6002,0.6376,0.6455,0.7679,0.8247,0.8441,0.9254,0.9622,0.9963,1.1369,1.2113,1.2063,1.2644,1.2941,1.2898,1.2579,1.2202,1.1869,1.1904,1.236,1.3855,1.5145,1.5728,1.5833,1.5828,1.5971,1.6222,1.6333,1.6392,1.6777,1.7315,1.8104,1.893,1.9809,2.0559,2.142,2.178,2.1908,2.1953,2.1503,2.1591,2.2293,2.2051,2.2148,2.2654,2.2908,2.3064,2.3091,2.3101,2.3101,2.3101,2.3101,2.3101,2.3101,2.3101,2.3101,2.3179,2.3484,2.3545,2.3191,2.3543,2.3626,2.3288,2.3254,2.3288,2.3331,2.3452,2.3582,2.4046,2.4914,2.5924,2.7008,2.8155,2.9045,2.9643,2.9779,3.0206,3.0984,3.1406,3.1783,3.2729,3.2989,3.309,3.3102,3.3102,3.3102,3.3102,3.309,3.3065,3.2977,3.2839,3.2386,3.1633,3.1319,3.0871,3.0369,2.9942,2.9824,2.9856,2.9888,2.9953,3.0324,3.0748,3.1161,3.1514,3.1913,3.215,3.2187,3.2187,3.2187,3.2187,3.2187,3.2187,0.6152,0.5389,0.6449,0.6721,0.6601,0.7777,0.8292,0.8317,0.8597,0.9172,0.9897,1.1022,1.186,1.2493,1.3246,1.3567,1.3178,1.2929,1.271,1.2403,1.1857,1.3133,1.4829,1.5383,1.5835,1.632,1.6361,1.6488,1.6591,1.6794,1.6865,1.6726,1.7168,1.7615,1.8172,1.8932,1.9743,2.0686,2.1299,2.1648,2.1765,2.1455,2.1288,2.1474,2.1464,2.1532,2.1775,2.2332,2.281,2.3071,2.3101,2.3101,2.3101,2.3101,2.3101,2.3101,2.3101,2.3101,2.3201,2.3564,2.3574,2.3242,2.3863,2.4092,2.3674,2.3624,2.3787,2.4069,2.4413,2.4487,2.4551,2.5432,2.6526,2.7536,2.8681,2.9506,2.9714,2.9804,3.008,3.0708,3.116,3.1738,3.2378,3.2876,3.309,3.3102,3.3102,3.3102,3.3102,3.309,3.3065,3.2767,3.2554,3.2202,3.1834,3.1545,3.1143,3.0583,3.0188,2.9875,2.9978,3.0088,3.019,3.0425,3.0992,3.1426,3.1643,3.1932,3.2041,3.2187,3.2187,3.2187,3.2187,3.2187,3.2187,0.6545,0.5769,0.6498,0.6737,0.6728,0.7664,0.8208,0.8406,0.8449,0.8741,0.948,1.0311,1.1025,1.1601,1.2485,1.2769,1.2553,1.2779,1.2692,1.2411,1.222,1.3289,1.4838,1.5373,1.6051,1.6607,1.6697,1.6681,1.6726,1.6932,1.6884,1.6781,1.6945,1.7252,1.7779,1.8441,1.92,2.0021,2.0823,2.1356,2.1318,2.1259,2.1249,2.122,2.121,2.1307,2.1746,2.241,2.2879,2.3074,2.3101,2.3101,2.3101,2.3101,2.3101,2.3101,2.3101,2.3101,2.3218,2.3659,2.383,2.3651,2.4229,2.4317,2.4002,2.3939,2.423,2.4166,2.4647,2.4829,2.5073,2.6133,2.7162,2.7854,2.9177,2.9979,2.9842,2.9779,3.0168,3.0733,3.1223,3.1733,3.2428,3.2901,3.3052,3.3102,3.3102,3.3102,3.3102,3.309,3.3014,3.2729,3.2638,3.2458,3.2181,3.1879,3.1342,3.08,3.0636,3.0257,3.0337,3.0458,3.0603,3.0855,3.131,3.1648,3.1845,3.2005,3.2096,3.2187,3.2187,3.2187,3.2187,3.2187,3.2187,0.6732,0.617,0.633,0.6612,0.702,0.761,0.8251,0.8626,0.8785,0.8727,0.8911,0.9602,1.0159,0.9946,1.1241,1.1386,1.1435,1.2429,1.2617,1.2647,1.2805,1.3574,1.4399,1.5407,1.6103,1.6614,1.6719,1.6729,1.6721,1.6741,1.6713,1.6705,1.6741,1.7012,1.7469,1.8154,1.8818,1.9381,2.0271,2.0571,2.0474,2.062,2.0765,2.0644,2.095,2.1497,2.2202,2.276,2.2991,2.2982,2.3047,2.3091,2.3101,2.3101,2.3101,2.3101,2.3101,2.312,2.3301,2.3922,2.4273,2.4079,2.469,2.4816,2.4315,2.4391,2.455,2.4545,2.4452,2.4955,2.554,2.6845,2.7577,2.8005,2.9357,3.0022,3.0011,2.9917,3.0331,3.1243,3.1432,3.2001,3.2612,3.3065,3.3102,3.3102,3.3102,3.3102,3.3102,3.3102,3.2977,3.2776,3.2772,3.2865,3.2563,3.2227,3.1617,3.1059,3.1081,3.0944,3.0996,3.1083,3.1147,3.1368,3.1638,3.1863,3.2059,3.2169,3.2187,3.2187,3.2187,3.2187,3.2187,3.2187,3.2187,0.685,0.6494,0.643,0.6914,0.7728,0.8189,0.864,0.9139,0.9524,0.9262,0.9021,0.9881,1.0159,0.9924,1.0722,1.13,1.1327,1.2345,1.3247,1.3875,1.4001,1.43,1.471,1.5267,1.5817,1.6446,1.7004,1.6979,1.6768,1.6689,1.6689,1.6689,1.6689,1.6771,1.6979,1.7474,1.7751,1.8244,1.9169,1.9586,1.9442,1.9817,1.9909,1.9587,2.018,2.1218,2.224,2.2566,2.2534,2.2513,2.2784,2.3025,2.3025,2.3069,2.3101,2.3101,2.3101,2.3249,2.3661,2.4093,2.4451,2.446,2.5073,2.5426,2.5008,2.4956,2.536,2.569,2.5797,2.5775,2.6205,2.7046,2.7612,2.7983,2.8735,2.9688,3.0288,3.0758,3.1047,3.1399,3.1775,3.2139,3.2416,3.2927,3.304,3.3077,3.3102,3.3102,3.3102,3.3102,3.2977,3.2813,3.2983,3.3051,3.2714,3.2382,3.1913,3.1581,3.1637,3.1597,3.164,3.2112,3.2332,3.2142,3.1863,3.2082,3.2296,3.2205,3.2205,3.2205,3.2277,3.2314,3.235,3.2296,3.2314,0.7405,0.7133,0.6781,0.7038,0.7664,0.8102,0.8558,0.9079,0.9726,0.9733,0.941,0.9864,0.9837,0.9624,0.9912,1.0032,1.0536,1.1859,1.3047,1.3795,1.4384,1.4861,1.5053,1.5192,1.5589,1.6365,1.6454,1.6524,1.6653,1.6689,1.6689,1.6689,1.6689,1.6689,1.6792,1.7177,1.7581,1.8021,1.9008,1.9421,1.8945,1.9666,1.9831,1.9503,2.0204,2.1264,2.1888,2.2219,2.2379,2.2519,2.2599,2.2643,2.2731,2.2928,2.3091,2.3101,2.3101,2.3322,2.3757,2.4209,2.4601,2.4814,2.5471,2.5443,2.5402,2.5369,2.5711,2.6131,2.626,2.6379,2.6627,2.7203,2.7595,2.7996,2.8859,2.9918,3.0728,3.1035,3.1286,3.1625,3.2039,3.234,3.2629,3.2901,3.3027,3.3102,3.3102,3.3102,3.3102,3.309,3.3014,3.296,3.3186,3.3156,3.2823,3.25,3.2185,3.2125,3.2345,3.2287,3.2253,3.2957,3.371,3.3125,3.2431,3.2368,3.2516,3.2386,3.2462,3.2842,3.2935,3.27,3.2588,3.2628,3.2664,0.8046,0.7838,0.7164,0.71,0.7456,0.7805,0.8284,0.8919,0.9655,0.9972,0.9977,0.9607,0.9689,0.9371,0.9021,0.8892,0.9619,1.0807,1.2284,1.3745,1.4333,1.4924,1.5239,1.5286,1.5436,1.6224,1.607,1.6124,1.6355,1.6628,1.6689,1.6689,1.6689,1.6689,1.6853,1.72,1.7499,1.7782,1.8898,1.932,1.8795,1.9618,1.9856,1.9869,2.0261,2.0997,2.1373,2.1704,2.2063,2.2555,2.217,2.1993,2.2126,2.2665,2.3101,2.3123,2.32,2.3517,2.3973,2.4387,2.4814,2.5253,2.5605,2.5669,2.5519,2.5666,2.5989,2.6368,2.6671,2.7009,2.6911,2.7551,2.7927,2.8325,2.9507,3.0605,3.1239,3.109,3.1441,3.193,3.2328,3.2604,3.2742,3.2927,3.3027,3.3102,3.3102,3.3102,3.3102,3.3133,3.3091,3.3288,3.3564,3.3725,3.3457,3.2815,3.2464,3.273,3.2982,3.3166,3.311,3.37,3.4214,3.3553,3.3047,3.2981,3.2804,3.2642,3.2913,3.3465,3.3482,3.3132,3.3023,3.3005,3.3005,0.8308,0.8146,0.7269,0.7342,0.795,0.7729,0.8256,0.9268,0.9822,1.0053,1.0079,1.0255,1.012,0.9851,0.9393,0.958,1.0086,1.0874,1.2045,1.3608,1.4175,1.4615,1.5467,1.5221,1.5327,1.5674,1.5756,1.5836,1.5946,1.6291,1.671,1.671,1.6689,1.6689,1.671,1.6849,1.7113,1.7403,1.8249,1.8388,1.8254,1.868,1.9311,1.9389,1.9845,2.0324,2.09,2.1092,2.0966,2.0551,2.0921,2.1123,2.1503,2.2422,2.3025,2.3222,2.3462,2.3789,2.4346,2.48,2.5239,2.5626,2.5808,2.5891,2.5824,2.5899,2.6312,2.7053,2.7717,2.8201,2.7828,2.8188,2.8809,2.9242,2.9792,3.0821,3.168,3.1976,3.1926,3.2315,3.2604,3.2826,3.2876,3.2939,3.304,3.3102,3.3102,3.3102,3.3102,3.321,3.3279,3.3607,3.4021,3.4168,3.4199,3.3418,3.2916,3.3314,3.3713,3.4305,3.4364,3.4597,3.456,3.4292,3.3835,3.3555,3.3332,3.3095,3.3129,3.3548,3.3534,3.352,3.3468,3.3416,3.3273,0.855,0.8413,0.794,0.7849,0.7988,0.8028,0.8429,0.9167,0.9813,1.0397,1.0698,1.0707,1.0581,1.0367,0.9918,0.9864,1.0081,1.0888,1.1934,1.3224,1.3844,1.4662,1.5619,1.5203,1.4942,1.5069,1.5394,1.5822,1.5984,1.6599,1.6882,1.6874,1.6771,1.6689,1.6689,1.6718,1.6813,1.7138,1.7577,1.7726,1.7374,1.7908,1.8488,1.9015,1.9462,1.9937,2.0243,2.0416,2.0492,2.0515,2.0461,2.0673,2.1235,2.2104,2.3103,2.3418,2.3711,2.4139,2.4712,2.5136,2.5381,2.5786,2.5878,2.6017,2.618,2.6355,2.6682,2.7533,2.8211,2.8583,2.8035,2.842,2.8765,2.9359,2.9993,3.0919,3.1875,3.2402,3.2566,3.2616,3.2839,3.2952,3.2889,3.2964,3.3065,3.3102,3.3102,3.3102,3.3102,3.3283,3.3441,3.3725,3.4084,3.4168,3.4314,3.3929,3.3606,3.399,3.446,3.5045,3.5497,3.5687,3.5732,3.5592,3.506,3.4403,3.42,3.4116,3.3889,3.3684,3.3965,3.4138,3.3985,3.3834,3.371,0.88,0.8692,0.8627,0.8349,0.8059,0.8253,0.8671,0.9188,0.9811,1.0666,1.1524,1.1185,1.0992,1.0885,1.047,1.0029,0.9708,1.081,1.1689,1.2702,1.3456,1.4526,1.5373,1.5264,1.4913,1.4938,1.5315,1.5781,1.6078,1.6908,1.722,1.7176,1.6963,1.686,1.6836,1.6812,1.6787,1.6978,1.7265,1.731,1.7293,1.766,1.8216,1.8725,1.9386,1.9635,1.9675,1.9675,1.9925,2.0062,2.0039,2.0008,2.0831,2.1917,2.2918,2.3592,2.3917,2.4498,2.4956,2.5348,2.557,2.5867,2.5896,2.6114,2.6366,2.6595,2.7075,2.7882,2.8474,2.866,2.832,2.8359,2.8891,2.9625,3.0342,3.1014,3.2091,3.2717,3.2939,3.3014,3.3102,3.3065,3.2989,3.2989,3.309,3.3102,3.3102,3.3102,3.3167,3.3462,3.3662,3.3852,3.405,3.4071,3.4209,3.4335,3.4323,3.4794,3.5296,3.5855,3.6331,3.669,3.6755,3.6802,3.6057,3.5461,3.5299,3.4965,3.4493,3.4323,3.4664,3.4675,3.4375,3.4276,3.4242,0.9056,0.9024,0.8715,0.857,0.846,0.8189,0.8782,0.977,0.9947,1.0654,1.1712,1.1781,1.1599,1.1237,1.094,1.0387,1.0108,1.0233,1.1196,1.2366,1.2916,1.401,1.554,1.5734,1.5371,1.5245,1.5616,1.5554,1.584,1.703,1.7614,1.7421,1.7482,1.7597,1.7085,1.7056,1.7112,1.7235,1.7333,1.7605,1.8015,1.8376,1.8622,1.8788,1.8912,1.9027,1.9065,1.9073,1.9165,1.9142,1.9073,1.9317,2.0076,2.1181,2.2328,2.34,2.4317,2.5094,2.5285,2.5528,2.5749,2.5874,2.5895,2.5939,2.6311,2.6889,2.7457,2.7914,2.8473,2.8749,2.8743,2.9168,2.9863,3.0467,3.1017,3.1828,3.275,3.2851,3.3065,3.3102,3.3102,3.3102,3.3065,3.3077,3.3102,3.3102,3.3124,3.3124,3.3326,3.3717,3.4021,3.4251,3.4397,3.4439,3.4418,3.4501,3.4849,3.5392,3.5952,3.6492,3.6827,3.7253,3.8011,3.7867,3.7124,3.6497,3.6199,3.5722,3.5046,3.4993,3.5333,3.5093,3.4643,3.466,3.4771,0.8757,0.8656,0.8823,0.8713,0.8434,0.8423,0.8865,0.9548,0.9904,1.0622,1.1518,1.1804,1.1663,1.1337,1.1161,1.0789,1.0343,1.0209,1.0739,1.1895,1.2474,1.3458,1.474,1.5473,1.5655,1.5586,1.5836,1.5951,1.606,1.6405,1.7088,1.7551,1.7445,1.738,1.7344,1.7386,1.735,1.7371,1.749,1.7824,1.8208,1.8462,1.8614,1.8796,1.8804,1.8804,1.8804,1.8804,1.8804,1.8827,1.892,1.9142,1.9903,2.1127,2.2582,2.2999,2.4669,2.5506,2.5633,2.577,2.5874,2.5895,2.595,2.6147,2.6649,2.7239,2.7883,2.8407,2.8649,2.8792,2.8803,2.9071,2.9852,3.0588,3.1258,3.212,3.2776,3.2995,3.3102,3.3102,3.3102,3.3102,3.3102,3.3102,3.3102,3.3102,3.3188,3.3261,3.3654,3.4243,3.4535,3.4763,3.4867,3.4928,3.4887,3.4908,3.5141,3.5641,3.6206,3.6716,3.712,3.7658,3.8408,3.883,3.8373,3.778,3.7215,3.6754,3.6296,3.6115,3.5982,3.5751,3.5507,3.5235,3.5218,0.848,0.8341,0.8824,0.8839,0.8608,0.8835,0.9175,0.956,1.0116,1.0819,1.1472,1.1748,1.1707,1.1538,1.1375,1.1022,1.0675,1.0459,1.0762,1.14,1.2187,1.3122,1.4189,1.5031,1.5511,1.5414,1.5654,1.5833,1.5899,1.6072,1.6542,1.745,1.7579,1.7413,1.7555,1.7751,1.7805,1.764,1.7915,1.8196,1.8458,1.8564,1.8719,1.884,1.892,1.8874,1.8804,1.8804,1.8804,1.885,1.8943,1.9096,1.9546,2.1221,2.2243,2.2902,2.4381,2.5401,2.5348,2.5411,2.5812,2.5895,2.5983,2.6256,2.7108,2.7675,2.8156,2.8672,2.8771,2.8803,2.8803,2.8827,2.96,3.0362,3.0991,3.1889,3.2689,3.2939,3.3102,3.3102,3.3102,3.3102,3.3102,3.3102,3.3102,3.3102,3.3197,3.3398,3.3907,3.4564,3.4681,3.4825,3.5031,3.5031,3.4928,3.5052,3.5365,3.5971,3.6533,3.7197,3.7787,3.8202,3.876,3.9046,3.9123,3.8909,3.8257,3.7931,3.7552,3.7065,3.6671,3.6694,3.6501,3.6148,3.5934,0.8484,0.8321,0.8686,0.8996,0.9283,0.9336,0.9603,0.9963,1.0754,1.1284,1.1794,1.1982,1.2198,1.2075,1.1624,1.1221,1.0877,1.0858,1.0955,1.1423,1.2248,1.2974,1.3806,1.4536,1.5236,1.532,1.5452,1.5555,1.5674,1.5663,1.616,1.686,1.7572,1.7754,1.79,1.8116,1.8316,1.8276,1.8491,1.8718,1.8926,1.9027,1.9108,1.9109,1.9142,1.9073,1.8827,1.8804,1.885,1.885,1.8966,1.9104,1.966,2.1266,2.2044,2.2385,2.3984,2.4669,2.4306,2.5094,2.5812,2.5895,2.5983,2.6299,2.7173,2.7315,2.784,2.8639,2.8792,2.8803,2.8803,2.8943,2.9486,3.0385,3.108,3.1779,3.2525,3.2961,3.3102,3.3102,3.3102,3.3102,3.3102,3.3102,3.3102,3.3102,3.3725,3.3945,3.4147,3.4626,3.4605,3.4729,3.5018,3.4997,3.4729,3.5107,3.6037,3.6618,3.7159,3.7962,3.8756,3.9083,3.9104,3.9136,3.9211,3.9265,3.9152,3.8332,3.7704,3.7477,3.7313,3.7285,3.718,3.6849,3.6849,0.8549,0.8497,0.8613,0.883,0.9031,0.9172,0.9407,0.978,1.0626,1.1542,1.2354,1.2643,1.2625,1.2326,1.2043,1.1651,1.1333,1.0879,1.0778,1.113,1.194,1.2693,1.3388,1.425,1.5262,1.5282,1.5248,1.53,1.5508,1.5535,1.5758,1.649,1.7432,1.788,1.8098,1.8497,1.8816,1.9058,1.9153,1.9296,1.936,1.9395,1.9365,1.9202,1.9202,1.905,1.885,1.8804,1.8897,1.9058,1.9204,1.9365,1.9691,2.1208,2.1676,2.1641,2.3422,2.3627,2.3596,2.4669,2.5853,2.5895,2.5961,2.6299,2.7162,2.7304,2.7818,2.8408,2.8803,2.8803,2.8803,2.8873,2.929,3.0407,3.1214,3.1779,3.2438,3.2961,3.3102,3.3102,3.3102,3.3102,3.3102,3.3102,3.3102,3.3167,3.3882,3.4441,3.4558,3.484,3.4889,3.493,3.5209,3.5494,3.5298,3.6004,3.6847,3.7294,3.7701,3.8333,3.8991,3.928,3.9286,3.9284,3.9107,3.8973,3.8691,3.8182,3.7958,3.8048,3.7958,3.7823,3.7674,3.7552,3.7612,0.8541,0.8586,0.8616,0.8666,0.881,0.8935,0.9084,0.9371,1.019,1.1359,1.2587,1.2888,1.2888,1.2496,1.2098,1.1888,1.1537,1.1118,1.068,1.1021,1.1706,1.2364,1.2972,1.3749,1.4711,1.5028,1.5129,1.5128,1.5438,1.5588,1.5732,1.6124,1.6813,1.7522,1.8137,1.8899,1.9391,1.9627,1.9693,1.9739,1.9777,1.9716,1.9579,1.9402,1.9394,1.9256,1.9104,1.9058,1.9181,1.9319,1.9479,1.9662,2.0192,2.0808,2.1338,2.1739,2.2262,2.2833,2.2943,2.4167,2.5528,2.5833,2.5906,2.6409,2.702,2.7337,2.7763,2.8628,2.8803,2.8803,2.8803,2.885,2.9451,3.052,3.0857,3.1436,3.246,3.3102,3.3102,3.3102,3.3102,3.3102,3.3102,3.3145,3.3283,3.3526,3.4296,3.4656,3.4571,3.493,3.5447,3.5467,3.5548,3.5823,3.6103,3.6559,3.7042,3.7639,3.8018,3.83,3.8811,3.9156,3.9212,3.8943,3.8766,3.8601,3.8407,3.8182,3.8437,3.8796,3.8616,3.8359,3.8512,3.8404,3.83,0.8431,0.8586,0.8616,0.8662,0.8773,0.8797,0.8822,0.8976,0.9691,1.0875,1.2242,1.2684,1.2841,1.2637,1.2151,1.1859,1.1696,1.137,1.098,1.0925,1.1662,1.2115,1.2519,1.3216,1.4002,1.4633,1.4698,1.4786,1.5213,1.5398,1.5561,1.5977,1.6645,1.7331,1.7824,1.9132,1.9806,1.9891,1.9814,1.9905,2.0096,2.0005,1.9799,1.9662,1.9677,1.954,1.9311,1.9342,1.9464,1.9579,1.9602,1.9754,2.0065,2.0749,2.0943,2.0645,2.2041,2.2041,2.0997,2.3226,2.4712,2.5728,2.5906,2.6321,2.7031,2.7359,2.762,2.8496,2.876,2.8792,2.8803,2.8896,2.9669,3.0407,3.079,3.1392,3.2438,3.3102,3.3102,3.3102,3.3102,3.3102,3.3102,3.3188,3.3398,3.3882,3.4705,3.4931,3.4786,3.5216,3.587,3.5976,3.5996,3.6334,3.6624,3.6814,3.7236,3.7863,3.8371,3.8668,3.8922,3.9247,3.9122,3.8691,3.8571,3.8556,3.8467,3.835,3.8392,3.8437,3.8973,3.8987,3.9167,3.9167,3.8943,0.8555,0.8612,0.8616,0.8619,0.8676,0.8676,0.871,0.8939,0.9714,1.1014,1.2443,1.2709,1.2773,1.2737,1.2441,1.2036,1.1822,1.1424,1.1041,1.0809,1.1693,1.1929,1.225,1.2695,1.3165,1.3342,1.3595,1.4049,1.4147,1.491,1.5505,1.594,1.6527,1.7302,1.7862,1.8612,1.8866,1.9333,1.9463,1.9669,2.0201,2.0178,2.0042,1.9822,1.9868,1.9777,1.9502,1.9625,1.9693,1.9777,1.9799,1.9914,2.0087,2.0659,2.0555,2.0314,2.1257,2.1672,2.185,2.34,2.4295,2.5242,2.595,2.6191,2.6747,2.714,2.7654,2.8145,2.8518,2.8639,2.8803,2.8781,2.9429,3.0498,3.1103,3.1769,3.2537,3.2918,3.3102,3.3102,3.3102,3.3102,3.3102,3.3219,3.3441,3.3987,3.478,3.5271,3.5291,3.579,3.6393,3.6419,3.6517,3.6883,3.7188,3.7472,3.7734,3.8277,3.8756,3.9137,3.9334,3.9406,3.8958,3.8497,3.8527,3.8559,3.8182,3.7883,3.7778,3.7913,3.8404,3.9032,3.9302,3.9331,3.9287,0.8533,0.8612,0.8616,0.8616,0.8616,0.8616,0.8659,0.8901,0.9771,1.1035,1.2037,1.2382,1.2695,1.2759,1.2485,1.2217,1.1932,1.15,1.1241,1.0971,1.1575,1.1913,1.217,1.2363,1.254,1.2556,1.3036,1.3565,1.3752,1.4747,1.5445,1.5977,1.6369,1.6676,1.7239,1.7722,1.8357,1.8819,1.9027,1.9417,1.9837,2.0042,2.0124,1.9996,1.9959,1.9936,1.9799,1.9808,1.9891,1.9996,2.0065,2.011,2.0246,2.0292,2.0292,2.0292,2.0419,2.1145,2.2085,2.2482,2.3379,2.4541,2.539,2.6093,2.6507,2.6857,2.7249,2.7697,2.8112,2.8245,2.831,2.8366,2.9003,3.0047,3.0808,3.1424,3.246,3.2861,3.2968,3.298,3.2989,3.3014,3.3108,3.3304,3.3484,3.4134,3.4806,3.5244,3.5703,3.6209,3.6682,3.6786,3.6967,3.7342,3.7777,3.8206,3.8497,3.8771,3.9028,3.9261,3.9406,3.9376,3.8838,3.8437,3.8601,3.8497,3.7719,3.736,3.7315,3.7449,3.7793,3.8482,3.9212,3.9406,3.9406,0.8419,0.8582,0.8616,0.8582,0.8578,0.8562,0.86,0.877,0.9934,1.0543,1.0824,1.2131,1.2522,1.2588,1.2227,1.2029,1.1911,1.1489,1.1311,1.1241,1.1435,1.1747,1.1962,1.2063,1.1993,1.2316,1.2846,1.347,1.3683,1.4824,1.5648,1.5937,1.6038,1.6157,1.6534,1.7044,1.7753,1.8102,1.8473,1.8912,1.9394,1.9837,1.9996,2.0019,2.011,2.0087,2.005,2.0087,2.0201,2.0246,2.0269,2.0292,2.0292,2.0292,2.0292,2.0292,2.0292,2.093,2.165,2.1895,2.2416,2.3649,2.4754,2.5733,2.6291,2.6476,2.6944,2.7195,2.749,2.7468,2.7457,2.7822,2.821,2.9096,2.9896,3.0946,3.2247,3.2698,3.2741,3.2737,3.2742,3.2788,3.2885,3.3106,3.3284,3.3945,3.4553,3.5096,3.5587,3.6229,3.6682,3.7033,3.7304,3.7758,3.8221,3.8612,3.8918,3.9065,3.8918,3.9065,3.921,3.9212,3.8584,3.8347,3.8703,3.8464,3.7659,3.715,3.6928,3.7152,3.7524,3.8272,3.9122,3.9361,3.9406,0.8423,0.8608,0.8616,0.8517,0.8399,0.8391,0.8741,0.9288,0.9323,0.9886,1.1397,1.1241,1.1886,1.2598,1.2231,1.2037,1.1807,1.157,1.1354,1.1289,1.1289,1.1435,1.1543,1.158,1.1375,1.1711,1.2409,1.3286,1.3765,1.4876,1.5826,1.6116,1.6021,1.5896,1.6015,1.6275,1.681,1.7302,1.7676,1.8257,1.8858,1.9348,1.9631,1.9905,2.0019,2.0019,2.011,2.0155,2.0224,2.0292,2.0292,2.0292,2.0292,2.0292,2.0292,2.0292,2.0374,2.0704,2.1481,2.1695,2.2006,2.268,2.3639,2.424,2.5027,2.5862,2.6465,2.6748,2.6977,2.7009,2.7053,2.7316,2.7786,2.8498,2.9178,2.9912,3.1086,3.1651,3.1736,3.2169,3.2185,3.2311,3.2432,3.2693,3.2952,3.3642,3.4217,3.4692,3.5424,3.6077,3.6403,3.6738,3.7501,3.7933,3.8379,3.88,3.9104,3.9316,3.9137,3.9017,3.9187,3.9032,3.8329,3.7988,3.7973,3.7838,3.7524,3.7045,3.6522,3.7045,3.7477,3.8255,3.8913,3.9182,3.9391,0.8269,0.8345,0.8349,0.828,0.8207,0.8281,0.8636,0.9013,0.9008,0.9924,1.1133,1.1154,1.1628,1.2384,1.2182,1.1957,1.1828,1.1505,1.1289,1.1289,1.1289,1.1332,1.1311,1.1246,1.1057,1.1353,1.1904,1.2783,1.3635,1.5078,1.6187,1.6501,1.6234,1.6133,1.6157,1.6204,1.6258,1.6652,1.7021,1.7552,1.8087,1.8658,1.9081,1.9379,1.9509,1.96,1.9837,1.9882,1.9996,2.0224,2.0292,2.0292,2.0292,2.0292,2.0292,2.0292,2.0337,2.0532,2.0952,2.1056,2.1481,2.1917,2.2403,2.3084,2.3969,2.4887,2.5658,2.6216,2.6508,2.6693,2.6736,2.6845,2.743,2.8036,2.8382,2.8738,2.9491,3.0241,3.0798,3.1326,3.1545,3.167,3.1874,3.2155,3.2347,3.2566,3.2993,3.3546,3.4625,3.5798,3.596,3.6076,3.7129,3.804,3.8417,3.8697,3.9108,3.9319,3.9334,3.9253,3.9302,3.9077,3.8601,3.7764,3.6926,3.6896,3.6941,3.6507,3.6163,3.6729,3.7223,3.7764,3.8467,3.9122,3.9287,0.7966,0.7995,0.7991,0.8073,0.804,0.8244,0.833,0.8414,0.9187,0.999,1.0679,1.1327,1.1864,1.2299,1.2102,1.1871,1.1699,1.144,1.1289,1.1289,1.1289,1.1289,1.1289,1.1267,1.1084,1.1071,1.1762,1.3161,1.3801,1.5164,1.6467,1.6951,1.6683,1.6487,1.6447,1.6241,1.6218,1.6336,1.6598,1.6967,1.7248,1.7676,1.8063,1.8203,1.8319,1.8473,1.8958,1.9256,1.9509,1.9965,2.0292,2.0269,2.0292,2.0292,2.0292,2.0292,2.0292,2.036,2.0487,2.0532,2.0464,2.0794,2.1123,2.2161,2.3232,2.4303,2.5147,2.5901,2.6235,2.6289,2.6299,2.6332,2.6727,2.7092,2.7392,2.783,2.8491,2.9311,3.0143,3.06,3.0879,3.0997,3.1268,3.1552,3.1724,3.163,3.1876,3.2537,3.3507,3.4987,3.557,3.5531,3.6452,3.7398,3.7715,3.8124,3.8924,3.9232,3.9307,3.9406,3.9361,3.9167,3.896,3.7853,3.6731,3.6432,3.6282,3.5983,3.5983,3.6432,3.6881,3.721,3.7853,3.8646,3.9152,0.7636,0.7818,0.8096,0.8223,0.8223,0.8293,0.8365,0.8586,0.9274,0.9963,1.0614,1.1176,1.1779,1.2305,1.1995,1.1769,1.1678,1.1494,1.1332,1.13,1.13,1.1289,1.1289,1.1289,1.1197,1.1701,1.2595,1.3942,1.5143,1.6069,1.6544,1.6929,1.677,1.6676,1.6659,1.6407,1.6295,1.6265,1.6234,1.6551,1.6951,1.7162,1.745,1.78,1.8063,1.804,1.8473,1.8935,1.9165,1.9509,2.0065,2.0246,2.0292,2.0292,2.0292,2.0292,2.0269,2.0292,2.0292,2.0292,2.0292,2.0292,2.0749,2.1717,2.2755,2.3833,2.4754,2.5454,2.5895,2.5895,2.5927,2.5938,2.6002,2.6237,2.647,2.701,2.7591,2.8517,2.9478,2.9908,3.0185,3.0432,3.0688,3.0884,3.1047,3.1218,3.1402,3.1849,3.2508,3.3661,3.4952,3.5187,3.5747,3.6481,3.6876,3.7389,3.8131,3.884,3.9062,3.9206,3.9346,3.8763,3.8182,3.7479,3.6686,3.6282,3.5968,3.5833,3.5923,3.6222,3.6432,3.6716,3.712,3.7808,3.8542,0.7396,0.7763,0.805,0.8122,0.8098,0.8134,0.8272,0.8573,0.9169,0.9732,1.0267,1.0939,1.1714,1.2283,1.1995,1.1804,1.1777,1.1586,1.1522,1.1472,1.1321,1.1294,1.1289,1.1289,1.1267,1.1727,1.2976,1.4383,1.5952,1.6459,1.6595,1.6912,1.6843,1.6873,1.684,1.6659,1.6478,1.6359,1.6092,1.6282,1.6676,1.6652,1.6622,1.7028,1.7122,1.7263,1.7823,1.8326,1.8843,1.9279,1.9928,1.9623,1.9691,1.9905,2.0042,2.0019,2.0033,2.0292,2.0292,2.0292,2.0292,2.0292,2.0314,2.1235,2.1961,2.3052,2.421,2.4935,2.5791,2.5895,2.5895,2.5938,2.5938,2.6066,2.6244,2.6601,2.7286,2.8111,2.9058,2.9824,2.998,3.003,3.0231,3.0244,3.0382,3.0394,3.0653,3.1006,3.1661,3.2485,3.3721,3.4679,3.5142,3.5624,3.6061,3.658,3.7179,3.7912,3.8713,3.8832,3.8781,3.8018,3.7315,3.6866,3.6417,3.5953,3.5684,3.5639,3.5639,3.5833,3.6028,3.6222,3.6626,3.7015,3.7554,0.7215,0.7776,0.7882,0.7853,0.7773,0.7881,0.7998,0.8252,0.8922,0.9288,0.9615,1.078,1.1683,1.1977,1.1995,1.1975,1.1893,1.1706,1.1696,1.1602,1.1391,1.1316,1.1289,1.1289,1.1499,1.1989,1.3001,1.415,1.538,1.5936,1.6469,1.6858,1.7107,1.7266,1.7232,1.709,1.6838,1.6619,1.643,1.6295,1.617,1.595,1.5991,1.592,1.5872,1.6197,1.6857,1.7559,1.8288,1.8796,1.9348,1.9256,1.9211,1.9517,1.9745,1.9806,2.0065,2.0246,2.0292,2.0292,2.0292,2.0292,2.0292,2.0682,2.1472,2.2284,2.3444,2.4317,2.5147,2.5686,2.5686,2.5906,2.5906,2.5916,2.6073,2.6302,2.7031,2.773,2.8613,2.9534,2.9733,2.9746,2.9804,2.9804,2.9804,2.9792,2.9921,3.0247,3.0761,3.1713,3.2773,3.3623,3.4197,3.4701,3.5395,3.5853,3.6432,3.7396,3.8162,3.8294,3.8242,3.7764,3.721,3.6596,3.6148,3.5729,3.5579,3.5549,3.5549,3.5579,3.5699,3.5893,3.6058,3.6402,3.6596,0.7045,0.7772,0.7592,0.7458,0.7437,0.7581,0.754,0.7519,0.8479,0.8795,0.906,1.0627,1.1652,1.1521,1.1284,1.1472,1.2076,1.1888,1.1729,1.1651,1.1483,1.1364,1.1294,1.1354,1.2037,1.2604,1.3226,1.4185,1.496,1.5634,1.6279,1.6761,1.6939,1.7099,1.7255,1.7113,1.6972,1.6807,1.669,1.6548,1.6383,1.6211,1.6004,1.595,1.5927,1.595,1.6228,1.681,1.7178,1.7575,1.8141,1.8542,1.8796,1.9073,1.9471,1.9723,1.9996,2.0246,2.0292,2.0292,2.0292,2.0292,2.036,2.0645,2.1212,2.1561,2.2526,2.3205,2.3994,2.4722,2.4978,2.5686,2.5885,2.5906,2.6,2.6375,2.6901,2.751,2.8183,2.8941,2.9456,2.9585,2.9792,2.9792,2.9792,2.9779,2.9779,3.0062,3.019,3.1046,3.1964,3.2608,3.3304,3.4469,3.5431,3.5355,3.5863,3.6846,3.7593,3.7786,3.7838,3.7716,3.7178,3.6402,3.5953,3.5594,3.5504,3.5489,3.5504,3.5534,3.5519,3.5609,3.5729,3.5953,3.6297]},{"header":{"parameterUnit":"m.s-1","parameterCategory":1,"la1":31.0,"la2":29.5877,"lo1":-88.7671,"lo2":-86.6584,"dy":0.0162,"dx":0.0185,"nx":115,"ny":88,"refTime":"2023-05-25T00:00:00:Z","depth":0,"parameterNumber":3,"parameterNumberName":"V-component_of_WINDS"},"data":[0.0,0.0,0.0,0.0,0.0,0.0,0.0,0.0,0.0,0.0,0.0,0.0,0.0,0.0,0.0,0.0,0.0,0.0,0.0,0.0,0.0,0.0,0.0,0.0,0.0,0.0,0.0,0.0,0.0,0.0,0.0,0.0,0.0,0.0,0.0,0.0,0.0,0.0,0.0,0.0,0.0,0.0,0.0,0.0,0.0,0.0,0.0,0.0,0.0,0.0,0.0,0.0,0.0,0.0,0.0,0.0,0.0,0.0,0.0,0.0,0.0,0.0,0.0,0.0,0.0,0.0,0.0,0.0,0.0,0.0,0.0,0.0,0.0,0.0,0.0,0.0,0.0,0.0,0.0,0.0,0.0,0.0,0.0,0.0,0.0,0.0,0.0,0.0,0.0,0.0,0.0,0.0,0.0,0.0,0.0,0.0,0.0,0.0,0.0,0.0,0.0,0.0,0.0,0.0,0.0,0.0,0.0,0.0,0.0,0.0,0.0,0.0,0.0,0.0,0.0,0.0,0.0,0.0,0.0,0.0,0.0,0.0,0.0,0.0,0.0,0.0,0.0,0.0,0.0,0.0,0.0,0.0,0.0,0.0,0.0,0.0,0.0,0.0,0.0,0.0,0.0,0.0,0.0,0.0,0.0,0.0,0.0,0.0,0.0,0.0,0.0,0.0,0.0,0.0,0.0,0.0,0.0,0.0,0.0,0.0,0.0,0.0,0.0,0.0,0.0,0.0,0.0,0.0,0.0,0.0,0.0,0.0,0.0,0.0,0.0,0.0,0.0,0.0,0.0,0.0,0.0,0.0,0.0,0.0,0.0,0.0,0.0,0.0,0.0,0.0,0.0,0.0,0.0,0.0,0.0,0.0,0.0,0.0,0.0,0.0,0.0,0.0,0.0,0.0,0.0,0.0,0.0,0.0,0.0,0.0,0.0,0.0,0.0,0.0,0.0,0.0,0.0,0.0,0.0,0.0,0.0,0.0,0.0,0.0,0.0,0.0,0.0,0.0,0.0,0.0,0.0,0.0,0.0,0.0,0.0,0.0,0.0,0.0,0.0,0.0,0.0,0.0,0.0,0.0,0.0,0.0,0.0,0.0,0.0,0.0,0.0,0.0,0.0,0.0,0.0,0.0,0.0,0.0,0.0,0.0,0.0,0.0,0.0,0.0,0.0,0.0,0.0,0.0,0.0,0.0,0.0,0.0,0.0,0.0,0.0,0.0,0.0,0.0,0.0,0.0,0.0,0.0,0.0,0.0,0.0,0.0,0.0,0.0,0.0,0.0,0.0,0.0,0.0,0.0,0.0,0.0,0.0,0.0,0.0,0.0,0.0,0.0,0.0,0.0,0.0,0.0,0.0,0.0,0.0,0.0,0.0,0.0,0.0,0.0,0.0,0.0,0.0,0.0,0.0,0.0,0.0,0.0,0.0,0.0,0.0,0.0,0.0,0.0,0.0,0.0,0.0,0.0,0.0,0.0,0.0,0.0,0.0,0.0,0.0,0.0,0.0,0.0,0.0,0.0,0.0,0.0,0.0,0.0,0.0,0.0,0.0,0.0,0.0,0.0,0.0,0.0,0.0,0.0,0.0,0.0,0.0,0.0,0.0,0.0,0.0,0.0,0.0,0.0,0.0,0.0,0.0,0.0,0.0,0.0,0.0,0.0,0.0,0.0,0.0,0.0,0.0,0.0,0.0,0.0,0.0,0.0,0.0,0.0,0.0,0.0,0.0,0.0,0.0,0.0,0.0,0.0,0.0,0.0,0.0,0.0,0.0,0.0,0.0,0.0,0.0,0.0,0.0,0.0,0.0,0.0,0.0,0.0,0.0,0.0,0.0,0.0,0.0,0.0,0.0,0.0,0.0,0.0,0.0,0.0,0.0,0.0,0.0,0.0,0.0,0.0,0.0,0.0,0.0,0.0,0.0,0.0,0.0,0.0,0.0,0.0,0.0,0.0,0.0,0.0,0.0,0.0,0.0,0.0,0.0,0.0,0.0,0.0,0.0,0.0,0.0,0.0,0.0,0.0,0.0,0.0,0.0,0.0,0.0,0.0,0.0,0.0,0.0,0.0,0.0,0.0,0.0,0.0,0.0,0.0,0.0,0.0,0.0,0.0,0.0,0.0,0.0,0.0,0.0,0.0,0.0,0.0,0.0,0.0,0.0,0.0,0.0,0.0,0.0,0.0,0.0,0.0,0.0,0.0,0.0,0.0,0.0,0.0,0.0,0.0,0.0,0.0,0.0,0.0,0.0,0.0,0.0,0.0,0.0,0.0,0.0,0.0,0.0,0.0,0.0,0.0,0.0,0.0,0.0,0.0,0.0,0.0,0.0,0.0,0.0,0.0,0.0,0.0,0.0,0.0,0.0,0.0,0.0,0.0,0.0,0.0,0.0,0.0,0.0,0.0,0.0,0.0,0.0,0.0,0.0,0.0,0.0,0.0,0.0,0.0,0.0,0.0,0.0,0.0,0.0,0.0,0.0,0.0,0.0,0.0,0.0,0.0,0.0,0.0,0.0,0.0,0.0,0.0,0.0,0.0,0.0,0.0,0.0,0.0,0.0,0.0,0.0,0.0,0.0,0.0,0.0,0.0,0.0,0.0,0.0,0.0,0.0,0.0,0.0,0.0,0.0,0.0,0.0,0.0,0.0,0.0,0.0,0.0,0.0,0.0,0.0,0.0,0.0,0.0,0.0,0.0,0.0,0.0,0.0,0.0,0.0,0.0,0.0,0.0,0.0,0.0,0.0,0.0,0.0,0.0,0.0,0.0,0.0,0.0,0.0,0.0,0.0,0.0,0.0,0.0,0.0,0.0,0.0,0.0,0.0,0.0,0.0,0.0,0.0,0.0,0.0,0.0,0.0,0.0,0.0,0.0,0.0,0.0,0.0,0.0,0.0,0.0,0.0,0.0,0.0,0.0,0.0,0.0,0.0,0.0,0.0,0.0,0.0,0.0,0.0,0.0,0.0,0.0,0.0,0.0,0.0,0.0,0.0,0.0,0.0,0.0,0.0,0.0,0.0,0.0,0.0,0.0,0.0,0.0,0.0,0.0,0.0,0.0,0.0,0.0,0.0,0.0,0.0,0.0,0.0,0.0,0.0,0.0,0.0,0.0,0.0,0.0,0.0,0.0,0.0,0.0,0.0,0.0,0.0,0.0,0.0,0.0,0.0,0.0,0.0,0.0,0.0,0.0,0.0,0.0,0.0,0.0,0.0,0.0,0.0,0.0,0.0,0.0,0.0,0.0,0.0,0.0,0.0,0.0,0.0,0.0,0.0,0.0,0.0,0.0,0.0,0.0,0.0,0.0,0.0,0.0,0.0,0.0,0.0,0.0,0.0,0.0,0.0,0.0,0.0,0.0,0.0,0.0,0.0,0.0,0.0,0.0,0.0,0.0,0.0,0.0,0.0,0.0,0.0,0.0,0.0,0.0,0.0,0.0,0.0,0.0,0.0,0.0,0.0,0.0,0.0,0.0,0.0,0.0,0.0,0.0,0.0,0.0,0.0,0.0,0.0,0.0,0.0,0.0,0.0,0.0,0.0,0.0,0.0,0.0,0.0,0.0,0.0,0.0,0.0,0.0,0.0,0.0,0.0,0.0,0.0,0.0,0.0,0.0,0.0,0.0,0.0,0.0,0.0,0.0,0.0,0.0,0.0,0.0,0.0,0.0,0.0,0.0,0.0,0.0,0.0,0.0,0.0,0.0,0.0,0.0,0.0,0.0,0.0,0.0,0.0,0.0,0.0,0.0,0.0,0.0,0.0,0.0,0.0,0.0,0.0,0.0,0.0,0.0,0.0,0.0,0.0,0.0,0.0,0.0,0.0,0.0,0.0,0.0,0.0,0.0,0.0,0.0,0.0,0.0,0.0,0.0,0.0,0.0,0.0,0.0,0.0,0.0,0.0,0.0,0.0,0.0,0.0,0.0,0.0,0.0,0.0,0.0,0.0,0.0,0.0,0.0,0.0,0.0,0.0,0.0,0.0,0.0,0.0,0.0,0.0,0.0,0.0,0.0,0.0,0.0,0.0,0.0,0.0,0.0,0.0,0.0,0.0,0.0,0.0,0.0,0.0,0.0,0.0,0.0,0.0,0.0,0.0,0.0,0.0,0.0,0.0,0.0,0.0,0.0,0.0,0.0,0.0,0.0,0.0,0.0,0.0,0.0,0.0,0.0,0.0,0.0,0.0,0.0,0.0,0.0,0.0,0.0,0.0,0.0,0.0,0.0,0.0,0.0,0.0,0.0,0.0,0.0,0.0,0.0,0.0,0.0,0.7906,0.0,0.0,0.0,0.0,0.0,0.0,0.0,0.0,0.0,0.0,0.0,0.0,0.0,0.0,0.0,0.0,0.0,0.0,0.0,0.0,0.0,0.0,0.0,0.0,0.0,0.0,0.0,0.0,0.0,0.0,0.0,0.0,0.0,0.0,0.0,0.0,0.0,0.0,0.0,0.0,0.0,0.0,0.0,0.0,0.0,0.0,0.0,0.0,0.0,0.0,0.0,0.0,0.0,0.0,0.0,0.0,0.0,0.0,0.0,0.0,0.0,0.0,0.0,0.0,0.0,0.0,0.0,0.0,0.0,0.0,0.0,0.0,0.0,0.0,0.0,0.0,0.0,0.0,0.0,0.0,0.0,0.0,0.0,0.0,0.0,0.0,0.0,0.0,0.0,0.0,0.0,0.0,0.0,0.0,0.0,0.0,0.0,0.0,0.0,0.0,0.0,0.0,0.0,0.0,0.0,0.0,0.0,0.0,0.0,0.0,0.7906,0.7906,0.7906,0.7906,0.7906,0.0,0.0,0.0,0.0,0.0,0.0,0.0,0.0,0.0,0.0,0.0,0.0,0.0,0.0,0.0,0.0,0.0,0.0,0.0,0.0,0.0,0.0,0.0,0.0,0.0,0.0,0.0,0.0,0.0,0.0,0.0,0.0,0.0,0.0,0.0,0.0,0.0,0.0,0.0,0.0,0.0,0.0,0.0,0.0,0.0,0.0,0.0,0.0,0.0,0.0,0.0,0.0,0.0,0.0,0.0,0.0,0.0,0.0,0.0,0.0,0.0,0.0,0.0,0.0,0.0,0.0,0.0,0.0,0.0,0.0,0.0,0.0,0.0,0.0,0.0,0.0,0.0,0.0,0.0,0.0,0.0,0.0,0.0,0.0,0.0,0.0,0.0,0.0,0.0,0.0,0.0,0.0,0.0,0.0,0.0,0.0,0.0,0.0,0.0,0.0,0.0,0.0,0.0,0.0,0.0,0.0,0.0,0.0,0.0,0.0,0.0,0.0,0.7906,0.7906,0.791,0.0,0.0,0.0,0.0,0.0,0.0,0.0,0.0,0.0,0.0,0.0,0.0,0.0,0.0,0.0,0.0,0.0,0.0,0.0,0.0,0.0,0.0,0.0,0.0,0.0,0.0,0.0,0.0,0.0,0.0,0.0,0.0,0.0,0.0,0.0,0.0,0.0,0.0,0.0,0.0,0.0,0.0,0.0,0.0,0.0,0.0,0.0,0.0,0.0,0.0,0.0,0.0,0.0,0.0,0.0,0.0,0.0,0.0,0.0,0.0,0.0,0.0,0.0,0.0,0.0,0.0,0.0,0.0,0.0,0.0,0.0,0.0,0.0,0.0,0.0,0.0,0.0,0.0,0.0,0.0,0.0,0.0,0.0,0.0,0.0,0.0,0.0,0.0,0.0,0.0,0.0,0.0,0.0,0.0,0.0,0.0,0.0,0.0,0.0,0.0,0.0,0.0,0.0,0.0,0.0,0.0,0.0,0.0,0.0,0.0,0.7906,0.7906,0.7906,0.0,0.7904,0.0,0.0,0.0,0.0,0.0,0.0,0.0,0.0,0.0,0.0,0.0,0.0,0.0,0.0,0.0,0.0,0.0,0.0,0.0,0.0,0.0,0.0,0.0,0.0,0.0,0.0,0.0,0.0,0.0,0.0,0.0,0.0,0.0,0.0,0.0,0.0,0.0,0.0,0.0,0.0,0.0,0.0,0.0,0.0,0.0,0.0,0.0,0.0,0.0,0.0,0.0,0.0,0.0,0.0,0.0,0.0,0.0,0.0,0.0,0.0,0.0,0.0,0.0,0.0,0.0,0.0,0.0,0.0,0.0,0.0,0.0,0.0,0.0,0.0,0.0,0.0,0.0,0.0,0.0,0.0,0.0,0.0,0.0,0.0,0.0,0.0,0.0,0.0,0.0,0.0,0.0,0.0,0.0,0.0,0.0,0.0,0.0,0.0,0.0,0.0,0.0,0.0,0.0,0.0,0.0,0.0,0.0,0.0,0.0,0.0,0.7849,0.7849,0.7878,0.7906,0.0,0.0,0.0,0.0,0.0,0.0,0.0,0.0,0.0,0.0,0.0,0.0,0.0,0.0,0.0,0.0,0.0,0.0,0.0,0.0,0.0,0.0,0.0,0.0,0.0,0.0,0.0,0.0,0.0,0.0,0.0,0.0,0.0,0.0,0.0,0.0,0.0,0.0,0.0,0.0,0.0,0.0,0.0,0.0,0.0,0.0,0.0,0.0,0.0,0.0,0.0,0.0,0.0,0.0,0.0,0.0,0.0,0.0,0.0,0.0,0.0,0.0,0.0,0.0,0.0,0.0,0.0,0.0,0.0,0.0,0.0,0.0,0.0,0.0,0.0,0.0,0.0,0.0,0.0,0.0,0.0,0.0,0.0,0.0,0.0,0.0,0.0,0.0,0.0,0.0,0.0,0.0,0.0,0.0,0.0,0.0,0.0,0.0,0.0,0.0,0.0,0.0,0.0,0.0,0.0,0.0,0.0,0.0,0.0,0.0,0.7761,0.7805,0.7812,0.7849,0.7878,0.7878,0.0,0.0,0.0,0.0,0.0,0.0,0.0,0.0,0.0,0.0,0.0,0.0,0.0,0.0,0.0,0.0,0.0,0.0,0.0,0.0,0.0,0.0,0.0,0.0,0.0,0.0,0.0,0.0,0.0,0.0,0.0,0.0,0.0,0.0,0.0,0.0,0.0,0.0,0.0,0.0,0.0,0.0,0.0,0.0,0.0,0.0,0.0,0.0,0.0,0.0,0.0,0.0,0.0,0.0,0.0,0.0,0.0,0.0,0.0,0.0,0.0,0.0,0.0,0.0,0.0,0.0,0.0,0.0,0.0,0.0,0.0,0.0,0.0,0.0,0.0,0.0,0.0,0.0,0.0,0.0,0.0,0.0,0.0,0.0,0.0,0.0,0.0,0.0,0.0,0.0,0.0,0.0,0.0,0.0,0.0,0.0,0.0,0.0,0.0,0.0,0.0,0.0,0.0,0.0,0.0,0.0,0.0,0.0,0.7698,0.7772,0.7805,0.7805,0.7805,0.782,0.0,0.0,0.0,0.0,0.0,0.0,0.0,0.0,0.0,0.0,0.0,0.0,0.0,0.0,0.0,0.0,0.0,0.0,0.0,0.0,0.0,0.0,0.0,0.0,0.0,0.0,0.0,0.0,0.0,0.0,0.0,0.0,0.0,0.0,0.0,0.0,0.0,0.0,0.0,0.0,0.0,0.0,0.0,0.0,0.0,0.0,0.0,0.0,0.0,0.0,0.0,0.0,0.0,0.0,0.0,0.0,0.0,0.0,0.0,0.0,0.0,0.0,0.0,0.0,0.0,0.0,0.0,0.0,0.0,0.0,0.0,0.0,0.0,0.0,0.0,0.0,0.0,0.0,0.0,0.0,0.0,0.0,0.0,0.0,0.0,0.0,0.0,0.0,0.0,0.0,0.0,0.0,0.0,0.0,0.0,0.0,0.0,0.0,0.0,0.0,0.0,0.0,0.0,0.0,0.0,0.0,0.0,0.0,0.0,0.7646,0.7702,0.775,0.7801,0.7805,0.7805,0.0,0.0,0.0,0.0,0.0,0.0,0.0,0.0,0.0,0.0,0.0,0.0,0.0,0.0,0.0,0.0,0.0,0.0,0.0,0.0,0.0,0.0,0.0,0.0,0.0,0.0,0.0,0.0,0.0,0.0,0.0,0.0,0.0,0.0,0.0,0.0,0.0,0.0,0.0,0.0,0.0,0.0,0.0,0.0,0.0,0.0,0.0,0.0,0.0,0.0,0.0,0.0,0.0,0.0,0.0,0.0,0.0,0.0,0.0,0.0,0.0,0.0,0.0,0.0,0.0,0.0,0.0,0.0,0.0,0.0,0.0,0.0,0.0,0.0,0.0,0.0,0.0,0.0,0.0,0.0,0.0,0.0,0.0,0.0,0.0,0.0,0.0,0.0,0.0,0.0,0.0,0.0,0.0,0.0,0.0,0.0,0.0,0.0,0.0,0.0,0.0,0.0,0.0,0.0,0.0,0.0,0.0,0.0,0.0,0.7679,0.0,0.772,0.7757,0.7735,0.7753,0.0,0.0,0.0,0.0,0.0,0.0,0.0,0.0,0.0,0.0,0.0,0.0,0.0,0.0,0.0,0.0,0.0,0.0,0.0,0.0,0.0,0.0,0.0,0.0,0.0,0.0,0.0,0.0,0.0,0.0,0.0,0.0,0.0,0.0,0.0,0.0,0.0,0.0,0.0,0.0,0.0,0.0,0.0,0.0,0.0,0.0,0.0,0.0,0.0,0.0,0.0,0.0,0.0,0.0,0.0,0.0,0.0,0.0,0.0,0.0,0.0,0.0,0.0,0.0,0.0,0.0,0.0,0.0,0.0,0.0,0.0,0.0,0.0,0.0,0.0,0.0,0.0,0.0,0.0,0.0,0.0,0.0,0.0,0.0,0.0,0.0,0.0,0.0,0.0,0.0,0.0,0.0,0.0,0.0,0.0,0.0,0.0,0.0,0.0,0.0,0.0,0.0,0.0,0.0,0.0,0.0,0.0,0.0,0.7801,0.7805,0.775,0.7742,0.7713,0.7671,0.7687,0.0,0.0,0.0,0.0,0.0,0.0,0.0,0.0,0.0,0.0,0.0,0.0,0.0,0.0,0.0,0.0,0.0,0.0,0.0,0.0,0.0,0.0,0.0,0.0,0.0,0.0,0.0,0.0,0.0,0.0,0.0,0.0,0.0,0.0,0.0,0.0,0.0,0.0,0.0,0.0,0.0,0.0,0.0,0.0,0.0,0.0,0.0,0.0,0.0,0.0,0.0,0.0,0.0,0.0,0.0,0.0,0.0,0.0,0.0,0.0,0.0,0.0,0.0,0.0,0.0,0.0,0.0,0.0,0.0,0.0,0.0,0.0,0.0,0.0,0.0,0.0,0.0,0.0,0.0,0.0,0.0,0.0,0.0,0.0,0.0,0.0,0.0,0.0,0.0,0.0,0.0,0.0,0.0,0.0,0.0,0.0,0.0,0.0,0.0,0.0,0.0,0.0,0.0,0.0,0.0,0.0,0.0,0.0,0.0,0.8406,0.8359,0.832,0.8324,0.8347,0.8158,0.0,0.0,0.0,0.0,0.0,0.0,0.0,0.0,0.0,0.0,0.0,0.0,0.0,0.0,0.0,0.0,0.0,0.0,0.0,0.0,0.0,0.0,0.0,0.0,0.0,0.0,0.0,0.0,0.0,0.0,0.0,0.0,0.0,0.0,0.0,0.0,0.0,0.0,0.0,0.0,0.0,0.0,0.0,0.0,0.0,0.0,0.0,0.0,0.0,0.0,0.0,0.0,0.0,0.0,0.0,0.0,0.0,0.0,0.0,0.0,0.0,0.0,0.0,0.0,0.0,0.0,0.0,0.0,0.0,0.0,0.0,0.0,0.0,0.0,0.0,0.0,0.0,0.0,0.0,0.0,0.0,0.0,0.0,0.0,0.0,0.0,0.0,0.0,0.0,0.0,0.0,0.0,0.0,0.0,0.0,0.0,0.0,0.0,0.0,0.0,0.0,0.0,0.0,0.0,0.0,0.0,0.0,0.0,0.0,1.046,1.0001,0.9643,0.949,0.9681,0.9244,0.8133,0.0,0.0,0.0,0.0,0.0,0.0,0.0,0.0,0.0,0.0,0.0,0.0,0.0,0.0,0.0,0.0,0.0,0.0,0.0,0.0,0.0,0.0,0.0,0.0,0.0,0.0,0.0,0.0,0.0,0.0,0.0,0.0,0.0,0.0,0.0,0.0,0.0,0.0,0.0,0.0,0.0,0.0,0.0,0.0,0.0,0.0,0.0,0.0,0.0,0.0,0.0,0.0,0.0,0.0,0.0,0.0,0.0,0.0,0.0,0.0,0.0,0.0,0.0,0.0,0.0,0.0,0.0,0.0,0.0,0.0,0.0,0.0,0.0,0.0,0.0,0.0,0.0,0.0,0.0,0.0,0.0,0.0,0.0,0.0,0.0,0.0,0.0,0.0,0.0,0.0,0.0,0.0,0.0,0.0,0.0,0.0,0.0,0.0,0.0,0.0,0.0,0.0,0.0,0.0,0.0,0.0,0.0,0.0,1.3807,1.272,1.1852,1.1278,1.1537,1.0791,0.0,0.0,0.0,0.0,0.0,0.0,0.0,0.0,0.0,0.0,0.0,0.0,0.0,0.0,0.0,0.0,0.0,0.0,0.0,0.0,0.0,0.0,0.0,0.0,0.0,0.0,0.0,0.0,0.0,0.0,0.0,0.0,0.0,0.0,0.0,0.0,0.0,0.0,0.0,0.0,0.0,0.0,0.0,0.0,0.0,0.0,0.0,0.0,0.0,0.0,0.0,0.0,0.0,0.0,0.0,0.0,0.0,0.0,0.0,0.0,0.0,0.0,0.0,0.0,0.0,0.0,0.0,0.0,0.0,0.0,0.0,0.0,0.0,0.0,0.0,0.0,0.0,0.0,0.0,0.0,0.0,0.0,0.0,0.0,0.0,0.0,0.0,0.0,0.0,0.0,0.0,0.0,0.0,0.0,0.0,0.0,0.0,0.0,0.0,0.0,0.0,0.0,0.0,0.0,0.0,0.0,0.0,0.0,0.0,1.6628,1.7684,1.6903,1.4284,1.3316,1.1921,0.0,0.0,0.0,0.0,0.0,0.0,0.0,0.0,0.0,0.0,0.0,0.0,0.0,0.0,0.0,0.0,0.0,0.0,0.0,0.0,0.0,0.0,0.0,0.0,0.0,0.0,0.0,0.0,0.0,0.0,0.0,0.0,0.0,0.0,0.0,0.0,0.0,0.0,0.0,0.0,0.0,0.0,0.0,0.0,0.0,0.0,0.0,0.0,0.0,0.0,0.0,0.0,0.0,0.0,0.0,0.0,0.0,0.0,0.0,0.0,0.0,0.0,0.0,0.0,0.0,0.0,0.0,0.0,0.0,0.0,0.0,0.0,0.0,0.0,0.0,0.0,0.0,0.0,0.0,0.0,0.0,0.0,0.0,0.0,0.0,0.0,0.0,0.0,0.0,0.0,0.0,0.0,0.0,0.0,0.0,0.0,0.0,0.0,0.0,0.0,0.0,0.0,0.0,0.0,0.0,0.0,0.0,0.0,1.5219,1.8558,2.0464,2.0548,1.8701,1.633,1.3689,0.0,0.0,0.0,0.0,0.0,0.0,0.0,0.0,0.0,0.0,0.0,0.0,0.0,0.0,0.0,0.0,0.0,0.0,0.0,0.0,0.0,0.0,0.0,0.0,0.0,0.0,0.0,0.0,0.0,0.0,0.0,0.0,0.0,0.0,0.0,0.0,0.0,0.0,0.0,0.0,0.0,0.0,0.0,0.0,0.0,0.0,0.0,0.0,0.0,0.0,0.0,0.0,0.0,0.0,0.0,0.0,0.0,0.0,0.0,0.0,0.0,0.0,0.0,0.0,0.0,0.0,0.0,0.0,0.0,0.0,0.0,0.0,0.0,0.0,0.0,0.0,0.0,0.0,0.0,0.0,0.0,0.0,0.0,0.0,0.0,0.0,0.0,0.0,0.0,0.0,0.0,0.0,0.0,0.0,0.0,0.0,0.0,0.0,0.0,0.0,0.0,0.0,0.0,0.0,0.0,0.0,0.0,0.0,1.6798,1.9757,2.198,2.3152,2.3183,1.9649,1.5791,0.0,0.0,0.0,0.0,0.0,0.0,0.0,0.0,0.0,0.0,0.0,0.0,0.0,0.0,0.0,0.0,0.0,0.0,0.0,0.0,0.0,0.0,0.0,0.0,0.0,0.0,0.0,0.0,0.0,0.0,0.0,0.0,0.0,0.0,0.0,0.0,0.0,0.0,0.0,0.0,0.0,0.0,0.0,0.0,0.0,0.0,0.0,0.0,0.0,0.0,0.0,0.0,0.0,0.0,0.0,0.0,0.0,0.0,0.0,0.0,0.0,0.0,0.0,0.0,0.0,0.0,0.0,0.0,0.0,0.0,0.0,0.0,0.0,0.0,0.0,0.0,0.0,0.0,0.0,0.0,0.0,0.0,0.0,0.0,0.0,0.0,0.0,0.0,0.0,0.0,0.0,0.0,0.0,0.0,0.0,0.0,0.0,0.0,0.0,0.0,0.0,0.0,0.0,0.0,0.0,0.0,0.0,0.0,1.8454,2.1143,2.4197,2.5002,2.3419,2.0372,1.7365,0.0,0.0,0.0,0.0,0.0,0.0,0.0,0.0,0.0,0.0,0.0,0.0,0.0,0.0,0.0,0.0,0.0,0.0,0.0,0.0,0.0,0.0,0.0,0.0,0.0,0.0,0.0,0.0,0.0,0.0,0.0,0.0,0.0,0.0,0.0,0.0,0.0,0.0,0.0,0.0,0.0,0.0,0.0,0.0,0.0,0.0,0.0,0.0,1.1809,0.0,0.0,0.0,0.0,0.0,0.0,0.0,0.0,0.0,0.0,0.0,0.0,0.0,0.0,0.0,0.0,0.0,0.0,0.0,0.0,0.0,0.0,0.0,0.0,0.0,0.0,0.0,0.0,0.0,0.0,0.0,0.0,0.0,0.0,0.0,0.0,0.0,0.0,0.0,0.0,0.0,0.0,0.0,0.0,0.0,0.0,0.0,0.0,0.0,0.0,0.0,0.0,0.0,0.0,0.0,0.0,0.0,0.0,0.0,1.9134,2.2053,2.4425,2.497,2.3505,2.1395,1.8689,0.0,0.0,0.0,0.0,0.0,0.0,0.0,0.0,0.0,0.0,0.0,0.0,0.0,0.0,0.0,0.0,0.0,0.0,0.0,0.0,0.0,0.0,0.0,0.0,0.0,0.0,0.0,0.0,0.0,0.0,0.0,0.0,0.0,0.0,0.0,0.0,0.0,0.0,0.0,0.0,0.0,0.0,0.0,0.0,0.0,0.0,0.0,0.0,0.0,0.0,0.0,0.0,0.0,0.0,0.0,0.0,0.0,0.0,0.0,0.0,0.0,0.0,0.0,0.0,0.0,0.0,0.0,0.0,0.0,0.0,0.0,0.0,0.0,0.0,0.0,0.0,0.0,0.0,0.0,0.0,0.0,0.0,0.0,0.0,0.0,0.0,0.0,0.0,0.0,0.0,0.0,0.0,0.0,0.0,0.0,0.0,0.0,0.0,0.0,0.0,0.0,0.0,0.0,0.0,0.0,0.0,0.0,1.6383,1.9367,2.2433,2.4003,2.438,2.361,2.2291,1.9655,1.5535,0.0,0.0,0.0,0.0,0.0,0.0,0.0,0.0,0.0,0.0,0.0,0.0,0.0,0.0,0.0,0.0,0.0,0.0,0.0,0.0,0.0,0.0,0.0,0.0,0.0,0.0,0.0,0.0,0.0,0.0,0.0,0.0,0.0,0.0,0.0,0.0,0.0,0.0,0.9961,1.0564,0.0,0.0,0.0,0.0,0.0,0.0,0.0,0.0,1.3294,0.0,0.0,0.0,0.0,0.0,0.0,0.0,0.0,0.0,0.0,0.0,0.0,0.0,0.0,0.0,0.0,0.0,0.0,0.0,0.0,0.0,0.0,0.0,0.0,0.0,0.0,0.0,0.0,0.0,0.0,0.0,0.0,0.0,0.0,0.0,0.0,0.0,0.0,0.0,0.0,0.0,0.0,0.0,0.0,0.0,0.0,0.0,0.0,0.0,0.0,0.0,0.0,0.0,0.0,0.0,0.0,1.285,1.6599,1.9621,2.1824,2.4197,2.4855,2.364,2.2291,1.9909,1.6382,0.0,0.0,0.0,0.0,0.0,0.0,0.0,0.0,0.0,0.0,0.0,0.0,0.0,0.0,0.0,0.0,0.0,0.0,0.0,0.0,0.0,0.0,0.0,0.0,0.0,0.0,0.0,0.0,0.0,0.0,0.0,0.0,0.0,0.0,0.0,0.0,0.0,0.0,0.0,1.1392,1.2041,0.0,0.0,0.0,0.0,0.0,0.0,0.0,0.0,1.5496,0.0,0.0,0.0,0.0,0.0,0.0,0.0,0.0,0.0,0.0,0.0,0.0,0.0,0.0,0.0,0.0,0.0,0.0,0.0,0.0,0.0,0.0,0.0,0.0,0.0,0.0,0.0,0.0,0.0,0.0,0.0,0.0,0.0,0.0,0.0,0.0,0.0,0.0,0.0,0.0,0.0,0.0,0.0,0.0,0.0,0.0,0.0,0.0,0.0,0.0,0.0,0.0,0.0,0.0,0.0,1.4766,1.7699,2.0333,2.2603,2.3606,2.3635,2.2622,2.1252,1.9048,0.0,0.0,0.0,0.0,0.0,0.0,0.0,0.0,0.0,0.0,0.0,0.0,0.0,0.0,0.0,0.0,0.0,0.0,0.0,0.0,0.0,0.0,0.0,0.0,0.0,0.0,0.0,0.0,0.0,0.0,0.0,0.0,0.0,0.0,0.0,0.0,0.0,0.0,0.0,0.0,1.2693,1.3662,1.4615,0.0,0.0,0.0,0.0,0.0,0.0,1.658,1.6448,0.0,0.0,0.0,0.0,0.0,0.0,0.0,0.0,0.0,0.0,0.0,0.0,0.0,0.0,0.0,0.0,0.0,0.0,0.0,0.0,0.0,0.0,0.0,0.0,0.0,0.0,0.0,0.0,0.0,0.0,0.0,0.0,0.0,0.0,0.0,0.0,0.0,0.0,0.0,0.0,0.0,0.0,0.0,0.0,0.0,0.0,0.0,0.0,0.0,0.0,0.0,0.0,0.0,0.0,0.0,1.6263,1.8426,2.0651,2.2882,2.2688,2.2169,2.15,2.0083,1.81,0.0,0.0,0.0,0.0,0.0,0.0,0.0,0.0,0.0,0.0,0.0,0.0,0.0,0.0,0.0,0.0,0.0,0.0,0.0,0.0,0.0,0.0,0.0,0.0,0.0,0.0,0.0,0.0,0.0,0.0,0.0,0.0,0.0,0.0,0.0,0.0,0.0,0.0,0.0,0.0,0.0,1.5031,1.5858,1.6255,0.0,0.0,0.0,0.0,1.7343,1.7566,0.0,0.0,0.0,0.0,0.0,0.0,0.0,0.0,0.0,0.0,0.0,0.0,0.0,0.0,0.0,0.0,0.0,0.0,0.0,0.0,0.0,0.0,0.0,0.0,0.0,0.0,0.0,0.0,0.0,0.0,0.0,0.0,0.0,0.0,0.0,0.0,0.0,0.0,0.0,0.0,0.0,0.0,0.0,0.0,0.0,0.0,0.0,0.0,0.0,0.0,0.0,0.0,0.0,0.0,0.0,0.0,1.5093,1.7553,1.9567,2.1052,2.1579,2.15,2.0808,1.9444,1.7685,0.0,0.0,0.0,0.0,0.0,0.0,0.0,0.0,0.0,0.0,0.0,0.0,0.0,0.0,0.0,0.0,0.0,0.0,0.0,0.0,0.0,0.0,0.0,0.0,0.0,0.0,0.0,0.0,0.0,0.0,0.0,0.0,0.0,0.0,0.0,0.0,0.0,0.0,0.0,0.0,0.0,1.5291,1.6439,1.664,1.6695,0.0,0.0,1.8581,1.8581,1.9431,0.0,0.0,0.0,0.0,0.0,0.0,0.0,0.0,0.0,0.0,0.0,0.0,0.0,0.0,0.0,0.0,0.0,0.0,0.0,0.0,0.0,0.0,0.0,0.0,0.0,0.0,0.0,0.0,0.0,0.0,0.0,0.0,0.0,0.0,0.0,0.0,0.0,0.0,0.0,0.0,0.0,0.0,0.0,0.0,0.0,0.0,0.0,0.0,0.0,0.0,0.0,0.0,0.0,0.0,0.0,1.4435,1.6585,1.8766,2.0356,2.1311,2.1352,2.1233,2.0927,1.9181,1.7489,0.0,0.0,0.0,0.0,0.0,0.0,0.0,0.0,0.0,0.0,0.0,0.0,0.0,0.0,0.0,0.0,0.0,0.0,0.0,0.0,0.0,0.0,0.0,0.0,0.0,0.0,0.0,0.0,0.0,0.0,0.0,0.0,0.0,0.0,0.0,0.0,0.0,0.0,0.0,0.0,0.0,0.0,1.7374,1.7735,0.0,0.0,0.0,1.9537,1.8904,0.0,0.0,0.0,0.0,0.0,0.0,0.0,0.0,0.0,0.0,0.0,0.0,0.0,0.0,0.0,0.0,0.0,0.0,0.0,0.0,0.0,0.0,0.0,0.0,0.0,0.0,0.0,0.0,0.0,0.0,0.0,0.0,0.0,0.0,0.0,0.0,0.0,0.0,0.0,0.0,0.0,0.0,0.0,0.0,0.0,0.0,0.0,0.0,0.0,0.0,0.0,0.0,0.0,0.0,0.0,0.0,0.0,1.7658,1.9603,2.0831,2.1324,2.1066,2.0882,2.081,1.923,0.0,0.0,0.0,0.0,0.0,0.0,0.0,0.0,0.0,0.0,0.0,0.0,0.0,0.0,0.0,0.0,0.0,0.0,0.0,0.0,0.0,0.0,0.0,0.0,0.0,0.0,0.0,0.8582,0.0,0.0,0.0,0.0,0.0,0.0,0.0,0.0,0.0,0.0,0.0,0.0,0.0,0.0,1.7304,1.8503,1.8993,1.95,0.0,0.0,2.0423,1.9589,2.0813,2.1208,0.0,0.0,0.0,0.0,0.0,0.0,0.0,0.0,0.0,0.0,0.0,0.0,0.0,0.0,0.0,0.0,0.0,0.0,0.0,0.0,0.0,0.0,0.0,0.0,0.0,0.0,0.0,0.0,0.0,0.0,0.0,0.0,0.0,0.0,0.0,0.0,0.0,0.0,0.0,0.0,0.0,0.0,0.0,0.0,0.0,0.0,0.0,0.0,0.0,0.0,0.0,0.0,0.0,0.0,0.0,1.7061,1.9041,2.0088,2.0118,2.0266,2.0281,2.0161,1.9679,1.8672,0.0,0.0,0.0,0.0,0.0,0.0,0.0,0.0,0.0,0.0,0.0,0.0,0.0,0.0,0.0,0.0,0.0,0.0,0.0,0.0,0.0,0.0,0.0,0.0,0.0,0.0,0.0,0.0,0.0,0.0,0.0,0.0,0.0,0.0,0.0,0.0,0.0,0.0,0.0,0.0,0.0,1.8545,1.9782,2.0202,2.0796,0.0,0.0,2.1304,2.1235,2.2253,2.2307,2.0012,0.0,0.0,0.0,0.0,0.0,0.0,0.0,0.0,0.0,0.0,0.0,0.0,0.0,0.0,0.0,0.0,0.0,0.0,0.0,0.0,0.0,0.0,0.0,0.0,0.0,0.0,0.0,0.0,0.0,0.0,0.0,0.0,0.0,0.0,0.0,0.0,0.0,0.0,0.0,0.0,0.0,0.0,0.0,0.0,0.0,0.0,0.0,0.0,0.0,0.0,0.0,0.0,0.0,1.6314,1.7964,1.9548,2.0436,2.0547,2.0754,2.077,2.0597,2.0091,1.9308,0.0,0.0,0.0,0.0,0.0,0.0,0.0,0.0,0.0,0.0,0.0,0.0,0.0,0.0,0.0,0.0,0.0,0.0,0.0,0.0,0.0,0.0,0.0,0.0,0.0,0.0,0.0,0.0,1.3869,1.4417,1.4806,0.0,0.0,0.0,0.0,0.0,0.0,0.0,0.0,0.0,0.0,1.9301,2.1142,2.1406,0.0,0.0,2.2516,2.2391,2.1532,2.2415,2.2524,2.0518,2.0084,0.0,0.0,0.0,0.0,0.0,0.0,0.0,0.0,0.0,0.0,0.0,0.0,0.0,0.0,0.0,0.0,0.0,0.0,0.0,0.0,0.0,0.0,0.0,0.0,0.0,0.0,0.0,0.0,0.0,0.0,0.0,0.0,0.0,0.0,0.0,0.0,0.0,0.0,0.0,0.0,0.0,0.0,0.0,0.0,0.0,0.0,0.0,0.0,0.0,0.0,0.0,0.0,1.6903,1.8578,2.006,2.0853,2.0958,2.1127,2.1151,2.0991,2.0598,2.0118,0.0,0.0,0.0,0.0,0.0,0.0,0.0,0.0,0.0,0.0,0.0,0.0,0.0,0.0,0.0,0.0,0.0,0.0,0.0,0.0,0.0,0.0,0.0,0.0,0.0,0.0,0.0,0.0,1.4933,1.5283,1.5108,0.0,0.0,0.0,0.0,0.0,0.0,0.0,0.0,0.0,0.0,2.0569,2.2091,2.2255,2.231,2.2601,2.2947,2.2849,2.1829,2.2387,2.2429,2.1008,0.0,0.0,0.0,0.0,0.0,0.0,0.0,0.0,0.0,0.0,0.0,0.0,0.0,0.0,0.0,0.0,0.0,0.0,0.0,0.0,0.0,0.0,0.0,0.0,0.0,0.0,0.0,0.0,0.0,0.0,0.7853,0.0,0.0,0.0,0.0,0.0,0.0,0.0,0.0,0.0,0.0,0.0,0.0,0.0,0.0,0.0,0.0,0.0,0.0,0.0,0.0,0.0,0.0,1.7126,1.8592,2.0372,2.1229,2.1118,2.1229,2.1253,2.1206,2.1253,2.1198,2.1023,0.0,0.0,0.0,0.0,0.0,0.0,0.0,0.0,0.0,0.0,0.0,0.0,0.0,0.0,0.0,0.0,0.0,0.0,0.0,0.0,0.0,0.0,0.0,0.0,0.0,0.0,1.3318,1.5257,1.6317,0.0,0.0,0.0,0.0,0.0,0.0,0.0,0.0,0.0,0.0,2.091,2.2539,2.2584,2.2658,2.2864,2.3315,2.2905,2.2496,2.233,2.2319,2.2101,0.0,0.0,0.0,0.0,0.0,0.0,0.0,0.0,0.0,0.0,0.0,0.0,0.0,0.0,0.0,0.0,0.0,0.0,0.0,0.0,0.0,0.0,0.0,0.0,0.0,0.0,0.0,1.2448,1.1545,0.0,0.0,0.0,0.0,0.0,0.0,0.0,0.0,0.0,0.0,0.0,1.6519,1.5972,0.0,0.0,0.0,0.0,0.0,0.0,0.0,0.0,0.0,0.0,0.0,0.0,1.7339,1.9111,2.0772,2.1652,2.1694,2.1733,2.1676,2.1464,2.1481,2.1395,2.1183,0.0,0.0,0.0,0.0,0.0,0.0,0.0,0.0,0.0,0.0,0.0,0.0,0.0,0.0,0.0,0.0,0.0,0.0,0.0,0.0,0.0,0.0,0.0,0.0,0.0,1.5128,0.0,0.0,0.0,0.0,0.0,0.0,0.0,0.0,0.0,0.0,0.0,2.0169,2.1398,2.2003,2.2595,2.3293,2.353,2.3753,0.0,0.0,0.0,0.0,0.0,0.0,0.0,0.0,0.0,0.0,0.0,0.0,0.0,0.0,2.025,1.7986,1.7668,1.7739,1.7618,0.0,0.0,0.0,0.0,0.0,0.0,0.0,0.0,0.0,0.0,0.0,0.0,0.0,0.0,0.0,0.0,1.4373,0.0,0.0,0.0,0.0,0.0,0.0,0.0,0.0,1.6877,1.8143,1.8944,1.874,1.8509,0.0,1.7282,1.6141,0.0,0.0,0.0,0.0,0.0,0.0,0.0,0.0,1.8334,2.0127,2.1624,2.241,2.2464,2.2185,2.1911,2.1762,2.2134,2.2246,2.2078,2.1915,2.0998,0.0,0.0,0.0,0.0,0.0,0.0,0.0,0.0,0.0,0.0,0.0,0.0,0.0,0.0,0.0,0.0,0.0,0.0,0.0,0.0,0.0,0.0,0.0,1.6448,0.0,0.0,0.0,0.0,0.0,0.0,0.0,0.0,0.0,1.9093,2.0331,2.1657,2.2886,2.3298,2.3496,2.3551,0.0,0.0,0.0,0.0,0.0,0.0,0.0,2.3436,2.3629,2.3545,2.3737,2.4512,2.447,2.4166,2.3689,0.0,0.0,2.0107,1.9979,2.0324,2.003,2.0031,2.0053,2.0003,1.9608,1.9396,0.0,0.0,0.0,0.0,0.0,0.0,0.0,0.0,1.8242,1.8068,0.0,1.7666,0.0,0.0,0.0,0.0,0.0,1.6134,0.0,0.0,2.0777,2.1768,2.1381,2.1255,2.1248,2.1288,1.9652,1.9336,2.0109,1.738,0.0,0.0,0.0,0.0,0.0,0.0,2.0034,2.1619,2.2806,2.3434,2.3402,2.2555,2.2097,2.2116,2.3159,2.3727,2.3735,2.3579,2.3067,2.2137,1.9277,0.0,0.0,0.0,0.0,0.0,0.0,0.0,0.0,0.0,0.0,0.0,0.0,0.0,0.0,0.0,0.0,0.0,0.0,0.0,0.0,1.7004,0.0,0.0,0.0,0.0,0.0,0.0,0.0,0.0,0.0,0.0,1.974,2.1633,2.3126,2.314,0.0,0.0,0.0,0.0,2.4519,2.3247,2.3026,2.3211,2.3749,2.4276,2.483,2.5425,0.0,0.0,2.6464,2.6007,2.5661,2.5605,2.609,2.5425,2.216,2.2412,2.2817,2.2192,2.2459,2.2696,2.2587,2.2506,2.2465,2.2279,0.0,0.0,0.0,0.0,2.039,2.1115,2.1849,2.2088,2.18,2.1133,2.0881,0.0,0.0,0.0,0.0,0.0,0.0,1.9567,2.0547,2.1607,2.2577,2.3481,2.3272,2.3312,2.3519,2.227,2.2271,2.3351,2.1609,1.9868,1.8261,0.0,0.0,0.0,0.0,2.0951,2.2609,2.3678,2.4186,2.4178,2.3928,2.3734,2.3644,2.434,2.4695,2.4687,2.5154,2.4694,2.3155,2.177,0.0,0.0,0.0,0.0,0.0,0.0,0.0,0.0,0.0,0.0,0.0,0.0,0.0,0.0,0.0,0.0,0.0,0.0,0.0,1.8692,1.9244,1.9142,0.0,0.0,0.0,0.0,0.0,0.0,0.0,0.0,0.0,2.3827,2.3814,2.3811,0.0,0.0,2.443,2.3881,2.45,2.5008,2.5039,0.0,0.0,0.0,2.5686,2.5742,2.633,2.7323,2.8051,2.8051,2.8232,2.8244,2.7751,2.8139,2.7883,2.6114,2.5808,2.5944,2.5778,2.5785,2.5792,2.5735,2.528,2.509,2.6269,2.4947,2.2885,2.2507,2.333,2.3852,2.4701,2.5737,2.5634,2.5269,2.47,2.4327,2.3064,2.1126,2.0217,0.0,0.0,0.0,2.24,2.3745,2.369,2.3976,2.4581,2.4989,2.5188,2.5155,2.4678,2.5042,2.6175,2.4362,2.3014,2.1991,0.0,0.0,2.1096,2.1648,2.2612,2.3967,2.4609,2.494,2.494,2.4643,2.4452,2.4385,2.4887,2.5171,2.5188,2.5843,2.5694,2.4604,2.3461,2.1899,0.0,0.0,0.0,0.0,0.0,0.0,0.0,0.0,0.0,0.0,0.0,1.4845,1.4949,0.0,0.0,0.0,1.948,2.0312,2.1197,2.107,0.0,0.0,0.0,0.0,0.0,0.0,0.0,2.277,2.4209,2.5433,2.6071,2.5823,2.5517,2.5386,2.548,2.5386,2.4894,0.0,2.616,2.6245,2.6259,2.6483,2.7088,2.7102,2.7214,2.7803,2.8521,2.9011,2.9069,2.9364,2.9415,2.9117,2.924,2.9209,2.8363,2.8208,2.8079,2.7765,2.799,2.8161,2.7954,2.7646,2.7658,2.9202,2.9788,2.6297,2.5485,2.652,2.6669,2.7846,2.9609,2.8772,2.8344,2.8261,2.7739,2.6243,2.4056,2.2905,0.0,2.5447,2.4863,2.5555,2.727,2.6567,2.5795,2.5116,2.6425,2.6823,2.6415,2.6775,2.7472,2.8289,2.6079,2.5442,2.635,2.4455,2.3358,2.3158,2.3898,2.4753,2.5673,2.5814,2.5888,2.5854,2.5143,2.4778,2.4788,2.5193,2.5422,2.543,2.5938,2.6241,2.6165,2.4687,2.3719,2.3398,0.0,0.0,0.0,0.0,0.0,0.0,0.0,0.0,0.0,0.0,0.0,0.0,0.0,0.0,0.0,2.2842,0.0,2.3929,2.2776,0.0,0.0,0.0,2.2163,2.4048,2.4394,2.4936,2.5973,0.0,0.0,2.7093,0.0,2.7882,2.7622,2.7755,2.7455,2.6285,2.7145,2.7694,2.7131,2.7032,2.7256,2.7903,2.8367,2.8816,2.9336,2.9602,2.9574,2.956,2.9588,2.9602,2.9559,2.9602,2.9573,2.9602,2.9487,2.9341,2.8461,2.9147,2.9725,2.917,2.9343,2.9518,3.0463,3.172,2.9988,2.928,2.9311,2.9364,2.9874,3.0604,3.0162,2.9969,2.9984,2.9594,2.9007,2.8276,2.7133,2.7058,2.7782,2.7381,2.7229,2.7303,2.7411,2.7279,2.6959,2.7293,2.7724,2.8134,2.7688,2.7937,2.885,2.7684,2.7496,2.8275,2.783,2.6917,2.5664,2.5824,2.6664,2.8144,2.8171,2.8188,2.8172,2.741,2.7012,2.6995,2.6607,2.6387,2.6387,2.6489,2.6521,2.6357,2.6538,2.5927,2.4377,2.2311,0.0,0.0,0.0,0.0,0.0,0.0,0.0,0.0,0.0,1.7466,1.7733,0.0,2.1283,0.0,2.4453,2.5921,2.6129,2.5827,0.0,0.0,2.4812,2.5077,2.5585,2.7115,2.8007,2.7684,2.8578,2.9312,2.9489,2.9427,2.9578,3.0017,2.9174,2.8381,2.8092,2.8483,2.8823,2.8665,2.8756,2.8984,2.9112,2.9279,2.9434,2.9588,2.9602,2.9602,2.9602,2.9602,2.9602,2.9602,2.9602,2.9602,2.9602,2.9602,2.9529,2.9311,2.9427,2.9501,2.9348,2.9335,2.9403,3.1566,3.2435,3.169,3.1184,3.0868,3.0886,3.1144,3.1492,3.0951,3.0556,3.0244,2.9499,2.9212,2.9238,2.8285,2.8303,2.9071,2.8662,2.824,2.7843,2.8062,2.7912,2.7471,2.8125,2.8723,2.9238,2.9349,2.9673,3.015,2.9278,2.9067,2.9482,2.9162,2.8711,2.8131,2.7768,2.8075,2.8976,2.8993,2.8993,2.8976,2.8578,2.8019,2.7334,2.6607,2.5896,2.5253,2.4882,2.4795,2.5002,2.5347,2.5128,2.4315,2.2719,2.1007,0.0,0.0,0.0,0.0,0.0,0.0,0.0,0.0,0.0,0.0,0.0,2.4046,2.4648,2.634,2.7309,2.7067,2.7037,2.699,2.6962,2.7323,2.7805,2.8422,2.9596,3.0172,2.9717,3.0369,3.0814,3.0829,3.0967,3.1087,3.1205,3.0747,3.0176,2.9668,2.971,2.9822,2.9822,2.9944,3.0051,3.0051,2.9913,2.9834,2.9819,2.968,2.9602,2.9602,2.9602,2.9602,2.9602,2.9602,2.9602,2.9602,2.9602,2.9602,2.9587,2.9554,2.9507,2.9477,2.9608,2.9794,3.2499,3.2633,3.2303,3.1936,3.1622,3.151,3.1757,3.2165,3.1483,3.0835,3.0146,2.887,2.8594,2.9047,2.8175,2.8599,2.9919,2.9365,2.8934,2.8726,2.8726,2.8323,2.7631,2.9038,2.9797,3.0035,3.1084,3.1626,3.1628,3.0683,3.0234,3.0217,2.9647,2.9647,3.0211,2.9639,2.93,2.9299,2.9196,2.9136,2.9145,2.895,2.8155,2.675,2.5998,2.4966,2.362,2.2852,2.2774,2.3383,2.3286,2.3578,2.4256,2.2688,2.144,0.0,2.0245,0.0,0.0,0.0,0.0,0.0,0.0,0.0,0.0,2.5491,2.6852,2.7502,2.8146,2.8296,2.7804,2.7746,2.8258,2.9506,2.9668,3.0143,3.1332,3.1496,3.154,3.1615,3.163,3.166,3.1929,3.2362,3.2407,3.2228,3.2437,3.2332,3.1452,3.0906,3.0701,3.092,3.0846,3.0783,3.0972,3.0657,3.0358,3.0385,3.0124,2.9807,2.9865,2.9704,2.9602,2.9602,2.9602,2.9602,2.9602,2.9602,2.9602,2.9602,2.9587,2.9587,2.9629,2.9906,3.0191,3.3064,3.3555,3.2825,3.2199,3.163,3.1045,3.1365,3.2267,3.2156,3.2063,3.1835,3.0517,3.042,3.1085,2.9916,2.9928,3.0898,3.0258,2.9929,2.9882,2.9929,2.9794,2.9538,3.0437,3.0925,3.1036,3.1398,3.172,3.1922,3.1308,3.0987,3.0997,3.1067,3.1096,3.1065,0.0,0.0,0.0,3.024,2.9879,2.9845,2.8652,2.7596,2.6733,2.5981,0.0,2.4355,2.4084,2.4045,2.4206,2.4667,0.0,0.0,0.0,0.0,0.0,0.0,0.0,0.0,0.0,0.0,0.0,2.5906,2.5579,2.5061,2.6251,2.7608,2.887,2.9135,2.9624,3.0574,3.0692,3.0796,3.1049,3.1093,3.1213,3.1466,3.1511,3.1705,3.2243,3.2318,3.2721,3.3664,3.3605,3.3694,3.4381,3.4367,3.4276,3.4477,3.2461,3.1631,3.2896,3.2329,3.1895,3.2794,3.2036,3.1537,3.1809,3.1326,3.088,3.0745,3.0128,2.9631,2.9659,2.9602,2.9645,2.9617,2.9602,2.9631,2.9602,2.9602,2.9602,2.9602,2.9687,2.9757,3.4251,0.0,3.4039,3.3331,0.0,3.1635,3.1785,3.2517,3.1177,3.0633,3.0639,3.0156,3.0453,3.1205,3.035,3.0418,3.1216,3.0517,3.0033,2.9763,2.9761,2.9526,2.9152,3.0307,3.0871,3.0904,3.1133,3.1496,3.1907,3.0826,3.0579,3.1183,3.1305,3.1424,3.1548,3.1722,3.1618,3.1244,3.0847,3.0649,3.0615,2.9879,2.8958,2.7867,0.0,0.0,0.0,0.0,0.0,0.0,0.0,0.0,0.0,0.0,0.0,2.7546,2.7074,2.6909,2.7232,2.8178,2.8964,2.9481,2.9759,2.9327,2.7978,2.8765,2.9775,3.0797,3.0633,3.0722,3.1406,3.1496,3.1616,3.1929,3.1989,3.2108,3.2422,3.2482,3.2632,3.2946,3.329,3.3769,3.4429,3.4862,3.4891,3.5056,3.5326,3.5489,3.5383,3.424,3.3698,3.4575,3.4137,3.3626,3.3832,3.3364,3.2697,3.2694,3.2208,3.1781,3.1559,3.1126,3.074,3.0594,3.053,3.0459,3.0122,3.005,2.9952,2.9687,2.9602,2.9602,2.9602,2.9602,2.9602,3.5413,3.5108,3.5009,3.4304,3.3152,3.2393,3.2318,3.2554,0.0,0.0,0.0,2.951,2.997,3.0672,3.0322,3.0485,3.1045,3.0321,2.9751,2.9257,2.9104,2.8795,2.8499,2.9986,3.0789,3.0934,3.1244,3.162,3.2013,3.0516,3.0196,3.0999,3.1263,3.1557,3.188,3.1941,3.172,3.1213,3.1092,3.1024,3.1014,3.0869,3.0168,2.8814,2.8154,2.7164,2.5837,2.5156,2.5073,2.5655,2.6227,2.6872,2.77,2.8444,2.8903,2.9058,2.9688,3.0132,3.0272,3.1558,3.2478,3.2727,3.3193,3.2709,3.0983,3.1267,3.1807,3.2406,3.1853,3.1526,3.166,3.1675,3.1944,3.2602,3.2677,3.2916,3.3395,3.3499,3.3484,3.3694,3.4248,3.4727,3.4922,3.5895,3.6344,3.5595,3.6239,3.6716,3.6282,3.5982,3.5651,3.5636,3.5333,3.5277,3.5218,3.443,3.4002,3.3779,3.3228,3.2675,3.2402,3.2151,3.1899,3.1554,3.1551,3.1192,3.0654,3.0441,3.0273,2.9729,2.9602,2.9602,2.9602,2.9602,2.9602,3.583,3.436,3.4404,3.3686,3.2528,3.2397,3.2197,3.1905,3.1292,3.1017,3.0999,3.02,3.0154,3.0693,3.0456,3.0334,3.0226,2.9576,2.921,0.0,2.8582,2.8663,2.9308,3.0814,3.1893,3.2555,3.2997,3.2949,3.2422,3.1856,3.1268,3.0761,3.1809,3.2388,3.2222,3.1975,3.1615,3.121,3.0617,3.0302,3.0251,2.9644,2.8899,2.8035,2.7908,2.741,2.659,2.6413,2.6329,2.6446,2.6479,2.7151,2.8541,2.94,3.03,3.1447,3.2693,3.3362,3.3223,3.3987,3.4573,3.4868,3.5548,3.4904,3.241,3.1892,3.19,3.2189,3.1875,3.175,3.2258,3.2377,3.2632,3.326,3.3365,3.341,3.3559,3.3574,3.3799,3.4308,3.4951,3.5579,3.6074,3.6791,3.7404,3.7706,3.7646,3.8167,3.8302,3.7851,3.6985,3.6417,3.5848,3.6207,3.6941,3.5817,3.508,3.5874,3.4672,3.378,3.3652,3.2867,3.2219,3.1976,3.186,3.1396,3.0724,3.0484,3.0331,2.9871,2.9671,2.9659,2.9615,2.9602,2.9617,3.6198,3.5015,3.495,3.46,3.4002,3.3681,3.2864,3.1855,3.198,3.1813,3.1463,3.172,3.1666,3.1423,3.2002,3.1975,3.1339,3.0253,3.0019,3.0356,2.934,2.9494,3.0672,3.1821,3.2543,3.2884,3.295,3.2824,3.2428,3.1527,3.1105,3.1314,3.2234,3.2669,3.2613,3.2283,3.1939,3.1538,3.1016,3.0722,3.0683,3.0371,3.0016,2.9659,2.9642,2.9499,2.917,2.9116,2.9107,2.9098,2.9458,3.015,3.1233,3.2036,3.3096,3.4492,3.5206,3.563,3.5802,3.6123,3.6306,3.6305,3.6609,3.627,3.4843,3.3884,3.3549,3.3856,3.3146,3.2796,3.3335,3.3186,3.3305,3.3963,3.4039,3.4203,3.4517,3.4577,3.4711,3.504,3.5624,3.6164,3.6449,3.7347,3.7838,3.7913,3.7868,3.812,3.8763,3.8377,3.7871,3.7601,3.7569,3.7582,3.7838,3.6956,3.6314,3.6523,3.5569,3.4809,3.4558,3.3842,3.3446,3.3083,3.2997,3.2651,3.1742,3.1693,3.13,3.0305,3.0092,2.9994,2.9727,2.9602,2.9729,3.6655,3.5651,3.5531,3.5441,3.5316,3.4799,3.3757,3.2486,3.2804,3.258,3.2124,3.2928,3.277,3.2051,3.3003,3.2925,3.1963,3.0814,3.0792,3.1459,3.0453,3.0643,3.1982,3.2946,3.3346,3.3205,3.3124,3.2943,3.2476,3.1368,3.1255,3.2117,3.2495,3.2695,3.2744,3.247,3.2127,3.1755,3.1378,3.119,3.119,3.119,3.119,3.119,3.1352,3.1437,3.1454,3.1454,3.1522,3.1708,3.208,3.2638,3.3362,3.4083,3.5126,3.6361,3.6711,3.704,3.7539,3.7762,3.7743,3.7557,3.7694,3.7689,3.7404,3.6357,3.5515,3.5291,3.422,3.3728,3.4091,3.3939,3.3993,3.4622,3.4727,3.4891,3.5385,3.5489,3.5489,3.5564,3.6209,3.6656,3.6778,3.7734,3.8422,3.8063,3.7851,3.8093,3.8512,3.8616,3.8604,3.8497,3.8751,3.8539,3.7719,3.712,3.6776,3.6479,3.5907,3.5373,3.5055,3.4955,3.4706,3.4131,3.4172,3.3802,3.2916,3.2715,3.2193,3.0977,3.0509,3.0289,2.9713,3.0122,3.0191,3.725,3.5868,3.5579,3.54,3.5213,3.4954,3.4581,3.4215,3.4102,3.3876,3.3483,3.2948,3.2445,3.1956,3.2105,3.1709,3.0767,3.0396,3.0861,3.1722,3.1584,3.1964,3.291,3.4276,3.4642,3.4133,3.4573,3.4101,3.288,3.2664,3.2608,3.2619,3.2564,3.2472,3.236,3.2162,3.1913,3.1617,3.1339,3.119,3.119,3.119,3.119,3.119,3.187,3.2209,3.2242,3.2192,3.2503,3.3074,3.2655,3.2672,3.3413,3.4134,3.4878,3.5763,3.6445,3.711,3.7836,3.8495,3.8825,3.8876,3.9387,3.9695,3.9661,3.8934,3.7537,3.582,3.4416,3.4167,3.4402,3.4461,3.4699,3.5237,3.534,3.5444,3.5474,3.5489,3.5489,3.5504,3.6477,3.7105,3.6793,3.8033,3.9122,3.9032,3.8973,3.9002,3.9152,3.9197,3.9017,3.8482,3.8033,3.7881,3.7868,3.6746,3.6252,3.6359,3.5938,3.553,3.5328,3.5116,3.482,3.467,3.4585,3.4201,3.3611,3.3132,3.2525,3.1557,3.0865,3.0331,2.998,3.0724,3.1356,3.7633,3.6509,3.5803,3.5394,3.5182,3.4992,3.4753,3.4473,3.4292,3.4037,3.3785,3.3525,3.3131,3.2639,3.3142,3.275,3.1668,3.1237,3.1544,3.2351,3.2402,3.3053,3.4294,3.5382,3.5498,3.482,3.5062,3.4401,3.3132,3.2908,3.2866,3.2802,3.2607,3.2481,3.2395,3.2153,3.1941,3.1858,3.1991,3.2093,3.2073,3.1916,3.2063,3.2476,3.2797,3.318,3.3535,3.3603,3.3931,3.4613,3.4393,3.4607,3.5379,3.5701,3.6366,3.7516,3.8323,3.8894,3.9186,3.9491,3.966,3.9656,3.9931,4.0113,4.0087,3.9467,3.8404,3.7029,3.6254,3.5935,3.5783,3.5611,3.5543,3.5608,3.5554,3.5489,3.5489,3.5489,3.5489,3.5564,3.6297,3.6806,3.6761,3.7838,3.8901,3.9272,3.9406,3.9406,3.9406,3.9406,3.9287,3.8945,3.8108,3.7552,3.7689,3.6943,3.6344,3.6299,3.5938,3.5519,3.5457,3.5407,3.5197,3.4953,3.4966,3.4725,3.4157,3.3895,3.3422,3.2319,3.1098,3.0401,3.0163,3.0738,3.1146,3.7618,3.6957,3.5947,3.5394,3.5197,3.505,3.4803,3.4502,3.4343,3.4099,3.3834,3.3901,3.3707,3.34,3.3974,3.3841,3.3168,3.239,3.2493,3.3238,3.3261,3.383,3.4927,3.5926,3.5757,3.4793,3.4989,3.4401,3.3053,3.2812,3.2787,3.2763,3.259,3.2456,3.2353,3.21,3.2072,3.2206,3.2553,3.2882,3.3133,3.308,3.3256,3.367,3.3903,3.4353,3.5092,3.5143,3.547,3.6186,3.605,3.6282,3.7026,3.7105,3.768,3.8882,3.9694,4.0113,4.0113,4.0113,4.0113,4.0113,4.0113,4.0113,4.0033,3.9696,3.9095,3.8288,3.7939,3.7485,3.6738,3.6305,3.6007,3.5928,3.5718,3.5489,3.5489,3.5489,3.5489,3.5549,3.6118,3.6673,3.7075,3.8033,3.8945,3.9316,3.9406,3.9406,3.9406,3.9406,3.9346,3.9107,3.809,3.7582,3.7554,3.6731,3.6417,3.6344,3.5938,3.5504,3.5489,3.5488,3.5472,3.523,3.5407,3.5328,3.4813,3.4597,3.3963,3.2932,3.1837,3.0935,3.0809,3.1033,3.1567,3.7053,3.694,3.5966,3.5397,3.5186,3.517,3.4926,3.4505,3.4486,3.4225,3.3848,3.3827,3.3766,3.3707,3.3917,3.4296,3.4669,3.3589,3.3558,3.433,3.4183,3.4079,3.425,3.565,3.5248,3.3534,3.4517,3.4365,3.2938,3.2683,3.2515,3.255,3.2586,3.2371,3.2213,3.2195,3.2275,3.2794,3.297,3.3395,3.4347,3.4746,3.4772,3.4724,3.5137,3.5831,3.6609,3.6711,3.7054,3.7758,3.7207,3.7139,3.7787,3.7889,3.8261,3.9017,3.9694,4.0113,4.0113,4.0113,4.0113,4.0113,4.0113,4.0113,4.0113,4.0037,3.9666,3.9149,3.8786,3.8141,3.6889,3.6228,3.6071,3.6415,3.591,3.5554,3.5489,3.5489,3.5489,3.5609,3.6148,3.7015,3.8108,3.8898,3.9242,3.9391,3.9406,3.9406,3.9406,3.9406,3.9167,3.8629,3.8018,3.7629,3.8035,3.6836,3.6073,3.6133,3.6014,3.5504,3.5489,3.5489,3.5472,3.5472,3.5488,3.5439,3.5325,3.4764,3.3828,3.3016,3.252,3.1904,3.1483,3.2451,3.2803,3.7132,3.6041,3.5663,3.5374,3.5194,3.5186,3.5008,3.4734,3.4585,3.4348,3.4068,3.3984,3.4209,3.4711,3.4258,3.4108,3.4117,3.373,3.3672,3.3931,3.4707,3.4768,3.4302,3.5667,3.5471,3.399,3.4214,3.3963,3.3017,3.2778,3.2905,3.3168,3.3195,3.3275,3.3424,3.3482,3.3782,3.4384,3.474,3.5332,3.6132,3.6633,3.6989,3.7308,3.6699,3.6953,3.8171,3.8205,3.8543,3.9271,3.9051,3.9034,3.9254,3.9322,3.9423,3.9694,3.996,4.0113,4.0113,4.0113,4.0113,4.0113,4.0113,4.0113,4.0113,4.007,3.9782,3.9212,3.9068,3.853,3.7659,3.6798,3.6446,3.6615,3.6102,3.5588,3.5537,3.5489,3.5489,3.5654,3.6402,3.7584,3.8616,3.9242,3.9391,3.9406,3.9406,3.9406,3.9406,3.9406,3.9272,3.8913,3.8135,3.7629,3.8287,3.6746,3.5684,3.6029,3.6029,3.5639,3.5489,3.5489,3.5488,3.5488,3.5489,3.5326,3.5162,3.4539,3.3633,3.2948,3.2497,3.2469,3.2131,3.2718,3.2929,3.714,3.6003,3.5623,3.5571,3.5664,3.5623,3.5485,3.5291,3.5305,3.5036,3.4618,3.4405,3.455,3.4781,3.4408,3.4284,3.4215,3.401,3.3757,3.3665,3.4519,3.454,3.4143,3.5094,3.4963,3.3865,3.3705,3.3534,3.3304,3.3168,3.3477,3.4084,3.3935,3.4122,3.4561,3.4584,3.4935,3.5763,3.6273,3.677,3.7371,3.7586,3.8102,3.8674,3.7799,3.7867,3.9288,3.9356,3.9576,4.0028,4.0113,4.0113,4.0096,4.0113,4.0113,4.0113,4.0096,4.0113,4.0113,4.0113,4.0113,4.0113,4.0113,4.0113,4.0113,4.0113,3.9825,3.9424,3.9172,3.8971,3.8569,3.7618,3.6921,3.6814,3.6196,3.5669,3.5521,3.5489,3.5609,3.5938,3.6731,3.7838,3.8841,3.9227,3.9376,3.9406,3.9406,3.9406,3.9406,3.9406,3.9272,3.908,3.8329,3.7883,3.7883,3.6746,3.5968,3.6209,3.597,3.5624,3.5489,3.5489,3.5489,3.5489,3.5375,3.518,3.4785,3.4216,3.3542,3.2822,3.276,3.2831,3.2704,3.2704,3.2929,3.708,3.679,3.5931,3.6035,3.6515,3.6429,3.6304,3.6145,3.657,3.6167,3.5473,3.5164,3.484,3.4317,3.4469,3.481,3.533,3.4593,3.4172,3.4222,3.3958,3.3701,3.3561,3.4264,3.4169,3.3302,3.3061,3.3427,3.4063,3.3957,3.4287,3.4924,3.4751,3.492,3.5412,3.5297,3.5694,3.6638,3.7137,3.749,3.779,3.7643,3.795,3.8805,3.8261,3.8531,3.9931,4.0011,4.0015,4.0096,4.0113,4.0113,4.0113,4.0113,4.0113,4.0113,4.0113,4.0113,4.0113,4.0113,4.0113,4.0113,4.0113,4.0113,4.0113,4.0113,4.0058,3.9914,3.9523,3.9339,3.9536,3.8381,3.7282,3.6906,3.6259,3.5702,3.5538,3.5488,3.5727,3.6342,3.7015,3.7644,3.8332,3.902,3.9376,3.9406,3.9406,3.9406,3.9406,3.9406,3.9107,3.8706,3.8347,3.8123,3.7524,3.6911,3.6611,3.6359,3.5863,3.5489,3.5489,3.5489,3.5489,3.5473,3.5195,3.4983,3.4633,3.4094,3.3698,3.3156,3.322,3.3154,3.3097,3.3041,3.3125,3.7779,3.7751,3.7369,3.6997,3.6707,3.6563,3.6447,3.6376,3.6414,3.6427,3.6438,3.6265,3.5932,3.5655,3.5639,3.5917,3.6285,3.5429,3.4983,3.5125,3.5682,3.5256,3.4506,3.5167,3.5257,3.4597,3.449,3.4588,3.4883,3.5269,3.5643,3.5738,3.6271,3.6416,3.6239,3.6645,3.7238,3.7838,3.8249,3.8747,3.9283,3.8742,3.864,3.8911,3.8768,3.892,3.9322,3.9812,4.0096,4.0113,4.0113,4.0113,4.0113,4.0113,4.0113,4.0113,4.0113,4.0113,4.0113,4.0113,4.013,4.0113,4.0113,4.0113,4.0113,4.0113,4.0113,4.0045,3.9579,3.9312,3.9229,3.8465,3.771,3.7532,3.6569,3.5798,3.5569,3.5489,3.5835,3.6402,3.703,3.7659,3.8317,3.8987,3.9391,3.9406,3.9406,3.9406,3.9406,3.9406,3.9376,3.911,3.8736,3.8182,3.7524,3.6941,3.6552,3.6193,3.5729,3.5489,3.5489,3.5504,3.5504,3.5326,3.5049,3.4733,3.4363,3.3971,3.3556,3.3382,3.3269,3.3252,3.3294,3.3294,3.3294,3.8355,3.865,3.8199,3.7896,3.7642,3.7491,3.7421,3.7448,3.7504,3.7564,3.7589,3.7281,3.6874,3.6519,3.6405,3.6641,3.6971,3.6529,3.6358,3.6328,3.6329,3.5995,3.5189,3.5603,3.573,3.5302,3.5177,3.5373,3.5659,3.6123,3.6452,3.6654,3.7143,3.7288,3.7015,3.7323,3.7746,3.819,3.8448,3.8819,3.9034,3.856,3.8442,3.8853,3.8734,3.8899,3.9339,3.9876,4.0113,4.0113,4.0113,4.0113,4.0113,4.0113,4.0113,4.0113,4.0113,4.0113,4.013,4.0371,4.0354,4.0214,4.0354,4.0354,4.0185,4.0113,4.0113,4.002,3.9773,3.95,3.9329,3.8703,3.8112,3.7648,3.6784,3.602,3.5619,3.5489,3.5953,3.6626,3.7178,3.7823,3.8616,3.9047,3.9406,3.9406,3.9406,3.9406,3.9406,3.9406,3.9391,3.9346,3.9107,3.8404,3.7552,3.6985,3.6492,3.6028,3.5549,3.5489,3.5489,3.5488,3.5488,3.5131,3.485,3.4484,3.4111,3.3712,3.3312,3.3294,3.3294,3.3294,3.3294,3.3294,3.3294,3.8815,3.9489,3.8579,3.8618,3.91,3.8937,3.8801,3.8979,3.9396,3.9228,3.8699,3.8228,3.763,3.6989,3.6918,3.7188,3.7657,3.7662,3.7765,3.7502,3.6773,3.6024,3.6272,3.6007,3.5799,3.556,3.5498,3.5819,3.6435,3.6684,3.6872,3.7406,3.7397,3.7325,3.7505,3.7402,3.762,3.7811,3.8011,3.8185,3.8024,3.7291,3.7444,3.8662,3.8193,3.8362,3.9288,3.9728,3.9999,4.0096,4.0113,4.0113,4.0113,4.0113,4.0113,4.0113,4.0113,4.0113,4.0248,4.0726,4.0781,4.0218,4.0624,4.087,4.0185,4.0024,3.9982,3.9956,3.9863,3.9786,3.953,3.8966,3.8254,3.7473,3.6693,3.6068,3.5603,3.5489,3.5998,3.6926,3.7387,3.7836,3.9005,3.9272,3.9391,3.9406,3.9406,3.9406,3.9406,3.9391,3.9361,3.9257,3.9092,3.8554,3.7656,3.7283,3.6791,3.6193,3.5684,3.5503,3.5424,3.5423,3.5343,3.4999,3.4601,3.423,3.3905,3.3556,3.3329,3.3294,3.3294,3.3294,3.3294,3.3294,3.3294,4.0117,4.0424,4.0011,3.9629,3.9313,3.9097,3.9011,3.9026,3.9185,3.9436,3.9421,3.9243,3.8794,3.8451,3.8198,3.8313,3.8408,3.8018,3.8194,3.8603,3.7895,3.741,3.7465,3.7368,3.7136,3.6925,3.68,3.7086,3.7318,3.7719,3.788,3.7621,3.8001,3.7882,3.7466,3.8181,3.823,3.7706,3.8573,3.8557,3.7794,3.7161,3.6965,3.7241,3.7224,3.7342,3.7811,3.873,3.9559,4.0062,4.0113,4.0113,4.0113,4.0113,4.0113,4.0113,4.0113,4.0113,4.0235,4.0815,4.0832,4.0257,4.0663,4.0596,3.9891,3.9807,3.9687,3.947,3.9259,3.9235,3.9195,3.8606,3.7839,3.7086,3.6382,3.5793,3.5569,3.5519,3.5848,3.6596,3.7135,3.7823,3.8586,3.9137,3.9391,3.9406,3.9406,3.9406,3.9406,3.9391,3.9361,3.905,3.8796,3.8377,3.7896,3.7552,3.7073,3.6447,3.5937,3.5485,3.5373,3.5228,3.5115,3.4885,3.4382,3.396,3.3785,3.3539,3.3434,3.3294,3.3294,3.3294,3.3294,3.3294,3.3294,4.0609,4.0726,4.0596,4.026,3.9806,3.9657,3.9568,3.9546,3.9537,3.9733,3.9965,3.9779,3.9587,3.9402,3.9151,3.908,3.9068,3.8542,3.8632,3.899,3.8682,3.839,3.8217,3.811,3.7872,3.7631,3.7613,3.7577,3.7621,3.8085,3.7978,3.7746,3.8058,3.7856,3.7222,3.7705,3.7784,3.7067,3.7809,3.7892,3.697,3.6868,3.6851,3.6801,3.6829,3.6998,3.776,3.8865,3.9677,4.0015,4.0113,4.0113,4.0113,4.0113,4.0113,4.0113,4.0113,4.0113,4.0316,4.1031,4.1067,4.0403,4.0674,4.0621,3.9945,3.9596,3.9395,3.9435,3.9158,3.902,3.8841,3.8112,3.7385,3.6922,3.6313,3.5806,3.5564,3.5489,3.5953,3.6626,3.721,3.7776,3.8646,3.9167,3.9346,3.9406,3.9406,3.9406,3.9406,3.9391,3.9302,3.9005,3.8853,3.8596,3.8267,3.7908,3.7187,3.6544,3.6069,3.5623,3.5246,3.5038,3.4781,3.4532,3.4094,3.3753,3.3594,3.3469,3.3382,3.3294,3.3294,3.3294,3.3294,3.3294,3.3294,4.0637,4.0825,4.0682,4.0598,4.0589,4.0443,4.0217,4.0258,4.0144,4.0196,4.0196,3.9996,3.9818,3.9892,3.9526,3.9464,3.9471,3.9271,3.9416,3.9509,3.9335,3.9076,3.903,3.8496,3.8168,3.7927,3.7774,3.7684,3.7666,3.7657,3.7648,3.7631,3.7657,3.7493,3.7303,3.7171,3.6685,3.6546,3.6998,3.6921,3.6327,3.6446,3.6656,3.6769,3.6888,3.7565,3.8601,3.952,3.9973,4.0159,4.0121,4.0096,4.0113,4.0113,4.0113,4.0113,4.0113,4.0146,4.0358,4.133,4.1465,4.0423,4.099,4.1097,3.9824,3.9319,3.9288,3.9568,3.9418,3.9218,3.8863,3.7853,3.7226,3.6954,3.6619,3.6177,3.5805,3.5654,3.6148,3.7193,3.7417,3.8138,3.8823,3.9361,3.9406,3.9406,3.9406,3.9406,3.9406,3.9406,3.9257,3.9017,3.897,3.8994,3.8635,3.8279,3.7389,3.6607,3.6151,3.5676,3.5112,3.4826,3.4479,3.412,3.3816,3.3577,3.3417,3.3312,3.3294,3.3294,3.3294,3.3294,3.3294,3.3294,3.3294,4.0935,4.1586,4.0884,4.0904,4.1195,4.0588,4.0215,4.0185,4.0055,4.0117,4.0171,3.9908,3.9818,3.9897,3.967,3.9489,3.9664,3.9912,4.0321,4.0729,4.0024,4.0105,4.0143,3.9579,3.9026,3.8744,3.8587,3.8193,3.7773,3.7595,3.7595,3.7595,3.7595,3.7558,3.7529,3.7797,3.7797,3.7148,3.7318,3.7079,3.6469,3.6356,3.6573,3.679,3.707,3.7791,3.8715,3.9136,3.9627,4.0199,4.0271,4.0133,4.0133,4.0108,4.0113,4.0113,4.0113,4.032,4.0827,4.1004,4.0996,4.0558,4.032,3.996,3.9161,3.8939,3.9097,3.9465,3.9628,3.9549,3.9265,3.8715,3.7831,3.7093,3.6614,3.6376,3.6337,3.6656,3.7,3.7419,3.7868,3.8302,3.8631,3.9197,3.9331,3.9376,3.9406,3.9406,3.9406,3.9406,3.9257,3.9062,3.9047,3.9041,3.8814,3.8379,3.7573,3.6855,3.6394,3.5675,3.514,3.4815,3.4558,3.4093,3.3577,3.3368,3.3188,3.3276,3.3276,3.3276,3.3206,3.3171,3.3136,3.3188,3.3171,4.1076,4.1243,4.1639,4.1775,4.1605,4.1084,4.0811,4.0639,4.0127,3.9965,4.0062,3.9933,3.9919,3.9991,3.9941,4.0052,4.0467,4.0852,4.1145,4.123,4.0759,4.0899,4.1287,4.0632,3.9894,3.9265,3.9059,3.8519,3.7846,3.7595,3.7595,3.7595,3.7595,3.7595,3.7549,3.7911,3.7596,3.7257,3.7356,3.7209,3.6686,3.7036,3.7346,3.7717,3.8099,3.8659,3.9184,3.9625,3.9961,4.0263,4.0353,4.0328,4.0279,4.0167,4.0096,4.0113,4.0113,4.0142,4.0432,4.0641,4.0541,3.9952,3.9838,3.9508,3.8976,3.8694,3.8984,3.9479,3.9675,3.9619,3.9476,3.8986,3.8157,3.7279,3.7062,3.707,3.6987,3.6985,3.7285,3.7689,3.8182,3.8542,3.8886,3.9167,3.9316,3.9406,3.9406,3.9406,3.9406,3.9391,3.9302,3.9194,3.9157,3.9079,3.8901,3.8433,3.7726,3.716,3.6761,3.5897,3.5083,3.4881,3.4755,3.4153,3.3547,3.3118,3.2945,3.31,3.2998,3.2592,3.2471,3.2735,3.2874,3.2807,3.2771,4.1393,4.0916,4.2526,4.2715,4.2019,4.1857,4.1645,4.1294,4.0506,4.0087,3.9924,4.0015,3.9975,4.0091,4.0171,4.074,4.1457,4.1789,4.1888,4.2069,4.1625,4.1852,4.2154,4.1784,4.0811,3.9535,3.9281,3.8688,3.7954,3.7622,3.7595,3.7595,3.7595,3.7595,3.7522,3.7364,3.7419,3.7545,3.7543,3.7613,3.7442,3.8141,3.8656,3.9153,3.9392,3.9646,3.9933,4.0287,4.0582,4.0377,4.0568,4.0664,4.0592,4.0316,4.0113,4.01,4.0033,4.0074,4.0145,4.0237,3.9952,3.898,3.9287,3.9339,3.883,3.8639,3.9034,3.9697,4.0105,4.0232,3.985,3.953,3.8616,3.7716,3.7894,3.7921,3.7603,3.7092,3.7511,3.8095,3.8527,3.8856,3.902,3.9197,3.9316,3.9406,3.9406,3.9406,3.9406,3.9355,3.9262,3.9019,3.891,3.8797,3.8616,3.8421,3.7718,3.728,3.6953,3.6155,3.5274,3.528,3.5083,3.4144,3.3519,3.3089,3.2769,3.282,3.2521,3.1896,3.1878,3.2241,3.2381,3.2399,3.2399,4.2616,4.2527,4.3003,4.3011,4.2763,4.2744,4.2228,4.1377,4.1008,4.0509,3.9959,3.9834,3.9848,3.9976,4.0086,4.0885,4.1808,4.2236,4.2709,4.3077,4.275,4.2746,4.3006,4.2908,4.2039,4.0699,3.9745,3.8828,3.8085,3.7748,3.7586,3.7586,3.7595,3.7595,3.7586,3.7566,3.7769,3.8023,3.7993,3.8121,3.8704,3.9108,3.9649,4.0197,4.0409,4.0542,4.0798,4.1007,4.1203,4.1389,4.1226,4.1123,4.0925,4.0451,4.0133,4.002,3.988,3.9936,4.0171,3.9593,3.9523,3.9413,3.9131,3.8794,3.8557,3.8578,3.9194,4.0296,4.1286,4.176,4.1305,4.0633,3.9834,3.8982,3.839,3.8274,3.8176,3.8108,3.8048,3.8512,3.8856,3.9077,3.9137,3.9212,3.9331,3.9406,3.9406,3.9406,3.9406,3.9316,3.918,3.8874,3.8538,3.8408,3.8275,3.8106,3.7741,3.7285,3.6872,3.6348,3.578,3.5826,3.54,3.4292,3.3505,3.301,3.2791,3.2558,3.2273,3.1836,3.1823,3.1809,3.1864,3.1919,3.2096,4.191,4.1699,4.3103,4.3675,4.363,4.3583,4.299,4.1999,4.1372,4.0846,4.0364,3.9958,4.0011,4.0269,4.006,4.0696,4.1689,4.2676,4.3125,4.3422,4.3412,4.3349,4.3429,4.3307,4.2343,4.1052,3.9907,3.8855,3.7943,3.7613,3.753,3.7512,3.7558,3.7595,3.7595,3.7604,3.7818,3.81,3.7964,3.8067,3.8851,3.9295,4.0276,4.1129,4.1266,4.1277,4.1389,4.1456,4.144,4.1429,4.1434,4.1351,4.1065,4.0604,4.0066,3.9905,3.9755,3.9634,3.974,3.9079,3.899,3.9005,3.8638,3.8663,3.8859,3.9118,3.9604,4.0868,4.1824,4.2327,4.1613,4.1351,4.0514,3.9406,3.9,3.887,3.8624,3.8744,3.8811,3.8871,3.9092,3.9227,3.9152,3.9242,3.9361,3.9406,3.9406,3.9406,3.9406,3.9228,3.9068,3.8797,3.8482,3.8408,3.8277,3.8098,3.7652,3.7174,3.6792,3.629,3.5848,3.5687,3.5114,3.4221,3.3563,3.3006,3.2313,3.1918,3.1845,3.1721,3.1363,3.1145,3.1312,3.1447,3.1608,4.1399,4.1003,4.3249,4.4238,4.4292,4.4396,4.3719,4.2654,4.1974,4.1241,4.0522,4.0333,4.0406,4.0536,4.0484,4.0696,4.1637,4.2957,4.3435,4.3577,4.3841,4.3889,4.3413,4.2954,4.2333,4.1536,4.0356,3.8998,3.8051,3.7754,3.7569,3.7526,3.7601,3.7647,3.7593,3.754,3.7594,3.7744,3.7613,3.7657,3.8502,3.9664,4.0913,4.2119,4.1991,4.181,4.1835,4.1835,4.1716,4.1651,4.1661,4.1655,4.1271,4.0683,4.015,3.9803,3.9609,3.9252,3.8985,3.8755,3.8632,3.8576,3.8438,3.8715,3.9135,3.9475,4.0187,4.1386,4.2165,4.244,4.1986,4.17,4.0927,4.0036,3.9766,3.9741,3.9103,3.899,3.9212,3.9302,3.9406,3.9361,3.9272,3.9272,3.9391,3.9406,3.9406,3.9406,3.9352,3.905,3.8852,3.8686,3.8486,3.8468,3.8371,3.8258,3.7663,3.6907,3.659,3.6208,3.5702,3.5277,3.4614,3.402,3.3587,3.2996,3.2133,3.1483,3.1538,3.1348,3.0736,3.0576,3.0884,3.0964,3.1002,4.2603,4.257,4.369,4.4216,4.4297,4.5003,4.4274,4.2745,4.3085,4.1949,4.0183,4.0916,4.0785,4.0177,4.0562,4.1372,4.2305,4.3038,4.3585,4.3755,4.4044,4.3933,4.3582,4.345,4.2812,4.2027,4.1014,3.9677,3.8658,3.8362,3.799,3.7735,3.803,3.8062,3.7653,3.7644,3.7876,3.8485,3.8591,3.9196,4.0404,4.1334,4.1887,4.2198,4.2228,4.2176,4.2138,4.2156,4.2114,4.2124,4.2156,4.2023,4.1622,4.1071,4.0436,3.9825,3.9295,3.8873,3.875,3.8614,3.849,3.8406,3.8391,3.8456,3.9054,3.9912,4.0754,4.1482,4.2213,4.2522,4.2313,4.2045,4.1434,4.0846,4.0331,3.9969,3.9421,3.9107,3.9361,3.9406,3.9406,3.9406,3.9361,3.9376,3.9406,3.9406,3.9388,3.9388,3.9192,3.883,3.8538,3.8333,3.8202,3.8165,3.8183,3.8108,3.7658,3.6769,3.6386,3.6096,3.5641,3.5082,3.4376,3.3835,3.3464,3.2934,3.2096,3.1604,3.1452,3.113,3.0714,3.0573,3.0582,3.0564,3.0527,4.1089,4.0831,4.2652,4.3431,4.3646,4.49,4.4696,4.3516,4.3115,4.2602,4.1619,4.0746,4.0177,3.9865,4.0076,4.0441,4.1101,4.202,4.2673,4.3258,4.3501,4.3677,4.3735,4.3543,4.3084,4.2319,4.1662,4.0885,3.9812,3.9121,3.8721,3.8792,3.8669,3.8527,3.8114,3.8095,3.8347,3.8788,3.9226,3.9976,4.0895,4.1466,4.1869,4.2279,4.2297,4.2297,4.2297,4.2297,4.2297,4.2287,4.2246,4.2124,4.1727,4.1076,4.0272,4.0036,3.9098,3.8628,3.8544,3.8476,3.8406,3.8391,3.8472,3.8764,3.9509,4.043,4.1338,4.2116,4.2424,4.2586,4.2602,4.2397,4.1802,4.1243,4.0737,4.0111,3.9628,3.9496,3.9406,3.9406,3.9406,3.9406,3.9406,3.9406,3.9406,3.9406,3.9334,3.9247,3.8885,3.8366,3.8104,3.7896,3.7801,3.7744,3.7782,3.7763,3.7519,3.6827,3.6245,3.5924,3.5535,3.4964,3.4168,3.3717,3.3468,3.2841,3.2031,3.1669,3.1482,3.1153,3.0799,3.0738,3.0662,3.026,3.0279,3.979,3.924,4.1514,4.2728,4.3273,4.4542,4.4474,4.3573,4.3066,4.2794,4.226,4.0803,4.0002,3.999,3.9915,3.9912,4.0188,4.081,4.1519,4.2178,4.2587,4.2922,4.2951,4.2892,4.2616,4.2278,4.1731,4.1517,4.1283,4.0607,4.0122,4.0013,3.9657,3.9282,3.9026,3.8895,3.8956,3.9159,3.9828,4.0451,4.0976,4.1271,4.1737,4.2068,4.2246,4.2267,4.2297,4.2297,4.2297,4.2277,4.2236,4.2145,4.1917,4.0984,4.0439,4.0069,3.9256,3.8697,3.8708,3.8667,3.8448,3.8391,3.8521,3.8926,4.0189,4.1078,4.1743,4.2408,4.2554,4.2602,4.2602,4.2587,4.1981,4.1409,4.094,4.027,3.9699,3.9517,3.9406,3.9406,3.9406,3.9406,3.9406,3.9406,3.9406,3.9406,3.9301,3.9104,3.8664,3.8052,3.7972,3.7839,3.7649,3.7649,3.7744,3.7629,3.7308,3.6724,3.6137,3.5453,3.4853,3.4397,3.3768,3.3496,3.3377,3.3085,3.2495,3.2004,3.1545,3.1274,3.1044,3.0926,3.073,3.0331,3.0252,3.9809,3.9145,4.0864,4.2436,4.3792,4.4041,4.3543,4.2941,4.3233,4.2391,4.1217,4.0776,4.1099,4.1176,4.0372,4.0121,4.0862,4.0968,4.1427,4.1807,4.2021,4.1945,4.1946,4.1844,4.1719,4.2021,4.1744,4.2164,4.2702,4.2103,4.1223,4.0392,4.0535,4.0349,4.0027,3.9694,3.9731,3.9986,4.0575,4.0836,4.1171,4.1511,4.1989,4.2053,4.2124,4.2156,4.2287,4.2297,4.2277,4.2277,4.2225,4.2163,4.1863,4.0961,4.0547,4.0383,3.9476,3.9098,3.9325,3.8873,3.8448,3.8391,3.8521,3.8991,4.0333,4.0496,4.1226,4.236,4.2586,4.2602,4.2602,4.2508,4.2061,4.1392,4.0873,4.0357,3.9809,3.9499,3.9406,3.9406,3.9406,3.9406,3.9406,3.9406,3.9406,3.9406,3.8797,3.8579,3.8427,3.7995,3.8014,3.7901,3.7634,3.7653,3.7901,3.7524,3.6632,3.6024,3.5494,3.4634,3.3802,3.3454,3.3398,3.3241,3.3122,3.3057,3.2889,3.2164,3.1637,3.1482,3.1344,3.1286,3.1198,3.0954,3.0954,4.0115,3.9866,4.052,4.1433,4.2488,4.3037,4.3326,4.3224,4.242,4.1531,4.0644,4.1597,4.2031,4.1611,4.0901,4.0465,4.0779,4.0336,4.0848,4.1178,4.1215,4.1276,4.1282,4.124,4.1231,4.1494,4.1611,4.1966,4.2535,4.2753,4.2859,4.2268,4.1571,4.1061,4.0709,4.0529,4.0641,4.1045,4.1367,4.1559,4.1637,4.1771,4.2065,4.2075,4.2075,4.2166,4.2277,4.2297,4.2256,4.2184,4.2139,4.2065,4.187,4.1013,4.0767,4.0808,3.9813,3.9714,3.971,3.9098,3.842,3.8391,3.8489,3.8991,4.0317,4.048,4.1241,4.2068,4.2602,4.2602,4.2602,4.2555,4.2222,4.1376,4.0771,4.0357,3.9879,3.9499,3.9406,3.9406,3.9406,3.9406,3.9406,3.9406,3.9406,3.9352,3.8634,3.8084,3.8004,3.7772,3.7701,3.7663,3.7429,3.7159,3.7318,3.6638,3.5817,3.5352,3.4889,3.4251,3.356,3.3253,3.3185,3.3036,3.2851,3.2738,3.2466,3.2039,3.1851,3.1926,3.1851,3.1738,3.1612,3.1545,3.1595,4.0076,4.0287,4.032,4.0769,4.1557,4.2149,4.2737,4.2934,4.1743,4.0873,4.0614,4.1747,4.1992,4.1356,4.068,4.0295,4.0234,4.0007,4.0207,4.0338,4.0409,4.0519,4.0677,4.0648,4.0351,4.0734,4.1217,4.1634,4.2415,4.29,4.3076,4.291,4.2477,4.1914,4.1588,4.1291,4.1407,4.1792,4.1934,4.1912,4.1873,4.1923,4.1987,4.2026,4.2009,4.2072,4.2163,4.2184,4.2149,4.2086,4.2012,4.1927,4.1631,4.1283,4.099,4.0778,4.0473,4.0153,4.0091,3.9388,3.8614,3.8434,3.8408,3.9153,4.0059,4.0529,4.116,4.2344,4.2602,4.2602,4.2602,4.2571,4.211,4.1293,4.1042,4.06,3.9862,3.9406,3.9406,3.9406,3.9406,3.9406,3.9406,3.937,3.9228,3.8995,3.8215,3.7862,3.8018,3.7663,3.715,3.713,3.7053,3.6814,3.6539,3.6084,3.5615,3.4984,3.4571,3.4259,3.3738,3.3368,3.2939,3.2713,3.2528,3.239,3.2227,3.2039,3.2252,3.2554,3.2403,3.2223,3.2315,3.2261,3.2173,3.9561,4.0287,4.032,4.075,4.1385,4.15,4.1614,4.1781,4.136,4.0944,4.0597,4.0849,4.0882,4.0619,4.0216,3.9957,3.9883,3.9733,3.9762,3.9817,3.9689,3.9472,3.9407,3.9426,3.961,3.9797,4.0314,4.1113,4.2226,4.245,4.2827,4.3236,4.2941,4.2627,4.2571,4.2043,4.1816,4.1819,4.1834,4.1791,4.1721,4.1765,4.1862,4.1927,4.1899,4.1963,4.2069,4.2076,4.2041,4.1987,4.1977,4.1884,4.1714,4.1334,4.1214,4.1408,4.0594,4.0594,4.1209,3.9927,3.9071,3.8504,3.8408,3.9023,4.0075,4.0609,4.0997,4.2197,4.2538,4.2586,4.2602,4.2539,4.1932,4.1376,4.1092,4.0634,3.9879,3.9406,3.9406,3.9406,3.9406,3.9406,3.9406,3.9334,3.9104,3.8634,3.7791,3.7582,3.7796,3.7395,3.6741,3.661,3.659,3.6255,3.599,3.5823,3.5413,3.4771,3.4209,3.3873,3.3611,3.3261,3.2864,3.2466,3.2365,3.2353,3.2277,3.2144,3.2215,3.2252,3.2738,3.2751,3.2901,3.2901,3.2713,4.0034,4.0301,4.032,4.0439,4.0707,4.0707,4.0979,4.1389,4.1254,4.0927,4.0699,4.1087,4.1374,4.1099,4.0536,4.0149,4.0151,3.9677,3.9644,3.9647,3.9395,3.9324,3.9225,3.9145,3.9134,3.9445,3.9834,4.0586,4.175,4.2106,4.2743,4.3208,4.3196,4.2892,4.2661,4.2361,4.2249,4.2058,4.1977,4.1881,4.1648,4.1659,4.1725,4.1852,4.183,4.1873,4.2002,4.1966,4.1934,4.1873,4.1862,4.1808,4.1703,4.1379,4.1453,4.1593,4.1053,4.0814,4.0719,3.9825,3.9309,3.8777,3.8472,3.8875,3.9701,4.0285,4.0998,4.1727,4.223,4.236,4.2602,4.257,4.2077,4.1309,4.0856,4.0389,3.9824,3.9535,3.9406,3.9406,3.9406,3.9406,3.9406,3.9283,3.9068,3.8542,3.7748,3.729,3.7352,3.6819,3.6195,3.6142,3.6042,3.5696,3.5406,3.5135,3.4881,3.4314,3.3802,3.339,3.3188,3.3102,3.2726,3.2303,3.2328,3.2319,3.2039,3.1788,3.17,3.1813,3.2261,3.2788,3.3014,3.304,3.3002,4.0038,4.0301,4.032,4.032,4.032,4.032,4.063,4.0998,4.0799,4.0476,4.0312,4.0738,4.0805,4.0621,4.0441,4.0196,4.02,3.9858,3.9608,3.9643,3.9471,3.9349,3.9271,3.921,3.9175,3.9374,3.9897,4.0689,4.1553,4.2081,4.2724,4.3236,4.3277,4.316,4.2938,4.272,4.2472,4.2269,4.2176,4.1998,4.1823,4.1725,4.1664,4.1747,4.1786,4.1797,4.1862,4.188,4.1819,4.1747,4.1714,4.1692,4.1626,4.1604,4.1604,4.1604,4.152,4.1111,4.057,4.0351,3.9838,3.9179,3.8681,3.8776,3.9345,3.9863,4.0447,4.1111,4.1678,4.1825,4.1922,4.1955,4.1613,4.0792,4.0515,4.004,3.9685,3.9379,3.929,3.9305,3.9272,3.9302,3.9325,3.921,3.9031,3.8412,3.7777,3.7342,3.6931,3.6407,3.593,3.5796,3.5581,3.5244,3.4806,3.4364,3.4097,3.3815,3.3518,3.3274,3.3102,3.3077,3.2625,3.2252,3.239,3.2303,3.165,3.1348,3.1311,3.1424,3.1712,3.229,3.2939,3.3102,3.3102,3.9503,4.0267,4.032,4.0267,4.0248,4.0172,4.0244,4.0287,3.9935,3.9779,3.9703,3.9446,3.9488,3.9323,3.9376,3.9498,3.9575,3.9577,3.9608,3.9608,3.9552,3.942,3.9355,3.9304,3.9305,3.9512,3.9979,4.07,4.1494,4.2302,4.292,4.3272,4.3401,4.3357,4.3214,4.2995,4.2728,4.2581,4.2422,4.2228,4.2009,4.1823,4.1747,4.1736,4.1692,4.1703,4.1743,4.1703,4.1648,4.1626,4.1615,4.1604,4.1604,4.1604,4.1604,4.1604,4.1604,4.1243,4.0825,4.0695,4.0388,3.9701,3.9044,3.9063,3.9255,3.9578,3.9993,4.0366,4.0803,4.0723,4.0707,4.0671,4.0618,4.0277,4.0127,3.9744,3.938,3.9184,3.9149,3.9101,3.902,3.9032,3.9104,3.902,3.8713,3.8579,3.7956,3.7186,3.6771,3.6387,3.593,3.5568,3.5284,3.4827,3.4377,3.3937,3.3645,3.3475,3.3645,3.3475,3.3304,3.2939,3.2411,3.2177,3.2512,3.2311,3.1599,3.1173,3.0952,3.114,3.1486,3.2114,3.2864,3.3065,3.3102,3.9522,4.0282,4.032,3.9962,3.9408,3.937,3.9633,4.003,4.0082,3.9927,3.9502,3.9526,3.9337,3.9135,3.9313,3.9373,3.9463,3.9533,3.9596,3.9614,3.9614,3.9552,3.9521,3.9489,3.9508,3.9695,4.0117,4.074,4.159,4.2449,4.3042,4.3393,4.3428,4.3453,4.341,4.3313,4.3087,4.2892,4.2739,4.2494,4.2231,4.203,4.192,4.1791,4.1736,4.1736,4.1692,4.167,4.1637,4.1604,4.1604,4.1604,4.1604,4.1604,4.1604,4.1604,4.1542,4.1357,4.0937,4.0802,4.0635,4.024,3.9684,3.9412,3.9427,3.9446,3.9608,3.9795,4.0042,4.009,4.0108,4.0071,3.9961,3.9769,3.9613,3.9381,3.9037,3.8782,3.8713,3.838,3.8315,3.8464,3.8566,3.8448,3.8201,3.8403,3.8128,3.7244,3.6603,3.6235,3.5657,3.5284,3.5047,3.4607,3.4142,3.3691,3.3398,3.321,3.339,3.3471,3.3211,3.2788,3.2198,3.1876,3.1863,3.175,3.1486,3.1085,3.0645,3.1085,3.1482,3.2135,3.2688,3.2914,3.309,3.8797,3.926,3.9279,3.8954,3.861,3.8854,3.9257,3.9632,4.0014,3.9897,3.9557,3.9551,3.9414,3.9204,3.9308,3.9418,3.9457,3.9552,3.9614,3.9614,3.9614,3.9602,3.9608,3.9626,3.9619,3.984,4.0188,4.0696,4.1427,4.2212,4.2866,4.3269,4.3349,4.3366,4.3357,4.3339,4.334,4.3169,4.3004,4.2769,4.2545,4.2341,4.2173,4.2037,4.1956,4.1913,4.1823,4.1801,4.1747,4.1637,4.1604,4.1604,4.1604,4.1604,4.1604,4.1604,4.1582,4.1464,4.1232,4.1157,4.0937,4.0683,4.0417,4.0032,3.9646,3.9492,3.9276,3.9188,3.9439,3.962,3.9638,3.9612,3.9448,3.9259,3.9154,3.9015,3.8695,3.8361,3.799,3.7582,3.7552,3.7701,3.7734,3.7649,3.7665,3.7837,3.7621,3.6891,3.6368,3.6072,3.53,3.4648,3.4586,3.4402,3.3951,3.3602,3.3364,3.3176,3.3188,3.3193,3.3014,3.2826,3.239,3.1687,3.0984,3.0959,3.0997,3.0633,3.0344,3.0854,3.1268,3.1687,3.2277,3.2864,3.3002,3.7782,3.7916,3.7797,3.798,3.7927,3.8682,3.9083,3.9165,3.9793,3.9881,3.9682,3.9502,3.9344,3.9231,3.9353,3.9444,3.9495,3.9571,3.9614,3.9614,3.9614,3.9614,3.9614,3.962,3.9631,3.9919,4.0271,4.0657,4.0877,4.1662,4.255,4.3032,4.3178,4.3232,4.3269,4.3367,4.3376,4.3331,4.3169,4.3004,4.2892,4.2739,4.2619,4.256,4.251,4.2422,4.2207,4.2072,4.1956,4.174,4.1604,4.1615,4.1604,4.1604,4.1604,4.1604,4.1604,4.1571,4.1487,4.1464,4.1498,4.1312,4.1123,4.0551,4.0037,3.9465,3.9142,3.8764,3.894,3.8974,3.8991,3.8992,3.8888,3.8826,3.8758,3.8614,3.8372,3.7898,3.7265,3.6915,3.6759,3.6941,3.7223,3.7188,3.7349,3.7404,3.7322,3.6695,3.5972,3.572,3.4916,3.4088,3.4366,3.4382,3.4033,3.3693,3.3428,3.3249,3.3129,3.3102,3.3065,3.2901,3.2692,3.1763,3.0821,3.057,3.0444,3.0193,3.0193,3.057,3.0947,3.1223,3.1763,3.2428,3.2889,3.8169,3.875,3.8713,3.8686,3.8686,3.8911,3.9355,3.9967,3.9973,3.9868,3.9699,3.9545,3.9369,3.9249,3.9386,3.9495,3.9583,3.9596,3.9602,3.9652,3.9652,3.9614,3.9614,3.9614,3.962,3.9739,4.01,4.0561,4.1046,4.1657,4.2268,4.2977,4.3123,4.316,4.3187,4.3305,4.3368,4.3358,4.3349,4.3187,4.3032,4.2948,4.2853,4.2709,4.2619,4.2629,4.2422,4.2218,4.2114,4.1956,4.1714,4.1626,4.1604,4.1604,4.1604,4.1604,4.1615,4.1604,4.1604,4.1604,4.1604,4.1604,4.1334,4.079,4.022,3.9568,3.9044,3.8639,3.8391,3.8391,3.8394,3.841,3.8414,3.8443,3.8425,3.8263,3.8063,3.7375,3.6647,3.6322,3.6092,3.6267,3.6613,3.6806,3.7,3.7163,3.734,3.6882,3.5671,3.5047,3.4235,3.3684,3.437,3.4393,3.3939,3.3666,3.333,3.3136,3.2995,3.3007,3.3052,3.2562,3.2039,3.1449,3.0783,3.0444,3.0181,3.0068,3.0143,3.0394,3.057,3.0809,3.1148,3.1725,3.234,3.7182,3.7944,3.8284,3.8209,3.7994,3.8266,3.8916,3.959,3.9517,3.9583,3.979,3.9611,3.9389,3.9256,3.9386,3.977,3.9839,3.9671,3.9934,4.0009,3.9727,3.9633,3.9614,3.9614,3.962,3.967,3.9567,3.9992,4.0822,4.1189,4.1597,4.2459,4.2759,4.3041,4.3096,4.3187,4.3278,4.3323,4.3402,4.3331,4.316,4.3169,4.316,4.3022,4.2985,4.2929,4.2699,4.2464,4.2259,4.2061,4.178,4.1902,4.187,4.1791,4.1725,4.1736,4.1708,4.1604,4.1604,4.1604,4.1604,4.1604,4.1593,4.1065,4.0659,4.0028,3.9362,3.8952,3.8462,3.8391,3.8391,3.841,3.841,3.8418,3.832,3.8168,3.7729,3.7094,3.6408,3.5859,3.5729,3.5789,3.6028,3.6043,3.6207,3.6222,3.649,3.6344,3.5279,3.4494,3.3647,3.3198,3.3788,3.3622,3.2863,3.2901,3.311,3.2957,3.2773,3.2693,3.2541,3.1901,3.1311,3.0934,3.0557,3.0168,2.9942,2.9905,2.9905,3.0068,3.0231,3.0394,3.0733,3.106,3.1512,3.5963,3.6585,3.7381,3.7347,3.6865,3.7581,3.8454,3.9139,3.9032,3.9348,3.9953,3.9796,3.952,3.933,3.9386,4.0024,4.0232,3.9758,4.0046,4.0296,3.989,3.9708,3.9614,3.9614,3.9533,3.9367,3.9209,3.9412,3.9871,4.0262,4.0827,4.166,4.2275,4.2801,4.292,4.304,4.316,4.3224,4.3296,4.3368,4.3394,4.3454,4.3418,4.3444,4.3462,4.3321,4.3069,4.2787,4.2502,4.2279,4.203,4.2072,4.2093,4.1973,4.1866,4.1816,4.1714,4.1626,4.1604,4.1604,4.1604,4.1604,4.1604,4.1368,4.0919,4.0461,3.98,3.9295,3.8816,3.8532,3.8532,3.8408,3.8408,3.8377,3.8248,3.8091,3.7505,3.6966,3.6336,3.5668,3.5553,3.5568,3.5519,3.5519,3.5519,3.5504,3.5344,3.4988,3.4616,3.412,3.3459,3.2969,3.3023,3.2607,3.194,3.2424,3.2948,3.2508,3.2306,3.224,3.2089,3.1687,3.1223,3.0708,3.0331,2.998,2.9854,2.9829,2.9829,2.9854,2.9955,3.0118,3.0256,3.0545,3.0708,3.6454,3.6566,3.7421,3.7707,3.7711,3.8439,3.9362,4.0082,3.989,3.9981,4.0142,4.0363,4.014,3.9446,3.9514,4.009,4.085,4.0132,4.0158,4.0547,4.0128,3.9796,3.9633,3.9677,3.9373,3.9154,3.9031,3.9171,3.9487,3.9688,4.0356,4.1615,4.1795,4.2321,4.291,4.303,4.3086,4.3151,4.3196,4.3251,4.3314,4.3358,4.3455,4.3454,4.3463,4.3454,4.333,4.3087,4.292,4.2759,4.2544,4.2391,4.2279,4.2156,4.1995,4.1877,4.1747,4.1626,4.1604,4.1604,4.1604,4.1604,4.1571,4.1408,4.1076,4.0873,4.0326,3.994,3.9493,3.9088,3.8925,3.8532,3.8422,3.8408,3.8321,3.8064,3.767,3.7178,3.6646,3.6101,3.5733,3.5651,3.5504,3.5504,3.5504,3.5489,3.5489,3.5198,3.5115,3.4254,3.3427,3.3074,3.2764,3.1968,3.1519,3.2361,3.279,3.2277,3.186,3.1812,3.175,3.1683,3.1231,3.0545,3.0168,2.9867,2.9792,2.9779,2.9792,2.9817,2.9804,2.988,2.998,3.0168,3.0457]}]]